[[{"header":{"parameterUnit":"m.s-1","parameterCategory":1,"la1":30.6,"la2":29.2853,"lo1":-89.7004,"lo2":-87.6739,"dy":0.0162,"dx":0.0183,"nx":112,"ny":82,"refTime":"2024-05-16T18:00:00:Z","depth":0,"parameterNumber":2,"parameterNumberName":"U-component_of_WINDS"},"data":[0.0,0.0,0.0,0.0,0.0,0.0,0.0,0.0,0.0,0.0,0.0,0.0,0.0,0.0,0.0,0.0,0.0,0.0,0.0,0.0,0.0,0.0,0.0,0.0,0.0,0.0,0.0,0.0,0.0,0.0,0.0,0.0,0.0,0.0,0.0,0.0,0.0,0.0,0.0,0.0,0.0,0.0,0.0,0.0,0.0,0.0,0.0,0.0,0.0,0.0,0.0,0.0,0.0,0.0,0.0,0.0,0.0,0.0,0.0,0.0,0.0,0.0,0.0,0.0,0.0,0.0,0.0,0.0,0.0,0.0,0.0,0.0,0.0,0.0,0.0,0.0,0.0,0.0,0.0,0.0,0.0,0.0,0.0,0.0,0.0,0.0,0.0,0.0,0.0,0.0,0.0,-0.0,-0.1318,-0.2072,-0.1959,-0.1551,-0.1142,-0.069,0.0,0.0,0.0,0.0,0.0,0.0,0.0,0.0,0.0,0.0,0.0,0.0,0.0,0.0,0.0,0.0,0.0,0.0,0.0,0.0,0.0,0.0,0.0,0.0,0.0,0.0,0.0,0.0,0.0,0.0,0.0,0.0,0.0,0.0,0.0,0.0,0.0,0.0,0.0,0.0,0.0,0.0,0.0,0.0,0.0,0.0,0.0,0.0,0.0,0.0,0.0,0.0,0.0,0.0,0.0,0.0,0.0,0.0,0.0,0.0,0.0,0.0,0.0,0.0,0.0,0.0,0.0,0.0,0.0,0.0,0.0,0.0,0.0,0.0,0.0,0.0,0.0,0.0,0.0,0.0,0.0,0.0,0.0,0.0,0.0,0.0,0.0,0.0,0.0,0.0,0.0,0.0,0.0,0.0,0.0,0.0,0.0,0.0,0.0,0.0,0.0,0.0,0.0,0.0,-0.1385,-0.3127,-0.3741,-0.4064,-0.3983,-0.3716,-0.3338,-0.2872,0.0,0.0,0.0,0.0,0.0,0.0,0.0,0.0,0.0,0.0,0.0,0.0,0.0,0.0,0.0,0.0,0.0,0.0,0.0,0.0,0.0,0.0,0.0,0.0,0.0,0.0,0.0,0.0,0.0,0.0,0.0,0.0,0.0,0.0,0.0,0.0,0.0,0.0,0.0,0.0,0.0,0.0,0.0,0.0,0.0,0.0,0.0,0.0,0.0,0.0,0.0,0.0,0.0,0.0,0.0,0.0,0.0,0.0,0.0,0.0,0.0,0.0,0.0,0.0,0.0,0.0,0.0,0.0,0.0,0.0,0.0,0.0,0.0,0.0,0.0,0.0,0.0,0.0,0.0,0.0,0.0,0.0,0.0,0.0,0.0,0.0,0.0,0.0,0.0,0.0,0.0,0.0,0.0,0.0,0.0,0.0,0.0,0.0,0.0,0.0,0.0,0.0,0.0,-0.2679,-0.3545,-0.4683,-0.5129,-0.5427,-0.5506,-0.4869,-0.4274,-0.377,-0.227,0.0,0.0,0.0,0.0,0.0,0.0,0.0,0.0,0.0,0.0,0.0,0.0,0.0,0.0,0.0,0.0,0.0,0.0,0.0,0.0,0.0,0.0,0.0,0.0,0.0,0.0,0.0,0.0,0.0,0.0,0.0,0.0,0.0,0.0,0.0,0.0,0.0,0.0,0.0,0.0,0.0,0.0,0.0,0.0,0.0,0.0,0.0,0.0,0.0,0.0,0.0,0.0,0.0,0.0,0.0,0.0,0.0,0.0,0.0,0.0,0.0,0.0,0.0,0.0,0.0,0.0,0.0,0.0,0.0,0.0,0.0,0.0,0.0,0.0,0.0,0.0,0.0,0.0,0.0,0.0,0.0,0.0,0.0,0.0,0.0,0.0,0.0,0.0,0.0,0.0,0.0,0.0,0.0,0.0,0.0,0.0,0.0,0.0,0.0,0.0,0.0,0.0,-0.4951,-0.5787,-0.6151,-0.6595,-0.6818,-0.688,-0.5927,-0.5133,-0.4664,-0.387,0.0,0.0,0.0,0.0,0.0,0.0,0.0,0.0,0.0,0.0,0.0,0.0,0.0,0.0,0.0,0.0,0.0,0.0,0.0,0.0,0.0,0.0,0.0,0.0,0.0,0.0,0.0,0.0,0.0,0.0,0.0,0.0,0.0,0.0,0.0,0.0,0.0,0.0,0.0,0.0,0.0,0.0,0.0,0.0,0.0,0.0,0.0,0.0,0.0,0.0,0.0,0.0,0.0,0.0,0.0,0.0,0.0,0.0,0.0,0.0,0.0,0.0,0.0,0.0,0.0,0.0,0.0,0.0,0.0,0.0,0.0,0.0,0.0,0.0,0.0,0.0,0.0,0.0,0.0,0.0,0.0,0.0,0.0,0.0,0.0,0.0,0.0,0.0,0.0,0.0,0.0,0.0,0.0,0.0,0.0,0.0,0.0,0.0,0.0,0.0,0.0,0.0,-0.6939,-0.8218,-0.8175,-0.8661,-0.878,-0.8315,-0.7281,-0.6532,-0.618,-0.4776,0.0,0.0,0.0,0.0,0.0,0.0,0.0,0.0,0.0,0.0,0.0,0.0,0.0,0.0,0.0,0.0,0.0,0.0,0.0,0.0,0.0,0.0,0.0,0.0,0.0,0.0,0.0,0.0,0.0,0.0,0.0,0.0,0.0,0.0,0.0,0.0,0.0,0.0,0.0,0.0,0.0,0.0,0.0,0.0,0.0,0.0,0.0,0.0,0.0,0.0,0.0,0.0,0.0,0.0,0.0,0.0,0.0,0.0,0.0,0.0,0.0,0.0,0.0,0.0,0.0,0.0,0.0,0.0,0.0,0.0,0.0,0.0,0.0,0.0,0.0,0.0,0.0,0.0,0.0,0.0,0.0,0.0,0.0,0.0,0.0,0.0,0.0,0.0,0.0,0.0,0.0,0.0,0.0,0.0,0.0,0.0,0.0,0.0,0.0,0.0,0.0,0.0,-0.7214,-0.8129,0.0,-0.8637,-0.8521,-0.8199,-0.7807,-0.7145,-0.6113,0.0,0.0,0.0,0.0,0.0,0.0,0.0,0.0,0.0,0.0,0.0,0.0,0.0,0.0,0.0,0.0,0.0,0.0,0.0,0.0,0.0,0.0,0.0,0.0,0.0,0.0,0.0,0.0,0.0,0.0,0.0,0.0,0.0,0.0,0.0,0.0,0.0,0.0,0.0,0.0,0.0,0.0,0.0,0.0,0.0,0.0,0.0,0.0,0.0,0.0,0.0,0.0,0.0,0.0,0.0,0.0,0.0,0.0,0.0,0.0,0.0,0.0,0.0,0.0,0.0,0.0,0.0,0.0,0.0,0.0,0.0,0.0,0.0,0.0,0.0,0.0,0.0,0.0,0.0,0.0,0.0,0.0,0.0,0.0,0.0,0.0,0.0,0.0,0.0,0.0,0.0,0.0,0.0,0.0,0.0,0.0,0.0,0.0,0.0,0.0,0.0,0.0,-0.7195,-0.7927,-0.8659,0.0,-0.9247,-0.8998,-0.8561,-0.8335,-0.7652,-0.6319,0.0,0.0,0.0,0.0,0.0,0.0,0.0,0.0,0.0,0.0,0.0,0.0,0.0,0.0,0.0,0.0,0.0,0.0,0.0,0.0,0.0,0.0,0.0,0.0,0.0,0.0,0.0,0.0,0.0,0.0,0.0,0.0,0.0,0.0,0.0,0.0,0.0,0.0,0.0,0.0,0.0,0.0,0.0,0.0,0.0,0.0,0.0,0.0,0.0,0.0,0.0,0.0,0.0,0.0,0.0,0.0,0.0,0.0,0.0,0.0,0.0,0.0,0.0,0.0,0.0,0.0,0.0,0.0,0.0,0.0,0.0,0.0,0.0,0.0,0.0,0.0,0.0,0.0,0.0,0.0,0.0,0.0,0.0,0.0,0.0,0.0,0.0,0.0,0.0,0.0,0.0,0.0,0.0,0.0,0.0,0.0,0.0,0.0,0.0,0.0,0.0,0.0,-0.8257,-0.9439,-1.0387,-1.0856,-1.0963,-1.0631,-0.9695,-0.8931,-0.8039,0.0,0.0,0.0,0.0,0.0,0.0,0.0,0.0,0.0,0.0,0.0,0.0,0.0,0.0,0.0,0.0,0.0,0.0,0.0,0.0,0.0,0.0,0.0,0.0,0.0,0.0,0.0,0.0,0.0,0.0,0.0,0.0,0.0,0.0,0.0,0.0,0.0,0.0,0.0,0.0,0.0,0.0,0.0,0.0,0.0,0.0,0.0,0.0,0.0,0.0,0.0,0.0,0.0,0.0,0.0,0.0,0.0,0.0,0.0,0.0,0.0,0.0,0.0,0.0,0.0,0.0,0.0,0.0,0.0,0.0,0.0,0.0,0.0,0.0,0.0,0.0,0.0,0.0,0.0,0.0,0.0,0.0,0.0,0.0,0.0,0.0,0.0,0.0,0.0,0.0,0.0,0.0,0.0,0.0,0.0,0.0,0.0,0.0,0.0,0.0,0.0,0.0,0.0,-0.8754,-0.9942,-1.0801,-1.0887,-1.0633,-1.012,-0.9384,-0.9037,-0.8189,-0.6704,0.0,0.0,0.0,0.0,0.0,0.0,0.0,0.0,0.0,0.0,0.0,0.0,0.0,0.0,0.0,0.0,0.0,0.0,0.0,0.0,0.0,0.0,0.0,0.0,0.0,0.0,0.0,0.0,0.0,0.0,0.0,0.0,0.0,0.0,0.0,0.0,0.0,0.0,0.0,0.0,0.0,0.0,0.0,0.0,0.0,0.0,0.0,0.0,0.0,0.0,0.0,0.0,0.0,0.0,0.0,0.0,0.0,0.0,0.0,0.0,0.0,0.0,0.0,0.0,0.0,0.0,0.0,0.0,0.0,0.0,0.0,0.0,0.0,0.0,0.0,0.0,0.0,0.0,0.0,0.0,0.0,0.0,0.0,0.0,0.0,0.0,0.0,0.0,0.0,0.0,0.0,0.0,0.0,0.0,0.0,0.0,0.0,0.0,0.0,0.0,0.0,0.0,-0.9392,-1.0385,-1.115,-1.1226,-1.0853,-1.0288,-0.942,-0.9286,-0.8475,-0.671,0.0,0.0,0.0,0.0,0.0,0.0,0.0,0.0,0.0,0.0,0.0,0.0,0.0,0.0,0.0,0.0,0.0,0.0,0.0,0.0,0.0,0.0,0.0,0.0,0.0,0.0,0.0,0.0,0.0,0.0,0.0,0.0,0.0,0.0,0.0,0.0,0.0,0.0,0.0,0.0,0.0,0.0,0.0,0.0,0.0,0.0,0.0,0.0,0.0,0.0,0.0,0.0,0.0,0.0,0.0,0.0,0.0,0.0,0.0,0.0,0.0,0.0,0.0,0.0,0.0,0.0,0.0,0.0,0.0,0.0,0.0,0.0,0.0,0.0,0.0,0.0,0.0,0.0,0.0,0.0,0.0,0.0,0.0,0.0,0.0,0.0,0.0,0.0,0.0,0.0,0.0,0.0,0.0,0.0,0.0,0.0,0.0,0.0,0.0,0.0,0.0,0.0,-1.0037,-1.0827,-1.1436,-1.1681,-1.142,-1.081,-0.9761,-0.9604,-0.8758,-0.7011,0.0,0.0,0.0,0.0,0.0,0.0,0.0,0.0,0.0,0.0,0.0,0.0,0.0,0.0,0.0,0.0,0.0,0.0,0.0,0.0,0.0,0.0,0.0,0.0,0.0,0.0,0.0,0.0,0.0,0.0,0.0,0.0,0.0,0.0,0.0,0.0,0.0,0.0,0.0,0.0,0.0,0.0,0.0,0.0,0.0,0.0,0.0,0.0,0.0,0.0,0.0,0.0,0.0,0.0,0.0,0.0,0.0,0.0,0.0,0.0,-1.3053,0.0,0.0,0.0,0.0,0.0,0.0,0.0,0.0,0.0,0.0,0.0,0.0,0.0,0.0,0.0,0.0,0.0,0.0,0.0,0.0,0.0,0.0,0.0,0.0,0.0,0.0,0.0,0.0,0.0,0.0,0.0,0.0,0.0,0.0,0.0,0.0,0.0,0.0,0.0,0.0,0.0,-1.0379,-1.1265,-1.1868,-1.1733,-1.1318,-1.0785,-1.0118,-0.951,-0.8665,-0.7675,-0.7054,0.0,0.0,0.0,0.0,0.0,0.0,0.0,0.0,0.0,0.0,0.0,0.0,0.0,0.0,0.0,0.0,0.0,0.0,0.0,0.0,0.0,0.0,0.0,0.0,0.0,0.0,0.0,0.0,0.0,0.0,0.0,0.0,0.0,0.0,0.0,0.0,0.0,0.0,0.0,0.0,0.0,0.0,0.0,0.0,0.0,0.0,0.0,0.0,0.0,0.0,0.0,0.0,0.0,0.0,0.0,0.0,0.0,0.0,0.0,0.0,-1.3557,0.0,0.0,0.0,0.0,0.0,0.0,0.0,0.0,0.0,0.0,0.0,0.0,0.0,0.0,0.0,0.0,0.0,0.0,0.0,0.0,0.0,0.0,0.0,0.0,0.0,0.0,0.0,0.0,0.0,0.0,0.0,0.0,0.0,0.0,0.0,0.0,0.0,0.0,0.0,0.0,-1.0678,-1.1572,-1.2116,-1.1882,-1.166,-1.1133,-1.0185,-0.9718,-0.8958,-0.7756,-0.7256,0.0,0.0,0.0,0.0,0.0,0.0,0.0,0.0,0.0,0.0,0.0,0.0,0.0,0.0,0.0,0.0,0.0,0.0,0.0,0.0,0.0,0.0,0.0,0.0,0.0,0.0,0.0,0.0,0.0,0.0,0.0,0.0,0.0,0.0,0.0,0.0,0.0,0.0,0.0,0.0,0.0,0.0,0.0,0.0,0.0,0.0,0.0,0.0,0.0,0.0,0.0,0.0,0.0,-1.6451,-1.6465,-1.6114,-1.7068,-1.6977,-1.6088,-1.5656,-1.523,-1.4672,0.0,0.0,0.0,0.0,0.0,0.0,0.0,0.0,0.0,0.0,0.0,0.0,0.0,0.0,0.0,0.0,0.0,0.0,0.0,0.0,0.0,0.0,0.0,0.0,0.0,-1.1771,-1.1909,0.0,0.0,0.0,0.0,0.0,0.0,0.0,0.0,0.0,0.0,0.0,0.0,-1.1002,-1.176,-1.2224,-1.2126,-1.2026,-1.1436,-1.02,-0.9947,-0.9291,-0.7846,-0.7483,-0.6996,0.0,0.0,0.0,0.0,0.0,0.0,0.0,0.0,0.0,0.0,0.0,0.0,0.0,0.0,0.0,0.0,0.0,0.0,0.0,0.0,0.0,0.0,0.0,0.0,0.0,0.0,0.0,0.0,0.0,0.0,0.0,0.0,-1.5455,-1.5184,0.0,0.0,0.0,0.0,0.0,0.0,0.0,0.0,0.0,0.0,0.0,0.0,0.0,-1.689,-1.7692,-1.7705,-1.7939,-1.8453,-1.8532,-1.8532,-1.8453,-1.861,-1.8597,-1.8453,-1.8409,0.0,-1.5299,-1.5279,0.0,0.0,0.0,0.0,0.0,0.0,0.0,0.0,0.0,0.0,0.0,0.0,0.0,0.0,0.0,0.0,0.0,0.0,0.0,0.0,0.0,0.0,-1.3317,-1.393,-1.3951,-1.3772,0.0,-1.2175,-1.0812,-1.0857,-1.095,0.0,0.0,0.0,0.0,0.0,0.0,0.0,-1.1547,-1.1898,-1.2126,-1.2076,-1.1678,-1.1167,-1.0584,-0.9747,-0.9086,-0.8493,-0.7871,-0.7371,-0.6992,-0.6541,0.0,0.0,0.0,0.0,0.0,0.0,0.0,0.0,0.0,0.0,0.0,0.0,0.0,0.0,0.0,0.0,0.0,0.0,0.0,0.0,0.0,0.0,0.0,0.0,0.0,0.0,0.0,0.0,0.0,-1.5894,-1.6964,-1.6725,-1.6993,-1.6879,0.0,0.0,0.0,0.0,0.0,0.0,0.0,0.0,0.0,-1.7316,-1.78,-1.8274,-1.8782,-1.8692,-1.8969,-1.9641,-1.9535,-1.9501,-1.9527,-2.0122,-1.9839,-1.8937,-1.9603,-1.895,-1.7297,-1.6603,-1.5869,-1.4989,0.0,0.0,0.0,0.0,-1.2176,-1.1904,-1.2337,-1.2302,0.0,0.0,0.0,0.0,0.0,0.0,0.0,0.0,0.0,0.0,0.0,0.0,0.0,-1.4547,-1.4439,-1.4257,-1.4257,-1.3442,-1.252,0.0,-1.1741,-1.1493,-1.1022,0.0,0.0,0.0,0.0,-1.1591,-1.1696,-1.208,-1.2367,-1.2439,-1.1751,-1.109,-1.064,-0.9747,-0.8935,-0.8246,-0.7927,-0.7629,-0.7348,-0.6974,-0.6452,0.0,0.0,0.0,0.0,0.0,0.0,0.0,0.0,0.0,0.0,0.0,0.0,0.0,0.0,0.0,0.0,0.0,0.0,0.0,0.0,0.0,0.0,0.0,0.0,0.0,0.0,0.0,0.0,-1.7371,-1.8111,-1.7959,-1.8385,-1.8501,0.0,0.0,0.0,0.0,0.0,0.0,-1.7867,-1.86,-1.9051,-1.9128,-1.9599,-1.9946,-2.0133,-2.0038,-2.025,-2.0735,-2.065,-2.0601,-2.0627,-2.1393,-2.1028,-1.9839,-2.0764,-2.066,-1.9634,-1.7933,-1.6892,-1.6304,-1.4998,-1.409,-1.3607,-1.3609,-1.334,-1.3006,-1.3484,-1.3397,-1.3104,-1.2983,0.0,-1.2534,-1.2278,0.0,0.0,0.0,0.0,-1.4042,-1.4204,-1.478,-1.5224,-1.5012,-1.4864,-1.4735,-1.467,-1.4522,-1.4135,0.0,-1.2743,-1.2301,-1.1872,0.0,0.0,0.0,0.0,-1.2215,-1.2203,-1.2553,-1.2712,-1.2624,-1.1783,-1.099,-1.0378,-0.9517,-0.8666,-0.7955,-0.7901,-0.7818,-0.7612,-0.7268,-0.6911,-0.6505,0.0,0.0,0.0,0.0,0.0,0.0,0.0,0.0,0.0,0.0,0.0,0.0,0.0,0.0,0.0,0.0,0.0,0.0,0.0,0.0,0.0,0.0,0.0,0.0,0.0,0.0,0.0,0.0,0.0,-1.8629,-1.9138,0.0,0.0,0.0,0.0,-1.89,-1.9485,-1.9978,-2.0226,-2.1233,-2.1742,-2.1625,-2.202,-2.229,-2.2432,-2.2445,-2.2365,-2.2284,-2.2284,-2.2284,-2.2284,-2.2322,-2.2296,-2.2245,-2.231,-2.2256,-2.2007,-1.9179,-1.7627,-1.694,-1.6881,-1.639,-1.5723,-1.5756,-1.5644,-1.5469,-1.4894,-1.4633,-1.4437,-1.3962,-1.3248,-1.269,-1.3094,-1.3226,0.0,0.0,-1.3892,-1.4669,-1.5103,-1.5245,-1.5386,-1.5753,-1.5853,-1.5733,-1.5346,-1.5255,-1.5004,0.0,-1.4,-1.3801,-1.3272,0.0,-1.2753,-1.3138,-1.2779,-1.2776,-1.3503,-1.3537,-1.3177,-1.2401,-1.1518,-1.0616,-0.9714,-0.8904,-0.8262,-0.7901,-0.7901,-0.7847,-0.7796,-0.7351,-0.7074,-0.6939,-0.5331,0.0,0.0,0.0,0.0,0.0,0.0,0.0,0.0,0.0,0.0,0.0,0.0,0.0,0.0,0.0,0.0,0.0,0.0,0.0,0.0,0.0,0.0,0.0,0.0,0.0,0.0,0.0,0.0,-2.0004,-2.0964,0.0,-2.0855,-2.0768,-2.0875,-2.1105,-2.1366,-2.1522,-2.1637,-2.2821,-2.3326,-2.298,-2.3533,-2.3745,-2.3589,-2.3003,-2.3004,-2.3473,-2.3186,-2.3131,-2.3226,-2.3398,-2.3093,-2.2428,-2.2753,-2.2714,-2.2309,-2.0881,-1.9809,-1.8958,-1.7442,-1.6639,-1.6249,-1.5558,-1.5299,-1.5195,-1.4997,-1.4892,-1.4809,-1.4635,-1.4419,-1.4193,-1.4358,-1.4409,-1.4409,-1.4409,-1.4851,-1.5365,-1.5529,-1.5786,-1.6054,-1.6171,-1.6134,-1.5958,-1.5853,-1.5776,-1.5622,-1.5292,-1.476,-1.4208,-1.3883,-1.3685,-1.3636,-1.3782,-1.3675,-1.358,-1.3708,-1.3259,-1.2919,-1.2723,-1.1304,-1.0287,-0.9989,-0.901,-0.8268,-0.7901,-0.7901,-0.789,-0.7864,-0.7605,-0.7392,-0.7244,-0.6195,-0.5255,0.0,0.0,0.0,0.0,0.0,0.0,0.0,0.0,0.0,0.0,0.0,0.0,0.0,0.0,0.0,0.0,0.0,0.0,0.0,0.0,0.0,0.0,0.0,0.0,0.0,0.0,-2.0989,-2.0908,-2.2123,-2.2892,-2.2663,-2.284,-2.3055,-2.3302,-2.3302,-2.3409,-2.3656,-2.4518,-2.4785,-2.4295,-2.4757,-2.4761,-2.4329,-2.3717,-2.3645,-2.4186,-2.3794,-2.3695,-2.3834,-2.4,-2.3694,-2.2975,-2.3354,-2.3302,-2.2936,-2.2326,-2.1703,-2.0949,-1.8821,-1.7615,-1.7043,-1.6326,-1.5914,-1.5754,-1.5754,-1.5509,-1.5309,-1.5605,-1.5394,-1.5028,-1.5183,-1.5235,-1.5266,-1.5421,-1.5794,-1.6187,-1.6332,-1.6612,-1.6839,-1.6839,-1.6646,-1.6407,-1.6407,-1.6236,-1.6029,-1.5914,-1.5329,-1.482,-1.469,-1.4453,-1.4404,-1.4541,-1.4443,-1.4241,-1.3867,-1.3429,-1.2958,-1.246,-1.1211,-1.03,-0.9935,-0.9046,-0.8369,-0.7907,-0.7901,-0.7901,-0.7901,-0.7812,-0.7701,-0.7495,-0.6506,-0.5377,-0.4132,0.0,0.0,0.0,0.0,0.0,0.0,0.0,0.0,0.0,0.0,0.0,0.0,0.0,0.0,0.0,0.0,0.0,0.0,0.0,0.0,0.0,0.0,0.0,-1.9783,-2.0334,-2.0923,-2.1342,-2.2548,-2.3363,-2.3363,-2.3979,-2.4641,-2.5302,-2.5349,-2.5656,-2.6349,-2.6411,-2.6211,-2.5756,-2.5749,-2.5445,-2.4835,-2.4677,-2.4492,-2.4292,-2.4157,-2.4112,-2.4112,-2.4112,-2.4112,-2.4112,-2.4112,-2.4112,-2.4073,-2.3485,-2.3067,-2.261,-2.0939,-1.9413,-1.8139,-1.8127,-1.7722,-1.7257,-1.7202,-1.6533,-1.5883,-1.686,-1.6245,-1.5152,-1.5608,-1.5753,-1.5846,-1.6291,-1.6726,-1.7111,-1.7554,-1.7668,-1.7668,-1.7668,-1.7327,-1.6997,-1.6997,-1.6726,-1.6368,-1.6012,-1.5838,-1.577,-1.5682,-1.5202,-1.4941,-1.5352,-1.5068,0.0,-1.404,-1.3965,-1.3304,-1.167,-1.1267,-1.059,-0.9415,-0.901,-0.8557,-0.7985,-0.7907,-0.7901,-0.7901,-0.7871,-0.7797,-0.7655,-0.612,-0.4579,-0.3058,0.0,0.0,0.0,0.0,0.0,0.0,0.0,0.0,0.0,0.0,0.0,0.0,0.0,0.0,0.0,0.0,0.0,0.0,0.0,0.0,0.0,0.0,-2.0277,-2.0226,-2.159,-2.2647,-2.2717,-2.3933,-2.4764,-2.4764,-2.541,-2.5887,-2.6072,-2.6087,-2.6164,-2.6334,-2.6842,-2.6885,-2.6283,-2.6374,-2.6083,-2.5412,-2.4878,-2.4563,-2.4492,-2.4229,-2.4157,-2.4247,-2.4157,-2.4112,-2.4112,-2.4112,-2.4112,-2.4112,-2.3942,-2.3501,-2.275,-2.0848,-1.9702,-1.9091,-1.8259,-1.7902,-1.782,-1.7368,-1.7014,-1.6826,-1.6974,-1.679,-1.657,-1.7036,-1.7171,-1.7191,-1.7326,-1.745,-1.7513,-1.7637,-1.7668,-1.7668,-1.7668,-1.7575,-1.7482,-1.7482,-1.745,-1.7296,-1.7236,-1.7114,-1.6658,-1.5645,-1.5322,-1.5283,-1.5391,-1.4906,0.0,-1.4076,-1.3174,-1.2258,-1.1608,-1.0833,-1.0201,-0.9766,-0.9182,-0.8694,-0.841,-0.8118,-0.7901,-0.7901,-0.7865,-0.7512,-0.694,-0.5944,-0.4988,0.0,0.0,0.0,0.0,0.0,0.0,0.0,0.0,0.0,0.0,0.0,0.0,0.0,0.0,0.0,0.0,0.0,0.0,0.0,0.0,0.0,0.0,-2.1296,-2.2,-2.2149,-2.2809,-2.3394,-2.3686,-2.4933,-2.5872,-2.6164,-2.6826,-2.7226,-2.7226,-2.7503,-2.7642,-2.7626,-2.8,-2.7951,-2.7425,-2.718,-2.6708,-2.5999,-2.5504,-2.5295,-2.5177,-2.4702,-2.4524,-2.4603,-2.4275,-2.4112,0.0,-2.4112,-2.4112,-2.4112,-2.4112,-2.3729,0.0,0.0,0.0,0.0,0.0,-1.8286,-1.8328,-1.7928,-1.764,-1.7414,-1.7631,-1.7496,-1.7317,-1.7595,-1.7668,-1.7709,-1.7957,-1.7999,-1.805,-1.8247,-1.8299,-1.8299,-1.8299,-1.8143,-1.7999,-1.7999,-1.7864,-1.7668,-1.7543,-1.7419,0.0,-1.6115,-1.6027,-1.6017,-1.5967,-1.5251,-1.4526,-1.39,-1.2776,-1.1772,-1.1178,-1.065,-1.0192,-0.9836,-0.9394,0.0,0.0,0.0,-0.8063,-0.8063,-0.7923,0.0,0.0,0.0,0.0,0.0,0.0,0.0,0.0,-0.3384,-0.3523,0.0,0.0,0.0,0.0,0.0,0.0,0.0,0.0,0.0,0.0,0.0,0.0,0.0,0.0,0.0,0.0,-2.2925,-2.4482,-2.4782,-2.4147,-2.3871,-2.4471,-2.5703,-2.6734,-2.7334,-2.8073,-2.8519,-2.8519,-2.915,-2.952,-2.952,0.0,0.0,0.0,0.0,-2.7339,-2.6539,-2.6356,-2.6184,-2.5985,-2.5363,-2.5066,-2.504,-2.4543,-2.4308,-2.4308,-2.4243,-2.4217,-2.4217,-2.4151,-2.3878,-2.3518,-2.2949,-2.1988,-2.0795,-1.9499,-1.8928,-1.8884,-1.8835,0.0,0.0,-1.8549,-1.8326,-1.7874,-1.7864,-1.7885,-1.7968,-1.835,-1.8454,-1.8547,-1.8961,-1.9075,-1.9075,-1.9075,-1.8754,-1.8454,-1.8454,-1.8154,-1.776,-1.7446,-1.7382,-1.7256,-1.6939,-1.6914,-1.6855,-1.6602,-1.5682,-1.4684,-1.3658,-1.2625,-1.1681,-1.0798,0.0,0.0,-0.9839,-0.9726,-0.937,-0.8525,-0.8407,-0.8333,-0.8333,-0.8039,-0.741,-0.6444,-0.6024,-0.5251,-0.4013,-0.3942,-0.3914,-0.3934,-0.376,-0.3817,0.0,0.0,0.0,0.0,0.0,0.0,0.0,0.0,0.0,0.0,0.0,0.0,0.0,0.0,0.0,-2.3348,-2.4425,-2.5318,-2.5947,-2.5916,-2.5841,-2.5964,-2.6703,-2.7257,-2.738,-2.8504,-2.9227,-2.9227,-2.9843,-3.0228,-3.0228,-3.0179,0.0,-2.8623,-2.8453,-2.7822,-2.658,-2.6369,-2.6233,-2.606,0.0,0.0,-2.5654,-2.555,-2.5497,-2.5471,-2.5001,-2.4805,-2.4766,-2.4308,-2.3878,-2.3497,-2.2614,-2.1813,-2.1163,-2.0926,-2.0488,-2.0158,-2.018,-1.9773,-1.9201,-1.9236,-1.9182,-1.907,-1.8887,-1.8806,0.0,-1.8909,-1.894,-1.8961,-1.911,-1.9075,-1.9075,-1.9075,-1.9003,-1.894,-1.894,-1.8746,-1.8553,-1.8487,-1.8354,-1.8155,-1.8022,-1.7317,-1.6529,-1.5936,-1.5147,-1.4374,-1.3383,-1.255,-1.1769,-1.1197,-1.1039,-1.0788,-1.0438,-0.9959,-0.9602,-0.9427,-0.8906,-0.8603,-0.8603,-0.8545,-0.7891,-0.6584,-0.6327,-0.5551,-0.4148,-0.3986,-0.4028,-0.4202,-0.41,-0.4242,0.0,0.0,0.0,0.0,0.0,0.0,0.0,0.0,0.0,0.0,0.0,-1.9148,0.0,0.0,-2.3463,-2.4698,-2.5731,-2.6472,-2.6872,-2.7226,-2.7272,-2.6934,-2.7196,-2.7657,-2.835,-2.9027,-2.955,-2.9904,-3.0535,-3.0905,-3.0905,-3.0945,-3.0674,-3.0098,-2.9377,-2.8679,-2.7989,-2.744,-2.7123,-2.6918,-2.6437,-2.6242,-2.6242,-2.5955,-2.5824,-2.5811,-2.5524,-2.5393,-2.5354,-2.4585,-2.4004,-2.3497,-2.2871,-2.2456,-2.2151,-2.1838,-2.156,-2.1284,-2.0961,-2.0415,-1.9856,-1.9786,-1.9544,-1.921,-1.9135,-1.9075,-1.9075,-1.9075,-1.9075,-1.9075,-1.9075,-1.9075,-1.9075,-1.9075,-1.9075,-1.9075,-1.9075,-1.8942,-1.8741,-1.8684,-1.8539,-1.8347,-1.8212,-1.7723,-1.7091,-1.6333,-1.5495,-1.4572,-1.3559,-1.2606,-1.1852,-1.1431,-1.1149,-1.0935,-1.0659,-1.0,-0.9505,-0.9389,-0.895,-0.8681,-0.8681,-0.8681,-0.8139,-0.7007,-0.6619,-0.5813,-0.465,-0.4338,-0.4334,-0.4523,-0.466,-0.4742,0.0,0.0,0.0,0.0,0.0,0.0,0.0,0.0,-1.7154,-1.8574,-1.9768,-2.1061,-2.2615,-2.4006,-2.513,-2.5787,-2.6871,-2.7627,-2.7659,-2.8105,-2.8244,-2.7657,-2.7703,-2.8211,-2.9319,-2.9658,-3.0027,-3.0566,-3.1213,-3.1582,-3.1582,-3.1647,-3.1595,-3.148,-3.0315,-2.958,-2.9359,-2.8573,-2.8066,-2.7855,-2.7249,-2.6909,-2.6831,-2.636,-2.6151,-2.6151,-2.5929,-2.5759,-2.5615,-2.4783,-2.4099,-2.3569,-2.3318,-2.3138,-2.3005,-2.2494,-2.2237,-2.2039,-2.1491,-2.0869,-2.0291,-2.0161,-1.9715,-1.9264,-1.9131,-1.9075,-1.9075,-1.9075,-1.9075,-1.9075,-1.9075,-1.9075,-1.9075,-1.9075,-1.9075,-1.9075,-1.9065,-1.8875,-1.8674,-1.8482,-1.8337,-1.8202,-1.8008,-1.7862,-1.751,-1.6793,-1.5903,-1.4957,-1.3645,-1.2723,-1.1992,-1.1585,-1.1256,-1.0963,-1.0587,-0.9901,-0.9395,-0.921,-0.895,-0.8837,-0.8837,-0.8758,-0.8298,-0.7446,-0.6827,-0.6028,-0.513,-0.4754,-0.4658,-0.4897,-0.5144,-0.5337,-0.8513,-1.0189,-1.2092,-1.342,-1.4205,-1.5229,0.0,0.0,-1.8498,-1.988,-2.1812,-2.332,-2.3546,-2.5483,-2.7072,-2.7149,-2.7937,-2.8417,-2.8336,-2.8446,-2.851,-2.8304,-2.8827,-2.9258,-2.9396,-3.0474,-3.1197,-3.1274,-3.1905,-3.2275,-3.2275,-3.2296,-3.2048,-3.1537,-3.0763,-3.0086,-2.9504,-2.8661,-2.8183,-2.8079,-2.7789,-2.7564,-2.7432,-2.7366,-2.734,-2.7275,-2.6269,-2.5537,-2.5014,-2.438,-2.3929,-2.3628,-2.3569,-2.3378,-2.3078,-2.3005,-2.2616,-2.2113,-2.1978,-2.1553,-2.0869,-2.0291,-2.0042,-1.9911,-1.9264,-1.9075,-1.9075,-1.9075,-1.9075,-1.9075,-1.9075,-1.9075,-1.9075,-1.9075,-1.9075,-1.9065,-1.8875,-1.8674,-1.8482,-1.8337,-1.8144,-1.8008,-1.8008,-1.7442,-1.6724,-1.5948,-1.5703,-1.5051,-1.3426,-1.2961,-1.2618,-1.2134,-1.1695,-1.1035,-1.0136,-0.997,-0.9812,-0.95,-0.9412,-0.9394,-0.9394,-0.8952,-0.8389,-0.765,-0.6753,-0.5934,-0.5157,-0.5051,-0.498,-0.5084,-0.5544,-0.5703,-0.995,-1.1652,-1.3231,0.0,-1.5405,-1.6496,-1.8424,-1.9015,-1.9684,-2.1362,-2.2951,-2.4295,-2.5146,-2.6488,-2.7659,0.0,-2.8728,-2.9038,-2.8698,-2.8881,-2.894,-2.8539,-2.9046,-2.9566,-2.9966,-3.0505,-3.1151,-3.1905,-3.2228,-3.2398,-3.2398,-3.2398,-3.2104,-3.1537,-3.0822,-3.0208,-2.9504,-2.861,-2.8131,-2.8079,-2.7802,-2.759,-2.7523,-2.7523,-2.7523,-2.7497,-2.7027,-2.6491,-2.5942,-2.5532,-2.4841,-2.4102,-2.3885,-2.3548,-2.3078,-2.3078,-2.2944,-2.2689,-2.2689,-2.2249,-2.1553,-2.0933,-2.042,-1.9977,-1.933,-1.9075,-1.9075,-1.9075,-1.9075,-1.9075,-1.9075,-1.9075,-1.9075,-1.9075,-1.9008,-1.8875,-1.8808,-1.8607,-1.8347,-1.8337,-1.8144,-1.8008,-1.8008,-1.7364,-1.6655,-1.5816,-1.5313,-1.4537,-1.3185,-1.2973,-1.2708,-1.2118,-1.1673,-1.1121,-1.0327,-1.0078,-0.9862,-0.9548,-0.9628,-0.9712,-0.9712,-0.9203,-0.8705,-0.8225,-0.6974,-0.6086,-0.5512,-0.5234,-0.5152,-0.5358,-0.5661,-0.5973,-1.1045,-1.2648,0.0,-1.5139,-1.622,-1.7395,-1.9016,-1.9597,-2.0411,-2.2453,-2.366,-2.4671,-2.5916,-2.6932,-2.7876,-2.8732,-2.9169,-2.9387,-2.9234,-2.9228,-2.9049,-2.8602,-2.8876,-2.9473,-3.0335,-3.0582,-3.1166,-3.2305,-3.2398,-3.2398,-3.2398,-3.2398,-3.2216,-3.1766,-3.1116,-3.045,-2.9766,-2.8867,-2.8327,-2.8079,-2.7736,-2.7523,-2.7523,-2.7523,-2.7523,-2.7523,-2.7353,-2.7053,-2.6661,-2.6194,-2.5512,-2.4692,-2.4393,-2.3966,-2.3516,-2.3427,-2.3215,-2.3078,-2.2884,-2.2494,-2.199,-2.1313,-2.0677,-2.0031,-1.9518,-1.9264,-1.9075,-1.9075,-1.9075,-1.9075,-1.9075,-1.9075,-1.9075,-1.9008,-1.8942,-1.8741,-1.8674,-1.8472,-1.8269,-1.8212,-1.8076,-1.8008,-1.8008,-1.7226,-1.6376,-1.5816,-1.4824,-1.3897,-1.3039,-1.282,-1.2483,-1.1975,-1.1607,-1.1224,-1.0674,-1.0331,-1.0021,-0.9759,-0.9874,-0.9976,-0.9976,-0.9308,-0.8796,-0.8522,-0.6917,-0.5998,-0.5852,-0.5435,-0.5333,-0.5642,-0.5935,-0.6212,-1.1296,0.0,-1.3982,-1.5057,-1.6124,-1.7414,-1.9435,-1.9838,-2.0486,-2.289,-2.3879,-2.4575,-2.5369,-2.6652,-2.7998,-2.9281,-2.9136,-2.9265,-3.0242,-2.9486,-2.8731,-2.846,-2.8427,-2.8965,0.0,-3.0982,-3.1643,-3.2336,-3.2398,-3.2398,-3.2398,-3.2398,-3.2398,-3.2382,-3.1766,-3.1131,-3.0464,-2.967,-2.8881,-2.8079,-2.7855,-2.7723,-2.7523,-2.7523,-2.7523,-2.7497,-2.6935,-2.6687,-2.6634,-2.5869,-2.5421,-2.5281,-2.5039,-2.4911,-2.4707,-2.4167,-2.3615,-2.3017,-2.2359,-2.2113,-2.199,-2.1313,-2.0677,-2.0096,-2.0107,-1.9649,-1.9075,-1.9075,-1.9075,-1.9075,-1.9075,-1.9075,-1.9065,-1.8875,-1.8808,-1.8741,-1.8405,-1.8337,-1.8269,-1.8076,-1.8008,-1.8008,-1.8008,-1.6733,-1.5745,-1.5675,-1.433,-1.3193,-1.29,-1.2526,-1.2191,-1.1904,-1.1721,-1.1384,-1.0962,-1.0723,-1.051,-1.0303,-1.0315,-1.0315,-1.0315,-0.9052,-0.829,-0.829,-0.6536,-0.5699,-0.5925,-0.5702,-0.5705,-0.5857,-0.6317,-0.6468,-1.2272,0.0,-1.4558,-1.6153,-1.6918,-1.7799,-1.965,-2.0494,-2.1207,-2.24,-2.3605,-2.4601,-2.5145,-2.6487,-2.8089,-2.9756,-3.0451,-3.0926,-3.1418,-3.1082,-3.0585,-3.0068,-2.9921,0.0,0.0,0.0,0.0,-3.2321,-3.2398,-3.2398,-3.2398,-3.2398,-3.2216,-3.1823,-3.1595,-3.0984,-2.9827,-2.9484,-2.8881,-2.8079,-2.7736,-2.759,-2.7523,-2.7523,-2.7523,-2.7523,-2.7327,-2.717,-2.7103,-2.6644,-2.6217,-2.5663,-2.5466,-2.496,-2.4293,-2.4481,-2.4192,-2.3591,-2.2947,-2.2997,-2.3182,-2.2109,-2.1851,-2.1753,-2.052,-1.9977,-1.9649,-1.9198,-1.9075,-1.9075,-1.9075,-1.9008,-1.8875,-1.8808,-1.8607,-1.8405,-1.8337,-1.8212,-1.8076,-1.8008,-1.8008,-1.8008,-1.8008,-1.6733,-1.5251,-1.4042,-1.3324,-1.29,-1.2753,-1.2452,-1.2265,-1.2171,-1.184,-1.1475,-1.1166,-1.0849,-1.0534,-1.0333,-1.049,-1.0592,-1.0592,-0.9295,-0.859,-0.859,-0.6758,-0.5864,-0.5864,-0.5959,-0.6007,-0.6089,-0.6475,-0.6678,-1.2975,-1.4082,-1.5133,-1.6793,-1.7434,-1.8098,-1.9713,-2.0357,-2.0935,-2.214,-2.3009,-2.3755,-2.4447,-2.5637,-2.732,-2.9829,-3.056,-3.1303,-3.2652,-3.2401,-3.1883,-3.1437,-3.1061,-3.1107,0.0,0.0,0.0,-3.2321,-3.2398,-3.2398,-3.2398,-3.2398,-3.2216,-3.1823,-3.1823,-3.1276,-3.0254,-2.978,-2.898,-2.7868,-2.7603,-2.7523,-2.7523,-2.7523,-2.7523,-2.7523,-2.7523,-2.7403,-2.7268,-2.7079,-2.6659,-2.6181,-2.5967,-2.5485,-2.4895,-2.5046,-2.487,-2.4494,-2.3929,-2.3979,-2.4129,-2.3108,-2.2907,-2.2707,-2.1261,-2.0473,-2.0031,-1.9584,-1.9264,-1.9065,-1.9008,-1.8875,-1.8741,-1.8674,-1.8472,-1.8269,-1.8202,-1.8076,-1.8008,-1.8008,-1.8008,-1.8008,-1.8008,-1.6664,-1.5029,-1.3185,-1.2826,-1.2746,-1.2526,-1.2378,-1.2305,-1.2305,-1.1913,-1.1584,-1.1446,-1.1066,-1.0753,-1.0604,-1.0767,-1.0858,-1.0858,-0.9456,-0.8699,-0.8618,-0.6784,-0.5889,-0.6018,-0.6032,-0.6183,-0.64,-0.6629,-0.6834,-1.3411,-1.4657,-1.5765,-1.6918,-1.7652,-1.842,-1.962,-1.9628,-1.9968,-2.1976,-2.2142,-2.2271,0.0,0.0,-2.5903,-2.9482,-2.9716,-3.0608,-3.3852,-3.3334,-3.2578,0.0,0.0,0.0,0.0,0.0,0.0,-3.2398,0.0,-3.2398,-3.2398,-3.2398,-3.2398,-3.2398,-3.2398,-3.2104,-3.148,-3.0435,-2.9142,-2.759,-2.7523,-2.7523,-2.7523,-2.7523,-2.7523,-2.7523,-2.7523,-2.7403,-2.7268,-2.7079,-2.6875,-2.6658,-2.6521,-2.6508,-2.642,-2.5837,-2.5624,-2.5523,-2.5059,-2.4883,-2.477,-2.4217,-2.3652,-2.3035,-2.2354,-2.1308,-2.0303,-2.0172,-1.9703,-1.9106,-1.8916,-1.8828,-1.8674,-1.8405,-1.8269,-1.8212,-1.8008,-1.8008,-1.8018,-1.8037,-1.8057,-1.8008,-1.793,-1.656,-1.4919,-1.3207,-1.2686,-1.2526,-1.2298,-1.2305,-1.2305,-1.2305,-1.1929,-1.1706,-1.1706,-1.1335,-1.1111,-1.1111,-1.1111,-1.1111,-1.1111,-0.9528,-0.8618,-0.838,-0.656,-0.5789,-0.6241,-0.6009,-0.6163,-0.6715,-0.6868,-0.6939,-1.4,-1.521,-1.6448,-1.7435,-1.8505,-1.9409,-1.961,-2.084,-2.1735,-2.1186,-2.1756,-2.2541,0.0,0.0,0.0,-2.9196,-3.0658,0.0,-3.4107,-3.428,0.0,-3.4032,0.0,-3.3425,-3.4026,-3.3497,0.0,0.0,-3.2746,-3.2398,-3.2398,-3.2398,-3.2398,-3.2398,-3.2398,-3.2104,-3.148,-2.9997,-2.9066,-2.8634,-2.7829,-2.7523,-2.7523,-2.7523,-2.7523,-2.7523,-2.7523,-2.7335,-2.7079,-2.7024,-2.6807,-2.6521,-2.6533,-2.6269,-2.585,-2.6138,-2.5963,-2.5636,-2.5937,-2.5762,-2.531,-2.4782,-2.4741,-2.4731,-2.3668,-2.3108,-2.2647,-2.1507,-2.0769,-2.0162,-1.9514,-1.8859,-1.8405,-1.8337,-1.8212,-1.8076,-1.8008,-1.8008,-1.8105,-1.8418,-1.874,-1.8514,-1.7084,-1.6255,-1.5121,-1.3222,-1.2668,-1.2378,-1.2305,-1.2305,-1.2305,-1.2305,-1.1929,-1.1706,-1.1706,-1.1335,-1.1111,-1.1111,-1.1111,-1.1111,-1.1111,-0.9528,-0.8618,-0.838,-0.6823,-0.6042,-0.6241,-0.6367,-0.6574,-0.6875,-0.7017,-0.7085,-1.4667,-1.5874,-1.6909,-1.776,-1.875,-1.9607,-1.9873,-2.093,-2.1695,-2.1102,-2.1663,0.0,-2.2765,-2.3977,0.0,0.0,0.0,0.0,-3.4448,-3.5186,-3.5419,0.0,-3.483,0.0,-3.4637,-3.4064,-3.3505,0.0,-3.3002,-3.2705,-3.2413,-3.2398,-3.2398,-3.2398,-3.2398,-3.2104,-3.1392,-3.0119,-2.9254,-2.8889,-2.796,-2.7523,-2.7523,-2.7523,-2.7523,-2.7523,0.0,-2.7335,-2.7024,-2.7024,-2.6807,-2.6533,-2.6533,-2.6264,-2.6013,-2.6408,-2.6319,-2.6013,-2.6352,-2.6251,-2.5887,-2.5335,-2.536,-2.5432,-2.4501,-2.3989,-2.3435,-2.2207,-2.1399,-2.0599,-1.9522,-1.8874,-1.8547,-1.8419,-1.835,-1.8281,-1.8281,-1.8437,-1.8643,-1.8877,-1.9121,-1.8829,-1.7301,-1.6377,-1.5331,-1.3795,-1.2865,-1.2305,-1.2305,-1.2305,-1.2305,-1.215,-1.1855,-1.1632,-1.1558,-1.126,-1.1111,-1.1111,-1.1111,-1.1111,-1.1111,-0.9528,-0.8618,-0.838,-0.6781,-0.6102,-0.6247,-0.6385,-0.6612,-0.7024,-0.7102,-0.7139,-1.5425,-1.6471,-1.7312,-1.8104,-1.8808,-1.9531,-2.0204,-2.0642,-2.0989,-2.1401,0.0,-2.2158,-2.247,-2.3333,-2.493,-2.7797,0.0,-3.1702,-3.4651,-3.5721,-3.618,-3.6284,-3.5793,-3.527,-3.4916,-3.4183,-3.355,-3.2975,-3.3243,-3.3121,-3.2428,-3.2398,-3.2398,-3.2398,-3.2398,-3.2074,-3.1362,-3.054,-2.9766,-2.898,-2.8039,-2.759,-2.7523,-2.7523,-2.7523,-2.7523,0.0,0.0,-2.7024,-2.6943,-2.6807,-2.6533,-2.6533,-2.6533,-2.6533,-2.6533,-2.6533,-2.6533,-2.6533,-2.6533,-2.6445,-2.5875,-2.5711,-2.5624,-2.5172,-2.4484,-2.3716,-2.2868,-2.2007,-2.1047,-1.9596,-1.9173,-1.9063,-1.8791,-1.8721,-1.8721,-1.8721,-1.9062,-1.9365,-1.9375,-1.9414,-1.9056,-1.8006,-1.6759,-1.5618,-1.4494,-1.3237,-1.2445,-1.2298,-1.2305,-1.2231,-1.2003,-1.1855,-1.1632,-1.1409,-1.1186,-1.1111,-1.1111,-1.1111,-1.1111,-1.1111,-0.9685,-0.8708,-0.8421,-0.681,-0.6163,-0.6389,-0.637,-0.6583,-0.7139,-0.7139,-0.7139,-1.6139,-1.7021,-1.7895,-1.8626,-1.942,-2.0049,-2.0192,-2.129,0.0,0.0,-2.2044,-2.247,-2.2632,-2.3342,-2.4739,-2.7243,-2.896,-3.0994,0.0,0.0,-3.5659,0.0,0.0,0.0,0.0,0.0,0.0,0.0,0.0,-3.3305,-3.2428,-3.2398,-3.2398,-3.2398,-3.2398,-3.2327,-3.2201,-3.1261,-3.0495,-2.9766,-2.8789,-2.8039,-2.7523,-2.7523,-2.7523,-2.7456,-2.7403,0.0,-2.7024,-2.6794,-2.6658,-2.6533,-2.6533,-2.6533,-2.6533,-2.6533,-2.6533,-2.6533,-2.6533,-2.6533,-2.6508,-2.6408,-2.6314,-2.6302,-2.6201,-2.5971,-2.5558,-2.4743,-2.3933,-2.2945,-2.1362,-2.0565,-2.0083,-1.9315,-1.918,-1.918,-1.918,-1.9502,-1.973,-1.9589,-1.9879,-1.961,-1.8009,-1.7325,-1.6363,-1.4276,-1.3593,-1.3025,-1.2372,-1.2305,-1.2231,-1.2003,-1.1855,-1.1632,-1.1409,-1.1186,-1.1111,-1.1111,-1.1111,-1.1111,-1.1111,-1.0212,-0.9316,-0.8553,-0.7539,-0.6805,-0.6541,-0.6418,-0.6675,-0.7139,-0.7139,-0.7139,-1.6587,-1.7407,-1.8173,-1.8983,-1.9598,-2.0171,-2.066,0.0,0.0,0.0,-2.2315,-2.2605,-2.2685,-2.3423,0.0,-2.6069,-2.7648,-2.9689,-3.2696,-3.3755,0.0,0.0,0.0,0.0,0.0,0.0,0.0,0.0,0.0,-3.3325,-3.2539,-3.2453,-3.2398,-3.2398,-3.2398,-3.2342,-3.2302,-3.145,-3.0793,-3.0389,-2.9093,-2.8352,-2.8039,-2.7656,-2.7523,-2.7456,-2.7335,0.0,-2.6943,-2.6794,-2.6589,-2.6533,-2.6533,-2.6533,-2.6533,-2.6533,-2.6533,-2.6414,-2.6058,-2.5945,-2.584,-2.5498,-2.5784,-2.6339,-2.6339,-2.6119,-2.5688,-2.4933,-2.4031,-2.3061,-2.1638,-2.0698,-2.0116,-1.9683,-1.9609,-1.9678,-1.9902,-1.9932,-1.9905,-1.9985,-2.013,-1.9887,-1.8597,-1.7421,-1.6271,-1.5056,-1.3848,-1.2974,-1.2607,-1.247,-1.226,-1.1874,-1.1781,-1.1558,-1.126,-1.1186,-1.1111,-1.1111,-1.1111,-1.1111,-1.1111,-1.0293,-0.9566,-0.876,-0.7906,-0.7177,-0.6754,-0.6543,-0.6609,-0.7139,-0.6966,-0.6966,-1.6964,-1.7733,-1.838,-1.9207,-1.9594,-2.0074,-2.1055,-2.1495,0.0,-2.2265,-2.2579,-2.2756,-2.2747,-2.3492,-2.4365,0.0,-2.6549,-2.8548,-3.155,-3.2719,-3.4059,0.0,0.0,0.0,0.0,0.0,0.0,0.0,0.0,0.0,-3.2578,-3.2453,-3.2398,-3.2398,-3.2398,-3.2342,-3.2247,-3.158,-3.1116,-3.0822,-2.9406,-2.8716,-2.8725,-2.7906,-2.7604,-2.7656,-2.7335,0.0,0.0,-2.6726,-2.6589,-2.6533,-2.6533,-2.6533,-2.6533,-2.6533,-2.6445,-2.6226,-2.5765,-2.5436,-2.5132,-2.469,-2.5185,-2.5958,-2.5958,-2.5812,-2.5453,-2.4636,-2.3829,-2.2933,-2.1607,-2.0781,-2.0266,-2.0049,-2.0059,-2.008,-2.0498,-2.0216,-1.9927,-2.0119,-2.011,-1.9754,-1.8947,-1.7374,-1.6062,-1.5631,-1.4106,-1.2974,-1.2752,-1.2612,-1.2272,-1.1664,-1.1632,-1.1484,-1.1111,-1.1111,-1.1111,-1.1111,-1.1111,-1.1111,-1.1111,-1.057,-0.9869,-0.8979,-0.829,-0.7647,-0.6973,-0.6558,-0.6609,-0.7054,-0.6792,-0.6789,-1.7352,-1.7948,-1.8616,-1.9258,-1.9479,-1.9859,-2.1039,0.0,-2.1735,-2.2443,-2.279,-2.2982,-2.2977,-2.3383,-2.4177,-2.5533,0.0,-2.8165,-3.1062,-3.2683,-3.409,-3.5471,0.0,0.0,0.0,0.0,0.0,0.0,0.0,0.0,-3.2453,-3.2398,-3.2398,-3.2398,-3.2398,-3.2398,-3.2398,-3.2079,-3.161,-3.097,-2.9914,-2.9408,-2.9366,-2.8165,-2.784,-2.8157,-2.7403,0.0,0.0,-2.6602,-2.6533,-2.6533,-2.6533,-2.6533,-2.6533,-2.6533,-2.6126,-2.5737,-2.6214,-2.567,-2.4723,-2.5132,-2.5277,-2.5173,-2.5173,-2.5367,-2.5453,-2.4636,-2.4192,-2.3661,-2.2146,-2.1704,-2.1476,-2.073,-2.043,-2.0294,-2.0333,-2.007,-1.9816,-1.9715,-1.9406,-1.8937,-1.8322,-1.7146,-1.6068,-1.5255,-1.4403,-1.3492,-1.2619,-1.2542,-1.2196,-1.1515,-1.1409,-1.1335,-1.1111,-1.1111,-1.1111,-1.1111,-1.1111,-1.1111,-1.1111,-1.1276,-1.0662,-0.9117,-0.9072,-0.8422,-0.7122,-0.6602,-0.6523,-0.6792,-0.6523,-0.6612,-1.7053,-1.7774,-1.8433,-1.9207,-1.9681,-2.0265,-2.1318,0.0,-2.2147,-2.2933,-2.3159,-2.33,-2.345,-2.3671,-2.4,-2.457,-2.4883,-2.5961,-2.8523,-2.9692,-3.1158,0.0,0.0,0.0,0.0,0.0,0.0,0.0,0.0,0.0,-3.1356,-3.2021,-3.2398,-3.2398,-3.2398,-3.2342,-3.2302,-3.2191,-3.1697,-3.0881,-3.0044,-2.9638,-2.9454,-2.8181,-2.7863,-2.8222,-2.7403,0.0,0.0,-2.6589,-2.6319,-2.5975,-2.6395,-2.605,-2.5511,-2.5824,-2.5598,-2.5043,-2.4813,-2.4372,-2.386,-2.3545,-2.3884,-2.4414,-2.4786,-2.518,-2.5382,-2.5016,-2.4204,-2.3316,-2.266,-2.1832,-2.0944,-2.0489,-2.0342,-2.0264,-2.0098,-1.9942,-1.9863,-1.9636,-1.9506,-1.9102,-1.8238,-1.7104,-1.6073,-1.5475,-1.4154,-1.3175,-1.2798,-1.2421,-1.1967,-1.144,-1.1409,-1.1335,-1.1111,-1.1111,-1.1111,-1.1111,-1.1111,-1.1111,-1.1111,-1.122,-1.0781,-0.9756,-0.9327,-0.8703,-0.7696,-0.7011,-0.6704,-0.6795,-0.652,-0.6432,-1.707,-1.7894,-1.8574,-1.9434,-2.0131,-2.0799,-2.174,-2.2238,-2.2669,-2.3356,-2.3595,-2.3702,-2.3842,-2.4023,-2.4137,-2.41,-2.4205,-2.5014,-2.7061,-2.8072,-2.9476,0.0,0.0,0.0,0.0,0.0,0.0,0.0,0.0,0.0,0.0,-3.1449,-3.1944,-3.209,-3.209,-3.2143,-3.2247,-3.2191,-3.1703,-3.087,-3.0104,-2.9662,-2.9477,-2.8215,-2.7852,-2.8147,0.0,0.0,0.0,-2.6269,-2.5875,-2.541,-2.5812,-2.5498,-2.487,-2.5169,-2.4968,-2.4416,-2.3936,-2.3513,-2.3081,-2.2611,-2.2995,-2.367,-2.4099,-2.4719,-2.5229,-2.5004,-2.3829,-2.266,-2.266,-2.1614,-2.0566,-2.0342,-2.0264,-2.0108,-1.9863,-1.9784,-1.9706,-1.9557,-1.9284,-1.8942,-1.8219,-1.6767,-1.5589,-1.5363,-1.3825,-1.2687,-1.2608,-1.2201,-1.1738,-1.1366,-1.1335,-1.126,-1.1111,-1.1111,-1.1111,-1.1111,-1.1111,-1.1037,-1.0962,-1.1039,-1.0659,-0.9879,-0.9461,-0.8923,-0.8275,-0.7355,-0.6881,-0.6881,-0.6435,-0.6257,-1.7758,-1.8447,-1.9103,-2.0074,-2.0735,-2.1437,-2.2365,-2.2856,-2.3213,-2.3705,-2.4062,-2.4228,-2.4026,-2.4416,-2.4727,-2.4532,-2.5159,-2.6154,-2.7506,-2.8834,0.0,0.0,0.0,0.0,0.0,0.0,0.0,0.0,0.0,0.0,0.0,-3.067,-3.0876,-3.1366,-3.1397,-3.172,-3.2382,-3.215,-3.1663,-3.0995,-3.0057,-2.9594,-2.9564,-2.8217,-2.774,0.0,0.0,0.0,0.0,-2.5598,-2.5297,-2.4833,-2.4845,-2.4833,-2.4755,-2.4651,-2.4226,-2.3753,-2.4168,-2.346,-2.2517,-2.304,-2.3095,-2.2991,-2.3003,-2.4073,-2.5158,-2.4337,-2.301,-2.1832,-2.1832,-2.1242,-2.0566,-2.0342,-2.0108,-1.9863,-1.9645,-1.9469,-1.9301,-1.9301,-1.8669,-1.8137,-1.8128,-1.6032,-1.4431,-1.4774,-1.3355,-1.2164,-1.1933,-1.1927,-1.1738,-1.1141,-1.1111,-1.1111,-1.1111,-1.1111,-1.1111,-1.1111,-1.1111,-1.0887,-1.0513,-1.0753,-1.0369,-0.9227,-0.9433,-0.9298,-0.8632,-0.758,-0.7139,-0.7051,-0.6174,-0.5819,-1.698,-1.8372,-1.9697,-2.0391,-2.1294,-2.2229,-2.3097,-2.3433,-2.3739,-2.4349,-2.4452,-2.4465,-2.4595,-2.4752,-2.505,-2.5574,-2.58,-2.6249,0.0,0.0,0.0,0.0,0.0,0.0,0.0,0.0,0.0,0.0,0.0,0.0,0.0,-2.9499,-2.9902,-3.1336,-3.1382,-3.1705,-3.2382,-3.1787,-3.1058,-3.0335,-2.9471,-2.9012,-2.8906,-2.7998,0.0,0.0,0.0,0.0,0.0,-2.5059,-2.4745,-2.4293,-2.4553,-2.4178,-2.3542,-2.3739,-2.3466,-2.3022,-2.2995,-2.2774,-2.2383,-2.2503,-2.2742,-2.2979,-2.2979,-2.3821,-2.4692,-2.4244,-2.3548,-2.283,-2.1842,-2.1165,-2.0644,-1.9951,-1.9803,-1.9636,-1.9469,-1.9301,-1.9301,-1.9301,-1.888,-1.8355,-1.7773,-1.6521,-1.5343,-1.4478,-1.3341,-1.2369,-1.1927,-1.16,-1.1289,-1.1123,-1.1111,-1.1111,-1.1111,-1.1111,-1.1111,-1.1111,-1.0812,-1.0663,-1.0519,-1.0445,-1.022,-0.9894,-0.9615,-0.9413,-0.9226,-0.8487,-0.7757,-0.7051,-0.6697,-0.6257,-1.7731,-1.8812,-1.9888,-2.1391,-2.2384,-2.3166,-2.3823,-2.4133,-2.4425,-2.4836,-2.4836,-2.4818,-2.4981,-2.5019,-2.519,-2.5723,-2.5734,-2.6,0.0,0.0,0.0,0.0,0.0,0.0,0.0,0.0,0.0,0.0,0.0,0.0,0.0,-2.9029,-2.9286,-3.0685,-3.068,-3.0966,-3.1643,-3.1083,-3.0426,-2.965,-2.9085,-2.8598,-2.8218,-2.7718,0.0,0.0,0.0,0.0,0.0,-2.457,-2.418,-2.3703,-2.3929,-2.358,-2.2934,-2.2899,-2.2727,-2.2519,-2.214,-2.214,-2.2309,-2.2247,-2.2414,-2.2727,-2.2919,-2.3701,-2.4489,-2.4566,-2.3913,-2.3043,-2.2124,-2.1231,-2.0401,-1.9715,-1.9566,-1.952,-1.9118,-1.9191,-1.9219,-1.8916,-1.8497,-1.8037,-1.7409,-1.6245,-1.5115,-1.4082,-1.3091,-1.2194,-1.1682,-1.1295,-1.1111,-1.1111,-1.0962,-1.0887,-1.0887,-1.0887,-1.0887,-1.0887,-1.0513,-1.0218,-1.0067,-0.9983,-0.9911,-0.9841,-0.963,-0.9597,-0.9672,-0.9013,-0.8281,-0.7401,-0.7217,-0.6782,0.0,-1.9734,-1.99,-2.2671,-2.3633,-2.403,-2.4463,-2.4797,0.0,-2.5107,-2.5168,-2.5198,-2.5209,-2.5201,-2.5231,-2.5269,-2.5283,0.0,0.0,0.0,0.0,0.0,0.0,0.0,0.0,0.0,0.0,0.0,0.0,0.0,0.0,-2.9167,-2.9075,-2.9503,-2.9435,-2.9689,-3.0412,-3.021,-2.977,-2.9006,-2.8792,-2.8327,-2.7575,-2.7437,0.0,0.0,0.0,0.0,0.0,-2.4226,-2.3676,-2.3078,-2.3078,-2.3017,-2.2798,-2.2172,-2.2103,-2.2237,-2.1632,-2.1728,-2.2149,-2.2173,-2.2185,-2.2294,-2.2823,-2.361,-2.451,-2.5025,-2.394,-2.2553,-2.2478,-2.1191,-1.9816,-1.959,-1.9502,-1.9372,-1.8751,-1.8962,-1.8921,-1.819,-1.7701,-1.7252,-1.6899,-1.5435,-1.4194,-1.3535,-1.2659,-1.1855,-1.1186,-1.1111,-1.1037,-1.1037,-1.0663,-1.0438,-1.0438,-1.0438,-1.0438,-1.0438,-1.0067,-0.9695,-0.9322,-0.9466,-0.9523,-0.9318,-0.9549,-0.9762,-1.0038,-0.9331,-0.8623,-0.7921,-0.7921,-0.7482,-1.9711,0.0,-2.1034,-2.173,-2.2418,-2.3145,0.0,-2.4203,-2.4456,-2.5168,-2.5313,-2.5293,-2.5332,-2.5303,-2.5475,-2.6077,-2.6738,-2.7421,0.0,0.0,0.0,0.0,0.0,0.0,0.0,0.0,0.0,0.0,0.0,0.0,0.0,-2.9705,-2.9277,-2.8981,-2.8869,-2.9311,-3.0412,-2.9648,-2.921,-2.9006,-2.8258,-2.7775,-2.7575,-2.7437,0.0,0.0,0.0,0.0,-2.4269,-2.4151,-2.3671,-2.3078,-2.2848,-2.28,-2.2726,-2.2299,-2.1886,-2.1632,-2.144,-2.1488,-2.1656,-2.2065,-2.2049,-2.1945,-2.2438,-2.3029,-2.3485,-2.3548,-2.3112,-2.2456,-2.1441,-2.0426,-1.9516,-1.9007,-1.8699,-1.8375,-1.8284,-1.8094,-1.7859,-1.768,-1.7116,-1.6521,-1.6142,-1.5444,-1.4553,-1.3258,-1.282,-1.2305,-1.126,-1.0812,-1.0663,-1.0663,-1.0293,-1.0067,-1.0067,-1.0067,-1.0067,-1.0067,-0.9695,-0.9397,-0.9322,-0.9375,-0.9352,-0.9322,-0.9691,-0.9904,-1.0038,-0.9859,-0.9331,-0.8627,-0.8627,-0.8273,-1.9231,-2.0502,-2.146,-2.2449,-2.3314,-2.4057,-2.4575,-2.4714,-2.4869,-2.5348,0.0,0.0,0.0,0.0,0.0,0.0,-2.6987,0.0,0.0,0.0,0.0,0.0,0.0,0.0,0.0,0.0,0.0,0.0,0.0,0.0,0.0,-3.0038,-2.9454,-2.9106,-2.8763,-2.8896,-2.9489,-2.8935,-2.8586,-2.8536,-2.7956,-2.764,-2.7473,-2.7386,-2.6902,0.0,0.0,0.0,-2.3668,-2.3319,-2.2821,-2.2268,-2.2058,-2.1881,-2.1785,-2.1352,-2.1114,-2.1007,-2.0742,-2.0866,-2.1235,-2.182,-2.1726,-2.1521,-2.1824,-2.2124,-2.2432,-2.2754,-2.2309,-2.1513,-2.0828,-1.9766,-1.8789,-1.827,-1.7956,-1.7757,-1.7365,-1.7305,-1.7156,-1.6797,-1.6435,-1.6001,-1.5607,-1.4977,-1.4114,-1.2806,-1.2372,-1.1781,-1.0663,-1.0368,-1.0218,-1.0218,-0.9846,-0.962,-0.962,-0.9463,-0.9463,-0.962,-0.9241,-0.9013,-0.9013,-0.9185,-0.9412,-0.9606,-0.9838,-1.0038,-1.0038,-1.0038,-0.9777,-0.9419,-0.9419,-0.8978,-1.8935,-2.0102,-2.1705,-2.3384,-2.4463,-2.5154,-2.5262,0.0,0.0,0.0,0.0,0.0,0.0,-2.5604,0.0,0.0,0.0,0.0,0.0,0.0,0.0,0.0,0.0,0.0,0.0,0.0,0.0,0.0,0.0,0.0,0.0,-3.0377,-2.9777,-2.954,-2.8997,-2.8668,-2.8525,-2.8284,-2.8137,-2.802,-2.7855,-2.7595,-2.7238,-2.7136,-2.6615,0.0,0.0,0.0,-2.3239,-2.2591,-2.1966,-2.1338,-2.1168,-2.0998,-2.0767,-2.0292,-2.0254,-2.0418,-1.9893,-2.0189,-2.0852,-2.1369,-2.1342,-2.1094,-2.1094,-2.1144,-2.1386,-2.2105,-2.1396,-2.0379,-2.0237,-1.9136,-1.7944,-1.7471,-1.7344,-1.7072,-1.6465,-1.6507,-1.6533,-1.582,-1.5677,-1.5511,-1.5182,-1.441,-1.3462,-1.2498,-1.1842,-1.1037,-1.0143,-0.9922,-0.9846,-0.9846,-0.9468,-0.9246,-0.9246,-0.8861,-0.8856,-0.917,-0.8856,-0.8718,-0.8751,-0.9119,-0.9507,-0.9899,-0.9937,-1.0038,-1.0038,-1.0038,-1.0038,-1.0038,-1.0038,-0.9685,-2.0575,-2.1815,-2.2522,-2.2168,-2.2749,-2.3554,-2.4238,-2.4442,0.0,0.0,0.0,0.0,0.0,-2.6105,0.0,0.0,0.0,0.0,0.0,0.0,0.0,0.0,0.0,0.0,0.0,0.0,0.0,0.0,0.0,0.0,0.0,-3.1123,-3.0747,-3.0166,-2.9601,-2.9196,-2.9074,-2.8494,-2.8137,-2.802,-2.7855,-2.734,-2.6525,-2.6406,-2.5953,0.0,0.0,-2.4376,-2.3551,-2.3447,-2.2711,-2.1648,-2.1412,-2.1144,-2.0758,-2.0571,-2.0237,-1.9901,-1.9562,-1.9804,-2.0252,-2.0502,-2.0654,-2.07,-2.07,-2.0509,-2.0336,-2.0468,-2.0586,-2.041,-1.9403,-1.8489,-1.7722,-1.7143,-1.6534,-1.6059,-1.5936,-1.5686,-1.5408,-1.5292,-1.5039,-1.4776,-1.4721,-1.4201,-1.3542,-1.2893,-1.2003,-1.1186,-1.0513,-0.9846,-0.9397,-0.9397,-0.9013,-0.878,-0.878,-0.8703,-0.8703,-0.878,-0.8699,-0.8784,-0.8968,-0.92,-0.9441,-0.9686,-0.9861,-1.0038,-1.0038,-1.0038,-1.0038,-1.0038,-1.0038,-0.9951,-2.0585,-2.1841,-2.2774,-2.2424,-2.3361,-2.4446,-2.4818,-2.4956,0.0,0.0,0.0,0.0,0.0,0.0,0.0,0.0,0.0,0.0,0.0,0.0,0.0,0.0,0.0,0.0,0.0,0.0,0.0,0.0,0.0,0.0,0.0,0.0,-2.9753,-2.9147,-2.8898,-2.8595,-2.8217,-2.8229,-2.8137,-2.8005,-2.7429,-2.6837,-2.6293,-2.5791,-2.5179,-2.4422,0.0,-2.3546,-2.2622,-2.241,-2.1805,-2.0949,-2.0564,-2.0254,-1.9885,-1.94,-1.908,-1.8916,-1.9086,-1.916,-1.9252,-1.9647,-1.9661,-1.9647,-1.9849,-1.9821,-1.9694,-1.9933,-1.9769,-1.932,-1.8635,-1.7718,-1.6812,-1.6171,-1.5749,-1.5409,-1.5204,-1.4991,-1.4848,-1.4848,-1.4713,-1.4569,-1.4497,-1.3992,-1.3251,-1.2285,-1.1403,-1.0588,-0.9685,-0.9236,-0.9013,-0.9013,-0.878,-0.8703,-0.8703,-0.8703,-0.8703,-0.8703,-0.8703,-0.8798,-0.9015,-0.9115,-0.9318,-0.9555,-0.9738,-0.9842,-1.0038,-1.0038,-1.0038,-1.0038,-1.0038,-1.0038,-2.0839,-2.1822,-2.2816,-2.2875,0.0,-2.5529,-2.5727,-2.5847,0.0,0.0,0.0,0.0,0.0,0.0,0.0,0.0,0.0,0.0,0.0,0.0,0.0,0.0,0.0,0.0,0.0,0.0,0.0,0.0,0.0,0.0,0.0,0.0,-2.8963,-2.8486,-2.8282,-2.7997,-2.7514,-2.7689,-2.774,-2.7762,-2.6988,-2.6292,-2.5737,-2.514,-2.4425,-2.3673,-2.3425,-2.2762,-2.1841,-2.1479,-2.1006,-2.0372,-1.9862,-1.9344,-1.8869,-1.8302,-1.8084,-1.8141,-1.8475,-1.8498,-1.8473,-1.877,-1.8868,-1.8877,-1.9174,-1.9316,-1.9361,-1.9705,-1.9114,-1.8312,-1.8007,-1.7217,-1.6254,-1.5417,-1.5133,-1.4991,-1.4641,-1.4569,-1.4569,-1.4569,-1.4569,-1.4497,-1.4353,-1.3855,-1.2966,-1.1761,-1.0956,-1.0067,-0.9008,-0.878,-0.8703,-0.8703,-0.8703,-0.8703,-0.8703,-0.8627,-0.8627,-0.8627,-0.8703,-0.8774,-0.8944,-0.8996,-0.9171,-0.9493,-0.9513,-0.9724,-0.988,-0.9927,-1.0038,-1.0038,-1.0038,-1.0038,-2.2466,-2.2747,-2.2816,-2.2879,-2.4154,-2.5615,-2.6436,-2.6702,0.0,-2.7688,0.0,0.0,0.0,0.0,0.0,0.0,0.0,0.0,0.0,0.0,0.0,0.0,0.0,0.0,0.0,0.0,0.0,0.0,0.0,0.0,0.0,0.0,0.0,-2.9489,-2.8465,-2.7898,-2.7858,-2.6854,-2.6581,-2.7096,-2.6763,-2.5863,-2.4425,-2.4227,-2.3708,-2.296,-2.2764,-2.2459,-2.2137,-2.1888,-2.1299,-2.051,-2.0003,-1.9133,-1.8193,-1.8139,-1.8084,-1.8096,-1.7855,-1.8047,-1.836,-1.8021,-1.8473,-1.9145,-1.8956,-1.9211,-1.9562,-1.9594,-1.8895,-1.8072,-1.7803,-1.7404,-1.6697,-1.5471,-1.4919,-1.4641,-1.4641,-1.4569,-1.4569,-1.4425,-1.4425,-1.4353,-1.4129,-1.363,-1.29,-1.2077,-1.1111,-1.0218,-0.9397,-0.8932,-0.8703,-0.8703,-0.8703,-0.8703,-0.8703,-0.8551,-0.8403,-0.8403,-0.8627,-0.8708,-0.8722,-0.8916,-0.9039,-0.9067,-0.945,-0.9569,-0.9667,-0.9861,-1.0038,-1.0038,-1.0038,-1.0038,-2.1069,-2.1985,-2.2871,-2.2844,-2.4141,0.0,0.0,-2.6359,-2.7018,-2.7873,-2.8143,0.0,0.0,0.0,0.0,0.0,0.0,0.0,0.0,0.0,0.0,0.0,0.0,0.0,0.0,0.0,0.0,0.0,0.0,0.0,0.0,0.0,0.0,-2.7876,-2.7732,-2.7356,-2.6776,-2.6553,-2.6181,-2.5621,-2.5407,-2.4875,-2.417,-2.3622,-2.312,-2.2706,-2.2463,-2.2184,-2.1949,-2.1664,-2.1313,-2.0871,-1.985,-1.8963,-1.8278,-1.781,-1.7601,-1.7545,-1.7357,-1.7355,-1.7508,-1.7245,-1.7445,-1.7728,-1.7935,-1.8086,-1.8247,-1.8533,-1.7902,-1.7154,-1.7292,-1.6622,-1.5703,-1.5018,-1.4466,-1.4151,-1.445,-1.4353,-1.4274,-1.4209,-1.4201,-1.4137,-1.3928,-1.3339,-1.2526,-1.1558,-1.0663,-0.9841,-0.9008,-0.8703,-0.8475,-0.8475,-0.8403,-0.8327,-0.8327,-0.8255,-0.8178,-0.8178,-0.8255,-0.8327,-0.8327,-0.8404,-0.8498,-0.862,-0.8896,-0.9099,-0.9217,-0.942,-0.9607,-0.9607,-0.9607,-0.9607,-2.0938,-2.2074,-2.321,-2.2874,0.0,0.0,-2.5725,-2.6466,-2.7379,-2.8279,-2.8526,0.0,0.0,0.0,0.0,0.0,0.0,0.0,0.0,0.0,0.0,0.0,0.0,0.0,0.0,0.0,0.0,0.0,0.0,0.0,0.0,0.0,0.0,0.0,-2.7182,-2.68,-2.5997,-2.5932,-2.5395,-2.4387,-2.4179,-2.3968,-2.3771,-2.3196,-2.2797,-2.2615,-2.2324,-2.2044,-2.1698,-2.1471,-2.1019,-2.0459,-1.9488,-1.8697,-1.7984,-1.7412,-1.7155,-1.7099,-1.6965,-1.6965,-1.6909,-1.6807,-1.6857,-1.6979,-1.7217,-1.7298,-1.7436,-1.7698,-1.7039,-1.6262,-1.6418,-1.5766,-1.4882,-1.4363,-1.4089,-1.3987,-1.4227,-1.4209,-1.4057,-1.3992,-1.3992,-1.3848,-1.3419,-1.29,-1.2077,-1.0807,-1.0132,-0.9458,-0.8627,-0.8403,-0.8327,-0.8327,-0.8178,-0.8102,-0.8102,-0.803,-0.803,-0.803,-0.7949,-0.7949,-0.8102,-0.8102,-0.8163,-0.8291,-0.8488,-0.8651,-0.8778,-0.898,-0.9108,-0.9165,-0.8901,-0.8935,-2.2662,-2.3362,-2.3879,0.0,0.0,0.0,-2.6391,-2.7335,-2.825,-2.9128,0.0,-2.9641,-3.0702,0.0,0.0,0.0,0.0,0.0,0.0,0.0,0.0,0.0,0.0,0.0,0.0,0.0,0.0,0.0,0.0,0.0,0.0,0.0,0.0,0.0,-2.7017,-2.6318,-2.5701,-2.4925,-2.4184,-2.3509,-2.3216,-2.3082,-2.3082,-2.2947,-2.2797,-2.2555,-2.2324,-2.1996,-2.1568,-2.1326,-2.0409,-1.9186,-1.904,-1.8159,-1.7011,-1.7011,-1.6909,-1.6818,-1.6818,-1.6807,-1.6761,-1.6637,-1.6896,-1.7214,-1.6917,-1.7114,-1.7471,-1.7336,-1.6491,-1.551,-1.5295,-1.4964,-1.4514,-1.3785,-1.3828,-1.4122,-1.4129,-1.4129,-1.4065,-1.3863,-1.379,-1.3499,-1.2452,-1.2298,-1.17,-0.9895,-0.9593,-0.9221,-0.825,-0.8102,-0.8102,-0.8102,-0.8102,-0.8102,-0.8102,-0.7876,-0.7804,-0.7804,-0.7642,-0.7714,-0.8102,-0.8102,-0.8102,-0.8102,-0.8286,-0.8383,-0.8383,-0.8585,-0.8778,-0.8954,-0.8009,-0.8193,-2.1512,-2.2299,0.0,-2.3447,0.0,0.0,0.0,-2.7287,0.0,0.0,-3.0215,-3.0328,-3.07,0.0,0.0,0.0,0.0,0.0,0.0,0.0,0.0,0.0,0.0,0.0,0.0,0.0,0.0,0.0,0.0,0.0,0.0,0.0,0.0,0.0,-2.7504,-2.697,-2.6265,-2.5384,-2.4625,-2.3991,-2.3407,-2.2992,-2.2752,-2.2706,-2.2417,-2.1902,-2.1793,-2.1568,-2.118,-2.0871,-2.056,-2.0093,-1.9056,-1.8417,-1.7984,-1.7123,-1.6751,-1.6637,-1.6534,-1.642,-1.6347,-1.6491,-1.6626,-1.6799,-1.7001,-1.6961,-1.682,-1.6759,-1.5877,-1.4842,-1.4276,-1.3978,-1.3799,-1.3662,-1.3582,-1.357,-1.381,-1.3783,-1.3637,-1.3419,-1.3346,-1.3273,-1.282,-1.1768,-1.087,-1.034,-0.916,-0.8184,-0.7746,-0.7676,-0.7647,-0.7702,-0.7714,-0.7714,-0.7714,-0.7642,-0.7565,-0.7565,-0.7561,-0.7561,-0.7638,-0.7714,-0.7714,-0.7714,-0.7898,-0.7995,-0.7995,-0.8093,-0.8205,-0.8259,-0.8139,-0.8312,-2.1997,-2.2886,0.0,-2.4703,-2.5753,-2.6775,-2.7449,0.0,0.0,0.0,0.0,0.0,0.0,0.0,0.0,0.0,0.0,0.0,0.0,0.0,0.0,0.0,0.0,0.0,0.0,0.0,0.0,0.0,0.0,0.0,0.0,0.0,0.0,0.0,-2.7858,-2.7255,-2.637,-2.5607,-2.4784,-2.3791,-2.3348,-2.2737,-2.2137,-2.2417,-2.2184,-2.1616,-2.1388,-2.1144,-2.0835,-2.0636,-2.0372,-2.0067,-1.9174,-1.8697,-1.8321,-1.7335,-1.6842,-1.6684,-1.6316,-1.6144,-1.608,-1.6417,-1.6387,-1.6327,-1.6707,-1.6537,-1.6188,-1.6108,-1.5131,-1.4043,-1.3606,-1.3115,-1.2728,-1.3013,-1.3157,-1.3258,-1.3455,-1.3346,-1.32,-1.3119,-1.302,-1.279,-1.2349,-1.1149,-1.0087,-0.9813,-0.8533,-0.7597,-0.7381,-0.743,-0.7517,-0.7472,-0.7484,-0.7484,-0.7411,-0.7407,-0.733,-0.7249,-0.7249,-0.733,-0.7407,-0.7484,-0.7484,-0.7484,-0.7594,-0.765,-0.765,-0.7752,-0.7837,-0.7914,-0.7608,-0.7776,-2.3348,0.0,0.0,-2.6235,-2.6591,0.0,-2.8736,-2.9203,-2.9554,-3.0421,0.0,0.0,0.0,0.0,0.0,0.0,0.0,0.0,0.0,0.0,0.0,0.0,0.0,0.0,0.0,0.0,0.0,0.0,0.0,0.0,0.0,0.0,0.0,-2.8626,-2.8129,-2.737,-2.6268,-2.577,-2.48,0.0,-2.3143,-2.2526,-2.1506,-2.2044,-2.1996,-2.1471,-2.1023,-2.0712,-2.056,-2.0448,-2.0042,-1.942,-1.9368,-1.8869,-1.8104,-1.7424,-1.6989,-1.6729,-1.6077,-1.5856,-1.5868,-1.6307,-1.6178,-1.5938,-1.6177,-1.6009,-1.5673,-1.5478,-1.4419,-1.3312,-1.3183,-1.2405,-1.1708,-1.1999,-1.2621,-1.3084,-1.2931,-1.2858,-1.2851,-1.2816,-1.2592,-1.2184,-1.1326,-1.0407,-0.9406,-0.8524,-0.7842,-0.7378,-0.7146,-0.735,-0.7464,-0.748,-0.7484,-0.7407,-0.718,-0.718,-0.7103,-0.6942,-0.6865,-0.7019,-0.718,-0.733,-0.7484,-0.7484,-0.7484,-0.7484,-0.7484,-0.7484,-0.7569,-0.7736,-0.6864,-0.7024,-2.2454,-2.3271,0.0,0.0,-2.6518,-2.7871,-2.8871,-2.9632,-3.0213,0.0,0.0,0.0,0.0,0.0,0.0,0.0,0.0,0.0,0.0,0.0,0.0,0.0,0.0,0.0,0.0,0.0,0.0,0.0,0.0,0.0,0.0,0.0,0.0,-2.886,-2.8628,-2.7958,-2.6853,-2.6112,-2.5277,0.0,-2.3391,-2.2694,-2.2235,-2.1827,-2.1264,-2.0673,-2.0435,-2.0296,-2.0131,-2.0016,-1.9811,-1.9512,-1.8987,-1.8309,-1.7523,-1.6944,-1.6228,-1.5546,-1.5381,-1.5274,-1.5273,-1.5626,-1.5773,-1.5712,-1.6124,-1.5961,-1.5635,-1.5565,-1.5087,-1.4359,-1.3312,-1.2962,-1.2546,-1.1525,-1.195,-1.2614,-1.2614,-1.2614,-1.2473,-1.2012,-1.1909,-1.1585,-1.0748,-0.9863,-0.8803,-0.7085,-0.6809,-0.6768,-0.6805,-0.6946,-0.71,-0.7246,-0.7257,-0.7176,-0.7019,-0.6942,-0.6942,-0.6942,-0.6865,-0.6942,-0.6942,-0.718,-0.7334,-0.7484,-0.7484,-0.7484,-0.7484,-0.7484,-0.7504,-0.7545,-0.7529,-0.7617,-2.2674,0.0,0.0,-2.5474,0.0,-2.7964,-2.8376,-2.8825,-2.9164,0.0,0.0,0.0,0.0,0.0,0.0,0.0,0.0,0.0,0.0,0.0,0.0,0.0,0.0,0.0,0.0,0.0,0.0,0.0,0.0,0.0,0.0,-2.992,-2.9687,-2.9401,-2.7671,-2.6371,-2.5588,-2.4264,-2.3071,-2.2081,-2.2232,-2.1805,-2.0904,-2.0993,-2.061,-1.9901,-1.985,-1.9656,-1.9396,-1.9331,-1.9226,-1.9093,-1.8721,-1.8321,-1.7863,-1.7224,-1.656,-1.5941,-1.5556,-1.5264,-1.5037,-1.5252,-1.5252,-1.5107,-1.5392,-1.5297,-1.5032,-1.486,-1.4523,-1.3932,-1.2818,-1.2274,-1.1823,-1.0955,-1.1336,-1.1873,-1.1873,-1.1873,-1.1825,-1.1594,-1.1377,-1.0946,-1.0189,-0.9028,-0.7789,-0.638,-0.6436,-0.6619,-0.6535,-0.6737,-0.6923,-0.7011,-0.7022,-0.6945,-0.6791,-0.6791,-0.6714,-0.6637,-0.6641,-0.6637,-0.6791,-0.6872,-0.6791,-0.663,-0.663,-0.6395,-0.6002,-0.6002,-0.6002,-0.6005,-0.624,-0.628,-2.2791,0.0,-2.4216,-2.5924,-2.6963,0.0,-2.7581,-2.7685,0.0,0.0,0.0,0.0,0.0,0.0,0.0,0.0,0.0,0.0,0.0,0.0,0.0,0.0,0.0,0.0,0.0,0.0,0.0,0.0,0.0,0.0,-3.0365,-3.0244,-3.0107,-2.9946,-2.7076,-2.5029,-2.3991,-2.2422,-2.079,-1.9182,-2.062,-2.0505,-1.9016,-1.9837,-1.9837,-1.9214,-1.9214,-1.9004,-1.8697,-1.8643,-1.8548,-1.8441,-1.8441,-1.8398,-1.817,-1.7379,-1.681,-1.6312,-1.5594,-1.5079,-1.4721,-1.4793,-1.4614,-1.4354,-1.4373,-1.4371,-1.4291,-1.4001,-1.358,-1.3017,-1.2205,-1.1413,-1.0735,-1.0477,-1.0642,-1.0957,-1.1077,-1.1083,-1.107,-1.1154,-1.0676,-1.0048,-0.9519,-0.8043,-0.6718,-0.5973,-0.6198,-0.6438,-0.632,-0.6589,-0.6788,-0.6865,-0.6865,-0.6788,-0.6563,-0.6563,-0.649,-0.6338,-0.618,-0.6257,-0.6563,-0.6405,-0.6093,-0.5544,-0.5699,-0.5464,-0.4838,-0.4683,-0.4606,-0.4606,-0.4608,-0.4686,0.0,0.0,-2.4049,0.0,-2.6047,-2.6661,0.0,0.0,0.0,0.0,0.0,0.0,0.0,0.0,0.0,0.0,0.0,0.0,0.0,0.0,0.0,0.0,0.0,0.0,0.0,0.0,0.0,0.0,0.0,0.0,-3.0562,-3.0542,-3.0377,-3.0078,-2.9564,-2.7552,-2.3939,-2.3558,-2.1919,-1.9133,-1.9497,-1.9184,-1.8255,-1.8363,-1.8417,-1.8441,-1.8441,-1.8375,-1.8201,-1.8061,-1.7952,-1.7831,-1.7831,-1.7446,-1.6786,-1.6073,-1.5381,-1.4697,-1.4043,-1.3752,-1.37,-1.3683,-1.3666,-1.364,-1.3631,-1.3666,-1.3631,-1.3571,-1.3199,-1.2712,-1.1981,-1.1351,-1.0667,-1.0034,-0.982,-0.9906,-1.0473,-1.059,-1.052,-1.027,-0.9203,-0.8333,-0.8268,-0.7034,-0.5977,-0.5756,-0.5899,-0.6012,-0.5864,-0.6143,-0.649,-0.6718,-0.6641,-0.6563,-0.6338,-0.6338,-0.6338,-0.6338,-0.5631,-0.5553,-0.6338,-0.5628,-0.516,-0.5082,-0.6167,-0.6707,-0.6549,-0.5777,-0.5464,-0.5386,-0.4761,-0.445,-2.1376,-2.271,-2.4038,0.0,-2.5493,-2.5761,-2.5715,0.0,0.0,0.0,0.0,0.0,0.0,0.0,0.0,0.0,0.0,0.0,0.0,0.0,0.0,0.0,0.0,0.0,0.0,0.0,0.0,0.0,0.0,-3.0175,-3.0632,-3.0668,-3.0583,-3.0431,-2.8617,-2.6778,-2.4928,-2.2245,-1.9823,-1.7718,-1.7334,-1.717,-1.709,-1.6989,-1.7101,-1.7268,-1.7435,-1.7268,-1.7,-1.7011,-1.6955,-1.6899,-1.6899,-1.6729,-1.6343,-1.5728,-1.5148,-1.451,-1.3846,-1.3433,-1.3199,-1.3025,-1.2964,-1.2903,-1.2789,-1.285,-1.2911,-1.2789,-1.2397,-1.1896,-1.1156,-1.0471,-0.9837,-0.935,-0.9092,-0.9062,-0.9432,-0.9848,-0.9941,-0.935,-0.8409,-0.7497,-0.7051,-0.6141,-0.5425,-0.5296,-0.56,-0.5782,-0.5646,-0.5872,-0.6099,-0.6251,-0.6251,-0.6254,-0.6261,-0.6268,-0.6271,-0.6271,-0.5323,-0.4691,-0.4373,-0.4375,-0.43,-0.43,-0.5309,-0.5386,-0.4455,-0.453,-0.4377,-0.3832,-0.3597,-0.3517,0.0,0.0,-2.3309,-2.4529,-2.4808,-2.4853,0.0,0.0,0.0,0.0,0.0,0.0,0.0,0.0,0.0,0.0,0.0,0.0,0.0,0.0,0.0,0.0,0.0,0.0,0.0,0.0,0.0,0.0,0.0,-2.9977,-3.0645,-3.0663,-3.0662,-3.0668,-2.826,-2.6131,-2.4397,-1.9461,-1.652,-1.5484,-1.5216,-1.5313,-1.5911,-1.5623,-1.568,-1.5958,-1.6301,-1.6197,-1.5748,-1.5884,-1.5884,-1.5884,-1.5999,-1.5999,-1.5884,-1.5148,-1.4669,-1.4264,-1.3476,-1.294,-1.2589,-1.2359,-1.2297,-1.2297,-1.2058,-1.2182,-1.2297,-1.1926,-1.1531,-1.1017,-1.0275,-0.9588,-0.9017,-0.87,-0.8576,-0.8517,-0.8705,-0.9092,-0.928,-0.8608,-0.7762,-0.6981,-0.6268,-0.555,-0.5027,-0.4967,-0.528,-0.5561,-0.5551,-0.5622,-0.5709,-0.5786,-0.5786,-0.5867,-0.6106,-0.6112,-0.6116,-0.6116,-0.5093,-0.4226,-0.3671,-0.3361,-0.3361,-0.383,-0.4377,-0.4068,-0.2821,-0.3288,-0.3132,-0.2511,-0.243,-0.2429,0.0,-2.0867,0.0,-2.3302,-2.3725,0.0,0.0,0.0,0.0,0.0,0.0,0.0,0.0,0.0,0.0,0.0,0.0,0.0,0.0,0.0,0.0,0.0,0.0,0.0,0.0,0.0,0.0,0.0,0.0,-3.0486,-3.0592,-3.0617,-3.0619,-3.0618,-3.0316,-2.7139,-2.0841,-1.5175,-1.2409,-1.2565,-1.3597,-1.4332,-1.4765,-1.4145,-1.4016,-1.4382,-1.5255,-1.5313,-1.4787,-1.4942,-1.4824,-1.4647,-1.5235,-1.5235,-1.4883,-1.3923,-1.3563,-1.3381,-1.2174,-1.1685,-1.1685,-1.1622,-1.1747,-1.1802,-1.1802,-1.1934,-1.1988,-1.1274,-1.0703,-1.0212,-0.9524,-0.8958,-0.8511,-0.8301,-0.8376,-0.8517,-0.8517,-0.8517,-0.8376,-0.7837,-0.719,-0.6671,-0.64,-0.562,-0.4967,-0.4831,-0.5054,-0.5316,-0.5588,-0.5473,-0.5398,-0.5398,-0.5556,-0.5637,-0.5637,-0.5637,-0.5637,-0.5637,-0.4781,-0.4626,-0.564,-0.2896,-0.2192,-0.3752,-0.383,-0.383,-0.3752,-0.2978,-0.251,-0.251,-0.1727,-0.1414,0.0,0.0,0.0,-2.2332,-2.3112,-2.362,0.0,0.0,0.0,0.0,0.0,0.0,0.0,0.0,0.0,0.0,0.0,0.0,0.0,0.0,0.0,0.0,0.0,0.0,0.0,0.0,0.0,0.0,0.0,0.0,-2.8743,-2.8888,-2.8914,-2.8734,-2.8782,-2.5797,-1.9542,-1.7401,-1.4731,-1.1511,-1.1911,-1.2545,-1.3286,-1.3334,-1.3107,-1.27,-1.3438,-1.3793,-1.3914,-1.3983,-1.4052,-1.4181,-1.4291,-1.4291,-1.424,-1.3442,-1.3199,-1.3017,-1.1794,-1.1428,-1.1373,-1.1178,-1.1122,-1.1178,-1.131,-1.1373,-1.1373,-1.1108,-1.0268,-0.9442,-0.9192,-0.8301,-0.747,-0.74,-0.74,-0.74,-0.747,-0.7992,-0.8317,-0.7717,-0.6994,-0.6404,-0.6009,-0.5289,-0.4764,-0.45,-0.4778,-0.4953,-0.5049,-0.5014,-0.5129,-0.5309,-0.5398,-0.5479,-0.5559,-0.5488,-0.5491,-0.5581,-0.4238,-0.3059,-0.2115,-0.1255,-0.1098,-0.1724,-0.1724,-0.243,-0.3767,-0.313,-0.2426,-0.1724,-0.1961,-0.2041,-2.0107,0.0,0.0,0.0,0.0,-2.2734,0.0,0.0,0.0,0.0,0.0,0.0,0.0,0.0,0.0,0.0,0.0,0.0,0.0,0.0,0.0,0.0,0.0,0.0,0.0,0.0,0.0,0.0,0.0,0.0,-2.7642,-2.7865,-2.7902,-2.7723,-2.5723,-2.2736,-1.8675,-1.6683,-1.3944,-1.0594,-1.0815,-1.1374,-1.215,-1.2253,-1.2086,-1.1688,-1.1807,-1.2217,-1.2783,-1.2964,-1.3168,-1.3398,-1.3511,-1.358,-1.3528,-1.3025,-1.2712,-1.2466,-1.1483,-1.0989,-1.08,-1.0611,-1.0555,-1.0681,-1.0807,-1.087,-1.087,-1.0611,-0.9703,-0.8801,-0.8544,-0.7647,-0.6749,-0.6881,-0.6811,-0.6811,-0.6881,-0.747,-0.7727,-0.6999,-0.647,-0.5943,-0.5355,-0.4758,-0.4228,-0.3964,-0.4206,-0.4447,-0.4506,-0.4638,-0.4867,-0.5089,-0.5106,-0.5203,-0.5401,-0.5335,-0.5323,-0.5366,-0.4382,-0.313,-0.1707,-0.086,-0.0471,-0.0628,-0.0628,-0.1335,-0.2749,-0.2349,-0.1879,-0.1333,-0.1883,-0.2119,0.0,0.0,0.0,0.0,0.0,0.0,0.0,0.0,0.0,0.0,0.0,0.0,0.0,0.0,0.0,0.0,0.0,0.0,0.0,0.0,0.0,0.0,0.0,0.0,0.0,0.0,0.0,0.0,0.0,-2.7593,-2.7431,-2.7593,-2.768,-2.7618,-2.1602,-1.8274,-1.8061,-1.2433,-0.9568,-0.9492,-1.0222,-1.0835,-1.1327,-1.0948,-1.0997,-1.1271,-1.06,-1.0683,-1.1353,-1.1835,-1.2038,-1.2151,-1.2931,-1.3009,-1.2728,-1.2536,-1.2166,-1.1677,-1.0989,-1.0428,-0.9983,-0.9983,-1.011,-1.0238,-1.0301,-1.0434,-1.0428,-0.9716,-0.9,-0.8296,-0.7652,-0.6937,-0.6486,-0.6815,-0.6745,-0.6741,-0.6815,-0.6881,-0.6613,-0.5749,-0.5547,-0.5286,-0.4431,-0.3892,-0.3489,-0.3226,-0.3531,-0.3813,-0.3855,-0.4367,-0.47,-0.475,-0.4769,-0.4817,-0.5007,-0.5026,-0.498,-0.4938,-0.4974,-0.4991,-0.4874,-0.1706,-0.0157,-0.055,-0.055,-0.055,-0.055,-0.055,-0.0786,-0.1257,-0.1257,-0.1335,-1.9282,0.0,0.0,0.0,0.0,0.0,0.0,0.0,0.0,0.0,0.0,0.0,0.0,0.0,0.0,0.0,0.0,0.0,0.0,0.0,0.0,0.0,0.0,0.0,0.0,0.0,0.0,0.0,-2.6689,-2.6331,-2.5506,-2.5575,-2.5644,-2.5665,-2.2058,-1.9143,-1.7093,-1.3518,-1.0818,-0.8997,-0.9416,-0.9778,-1.009,-1.0424,-1.0318,-0.9831,-0.9984,-0.9951,-0.9769,-1.0458,-1.0959,-1.1216,-1.1317,-1.1588,-1.1931,-1.1871,-1.1905,-1.1872,-1.0787,-1.0345,-1.0155,-0.9652,-0.953,-0.9658,-0.9983,-1.011,-1.011,-0.9913,-0.9005,-0.7832,-0.6671,-0.6218,-0.609,-0.6156,-0.6284,-0.628,-0.6218,-0.6284,-0.6276,-0.5873,-0.5077,-0.4483,-0.4483,-0.3754,-0.309,-0.3023,-0.3117,-0.3343,-0.3591,-0.3763,-0.3992,-0.4476,-0.4503,-0.4579,-0.5007,-0.5021,-0.438,-0.2873,-0.4153,-0.3921,-0.1477,-0.0469,-0.0079,-0.0157,-0.0157,-0.0157,-0.0157,-0.0157,-0.0393,-0.0786,-0.1178,-0.1335,0.0,0.0,0.0,0.0,0.0,0.0,0.0,-2.1203,0.0,0.0,0.0,0.0,0.0,0.0,0.0,0.0,0.0,0.0,0.0,0.0,0.0,0.0,0.0,0.0,0.0,0.0,0.0,-2.5782,-2.5693,-2.5395,-2.4738,-2.467,-2.4666,-2.4756,-2.2104,-1.9337,-1.6505,-1.386,-1.1197,-0.8646,-0.8903,-0.9159,-0.9465,-0.9932,-0.9829,-0.9361,-0.9777,-0.9566,-0.9119,-0.9515,-1.0024,-1.0544,-1.0537,-1.0762,-1.1114,-1.1282,-1.1167,-1.0849,-1.0167,-0.9678,-0.9254,-0.8827,-0.8708,-0.877,-0.9019,-0.9158,-0.9304,-0.9436,-0.8606,-0.7428,-0.6063,-0.5705,-0.5818,-0.5888,-0.602,-0.5951,-0.5554,-0.5286,-0.5216,-0.5348,-0.4749,-0.4154,-0.3951,-0.3286,-0.2755,-0.2622,-0.2737,-0.2922,-0.3163,-0.3309,-0.3505,-0.395,-0.3769,-0.3791,-0.4081,-0.324,-0.2161,-0.0927,-0.1795,-0.1563,0.0155,0.0234,0.0236,0.0236,0.0079,-0.0,-0.0,-0.0,-0.0157,-0.0393,-0.0628,-0.0864,-1.9806,-1.9525,0.0,0.0,0.0,0.0,-2.1058,-2.0875,0.0,0.0,0.0,0.0,0.0,0.0,0.0,0.0,0.0,0.0,0.0,0.0,0.0,0.0,0.0,0.0,0.0,-2.6072,-2.5707,-2.4927,-2.4802,-2.4738,-2.4685,-2.4524,-2.4474,-2.4607,-2.1963,-1.9146,-1.6271,-1.372,-1.1062,-0.8421,-0.8692,-0.8962,-0.9211,-0.9458,-0.9562,-0.9562,-0.9681,-0.948,-0.8956,-0.8956,-0.933,-0.9873,-1.0151,-1.0279,-1.0372,-1.0657,-1.0215,-0.9376,-0.9369,-0.8733,-0.7925,-0.7865,-0.7806,-0.7806,-0.7865,-0.8012,-0.8175,-0.836,-0.7833,-0.6919,-0.5616,-0.5438,-0.5617,-0.5756,-0.5822,-0.5686,-0.5017,-0.4353,-0.4025,-0.4425,-0.4359,-0.3956,-0.2954,-0.2686,-0.2487,-0.2221,-0.2426,-0.2632,-0.2632,-0.2904,-0.3141,-0.3227,-0.2881,-0.2647,-0.2702,-0.0753,0.0528,0.0681,0.1083,0.1086,0.0685,0.0699,0.0707,0.0707,0.0236,-0.0,-0.0,-0.0,-0.0,-0.0,-0.0,-0.0157,-2.1395,0.0,0.0,0.0,0.0,0.0,-1.9739,-1.9989,0.0,0.0,0.0,0.0,0.0,0.0,0.0,0.0,0.0,0.0,0.0,0.0,0.0,0.0,0.0,0.0,0.0,-2.5028,-2.4922,-2.4738,-2.4645,-2.453,-2.4464,-2.4575,-2.462,-2.4607,-2.2081,-1.9351,-1.6463,-1.3857,-1.1145,-0.8421,-0.8798,-0.9008,-0.9061,-0.9413,-0.9413,-0.9159,-0.9465,-0.9204,-0.8527,-0.8732,-0.8911,-0.9032,-0.9086,-0.9391,-0.982,-0.993,-0.9981,-0.9904,-0.8903,-0.8375,-0.8145,-0.7444,-0.7265,-0.7325,-0.7747,-0.7898,-0.7811,-0.6945,-0.6352,-0.5855,-0.4947,-0.4984,-0.5219,-0.5219,-0.5484,-0.562,-0.5359,-0.4824,-0.4292,-0.382,-0.2885,-0.2083,-0.1883,-0.195,-0.2017,-0.1951,-0.2126,-0.2296,-0.2296,-0.2365,-0.2388,-0.2449,-0.2339,-0.1984,-0.1388,-0.0879,-0.0148,0.0983,0.1217,0.1229,0.1169,0.1176,0.1178,0.1178,0.0393,-0.0,-0.0,-0.0,-0.0,-0.0,-0.0,-0.0079,-2.1961,0.0,0.0,-2.1007,0.0,0.0,0.0,0.0,0.0,0.0,0.0,0.0,0.0,0.0,0.0,0.0,0.0,0.0,0.0,0.0,0.0,0.0,0.0,0.0,0.0,-2.4695,-2.4613,-2.4566,-2.4462,-2.4375,-2.4303,-2.4338,-2.4319,-2.4247,-2.308,-2.0447,-1.6238,-1.5002,-1.2389,-0.8421,-0.858,-0.8798,-0.9008,-0.9211,-0.9309,-0.9309,-0.951,-0.9256,-0.8692,-0.8844,-0.8738,-0.854,-0.8639,-0.8884,-0.9173,-0.9281,-0.9105,-0.8664,-0.8099,-0.7542,-0.6986,-0.6597,-0.6482,-0.6592,-0.6877,-0.7067,-0.6978,-0.6028,-0.5738,-0.5542,-0.4725,-0.4739,-0.496,-0.496,-0.509,-0.509,-0.4691,-0.4159,-0.3556,-0.282,-0.1949,-0.1412,-0.1547,-0.1681,-0.1749,-0.1749,-0.1839,-0.1786,-0.1373,-0.1373,-0.1241,-0.0907,-0.0759,-0.0485,-0.0071,0.0071,0.0433,0.1187,0.1264,0.1278,0.1234,0.1234,0.1242,0.1335,0.0864,0.055,0.0314,0.0314,0.0157,-0.0,-0.0,-0.0,0.0,0.0,0.0,0.0,0.0,-2.0517,0.0,0.0,0.0,0.0,0.0,0.0,0.0,0.0,0.0,0.0,0.0,0.0,0.0,0.0,0.0,0.0,0.0,0.0,0.0,-2.434,-2.4331,-2.4375,-2.4173,-2.41,-2.419,-2.4114,-2.4037,-2.3958,-2.4097,-2.1756,-1.6768,-1.6369,-1.3813,-0.9096,-0.8651,-0.8633,-0.8903,-0.8956,-0.9211,-0.951,-0.9458,-0.9256,-0.8903,-0.8798,-0.8427,-0.8002,-0.8368,-0.8521,-0.8573,-0.8798,-0.8309,-0.7551,-0.7439,-0.6804,-0.6009,-0.5845,-0.5845,-0.595,-0.595,-0.5943,-0.5892,-0.5384,-0.5244,-0.5075,-0.4439,-0.4541,-0.4734,-0.4755,-0.4831,-0.4697,-0.4164,-0.356,-0.2891,-0.2151,-0.1546,-0.121,-0.148,-0.1547,-0.1547,-0.1547,-0.1547,-0.1412,-0.0806,-0.0605,-0.0269,0.0402,0.0739,0.095,0.111,0.1182,0.1196,0.13,0.123,0.1174,0.1211,0.1217,0.1232,0.1335,0.1335,0.11,0.0707,0.0707,0.055,0.0079,-0.0,-0.0,0.0,0.0,0.0,0.0,-2.1911,0.0,0.0,0.0,0.0,0.0,0.0,0.0,0.0,0.0,0.0,0.0,0.0,0.0,0.0,0.0,0.0,0.0,0.0,0.0,0.0,0.0,-2.3562,-2.4266,-2.3584,-2.3474,-2.4153,-2.4248,-2.4247,-2.4173,-2.4302,-2.2837,-1.9645,-1.7398,-1.4719,-1.1564,-0.9533,-0.8626,-0.8626,-0.8903,-0.9113,-0.9211,-0.8988,-0.8732,-0.8427,-0.7996,-0.7616,-0.73,-0.8002,-0.8321,-0.8421,-0.8474,-0.8468,-0.8302,-0.7337,-0.6966,-0.6815,-0.5891,-0.5732,-0.585,-0.585,-0.5191,-0.448,-0.4712,-0.4209,-0.3639,-0.3909,-0.4227,-0.4493,-0.4602,-0.477,-0.4982,-0.4849,-0.4172,-0.3295,-0.2552,-0.1679,-0.1143,-0.1143,-0.1277,-0.1344,-0.1344,-0.148,-0.1547,-0.148,-0.0874,-0.0269,0.0269,0.0874,0.1482,0.2027,0.1757,0.1573,0.1616,0.1338,0.1152,0.1209,0.1238,0.1254,0.1335,0.1335,0.1257,0.1257,0.1257,0.1021,0.055,0.0157,-0.0,0.0,0.0,0.0,0.0,0.0,0.0,-2.0171,0.0,-1.9662,0.0,0.0,0.0,0.0,0.0,0.0,0.0,0.0,0.0,0.0,0.0,0.0,0.0,0.0,0.0,0.0,0.0,0.0,0.0,0.0,-2.3177,-2.3979,-2.4058,-2.404,-2.3959,-2.4019,-2.2007,-1.7697,-1.6561,-1.3908,-0.9798,-0.8882,-0.8527,-0.8626,-0.8896,-0.9061,-0.9211,-0.9152,-0.9047,-0.8844,-0.8309,-0.7883,-0.7563,-0.7729,-0.7895,-0.8049,-0.8315,-0.799,-0.7391,-0.7015,-0.648,-0.5887,-0.5677,-0.5622,-0.5681,-0.5795,-0.5293,-0.468,-0.446,-0.4119,-0.377,-0.3582,-0.3915,-0.426,-0.4308,-0.4446,-0.4573,-0.4573,-0.3966,-0.3228,-0.2691,-0.1817,-0.1078,-0.1078,-0.1144,-0.121,-0.121,-0.1277,-0.1143,-0.0739,-0.0,0.0672,0.1343,0.1813,0.2217,0.2487,0.2153,0.1961,0.1984,0.1667,0.1355,0.1183,0.1215,0.1239,0.1335,0.1335,0.1335,0.1335,0.1335,0.1178,0.1021,0.0864,0.0471,-2.4374,0.0,0.0,0.0,0.0,0.0,0.0,0.0,0.0,0.0,0.0,0.0,0.0,0.0,0.0,0.0,0.0,0.0,0.0,0.0,0.0,0.0,0.0,0.0,0.0,0.0,0.0,0.0,0.0,0.0,-2.3515,-2.3569,-2.364,-2.3795,-2.3768,-2.1935,-1.8084,-1.6522,-1.3915,-1.0236,-0.8984,-0.8474,-0.8573,-0.885,-0.9061,-0.9211,-0.9204,-0.9152,-0.9047,-0.8309,-0.7883,-0.7664,-0.7408,-0.7408,-0.7616,-0.8103,-0.7729,-0.7025,-0.6804,-0.6046,-0.5124,-0.5403,-0.5513,-0.5517,-0.5631,-0.5183,-0.4625,-0.4236,-0.3978,-0.3719,-0.3401,-0.3646,-0.4034,-0.4102,-0.4189,-0.4331,-0.4298,-0.3226,-0.222,-0.202,-0.1415,-0.0944,-0.0944,-0.101,-0.1077,-0.1077,-0.0941,-0.0605,-0.0067,0.0806,0.1612,0.2147,0.2551,0.2822,0.2822,0.2554,0.2287,0.2221,0.2003,0.1702,0.1529,0.1493,0.1532,0.1649,0.1492,0.1492,0.1492,0.1335,0.1335,0.1335,0.1335,0.0943,0.0,0.0,0.0,-2.2082,0.0,0.0,0.0,0.0,-2.0316,0.0,0.0,0.0,0.0,0.0,0.0,-1.9994,0.0,0.0,0.0,0.0,0.0,0.0,0.0,0.0,0.0,0.0,0.0,0.0,0.0,0.0,-2.2662,-2.2753,-2.3059,-2.3777,-2.3747,-2.3617,-2.3433,-1.83,-1.5609,-1.5399,-1.0663,-0.8421,-0.8421,-0.8798,-0.9061,-0.9159,-0.8784,-0.8672,-0.8725,-0.761,-0.7139,-0.7085,-0.6815,-0.6864,-0.7192,-0.7735,-0.8008,-0.8002,-0.6815,-0.5837,-0.5128,-0.5242,-0.5301,-0.5301,-0.5301,-0.4519,-0.3683,-0.3965,-0.3416,-0.2828,-0.3208,-0.3528,-0.3884,-0.4061,-0.4193,-0.4302,-0.4289,-0.2087,-0.0067,-0.0067,-0.0337,-0.0539,-0.0539,-0.0809,-0.1079,-0.1079,-0.0471,-0.0,-0.0,0.1275,0.2147,0.2214,0.282,0.3159,0.3159,0.2889,0.2554,0.2221,0.2211,0.2199,0.2253,0.2312,0.2372,0.2431,0.2117,0.1882,0.1882,0.1492,0.1335,0.1335,0.1335,0.1257,0.0,0.0,-2.3989,-2.2777,0.0,0.0,0.0,0.0,0.0,0.0,0.0,0.0,0.0,0.0,0.0,-1.9972,0.0,0.0,0.0,0.0,0.0,0.0,0.0,0.0,0.0,0.0,0.0,0.0,-2.0355,0.0,0.0,-2.2692,-2.3035,-2.3771,-2.3743,-2.2849,-2.1063,-1.7973,-1.556,-1.3808,-1.0588,-0.9047,-0.9047,-0.9008,-0.9061,-0.9211,-0.9152,-0.9197,-0.9242,-0.8084,-0.761,-0.7557,-0.6972,-0.6869,-0.7139,-0.7521,-0.73,-0.675,-0.5773,-0.523,-0.5011,-0.5128,-0.4904,-0.457,-0.457,-0.4125,-0.3516,-0.3236,-0.3074,-0.2974,-0.2895,-0.3065,-0.3202,-0.3153,-0.3427,-0.3575,-0.3011,-0.2831,-0.2293,-0.0337,-0.027,0.0202,0.2291,0.1751,0.0807,0.0202,0.0671,0.1006,0.0872,0.1744,0.2281,0.2214,0.282,0.3226,0.3226,0.3092,0.2889,0.2554,0.2509,0.2415,0.227,0.2328,0.2536,0.2983,0.2953,0.3054,0.3365,0.321,0.3054,0.2974,0.2974,0.2743,-2.4461,-2.4339,0.0,-2.3125,-2.2409,0.0,-2.0806,0.0,0.0,0.0,0.0,0.0,0.0,0.0,0.0,-2.0131,-1.978,0.0,0.0,0.0,0.0,0.0,0.0,0.0,0.0,0.0,-1.9705,-1.9864,0.0,0.0,0.0,0.0,-2.2576,-2.3313,-2.3556,-2.2832,-2.1089,-1.8906,-1.6609,-1.4263,-1.1675,-1.0075,-0.9413,-0.9106,-0.9061,-0.9211,-0.9361,-0.9354,-0.9242,-0.8296,-0.7765,-0.7557,-0.6815,-0.6707,-0.7025,-0.7354,-0.6972,-0.61,-0.5391,-0.5011,-0.4846,-0.4959,-0.4791,-0.4398,-0.4233,-0.3904,-0.3405,-0.2847,-0.2738,-0.2742,-0.2577,-0.2673,-0.2803,-0.2739,-0.2748,-0.2629,-0.2203,-0.2426,-0.2225,-0.0337,-0.0202,0.0674,0.3787,0.3509,0.2555,0.1478,0.1745,0.1945,0.1811,0.235,0.2753,0.2686,0.2956,0.3226,0.3226,0.3226,0.3092,0.2889,0.309,0.3141,0.2977,0.3141,0.3511,0.4123,0.3925,0.4015,0.4323,0.4203,0.4124,0.3934,0.3969,0.391]},{"header":{"parameterUnit":"m.s-1","parameterCategory":1,"la1":30.6,"la2":29.2853,"lo1":-89.7004,"lo2":-87.6739,"dy":0.0162,"dx":0.0183,"nx":112,"ny":82,"refTime":"2024-05-16T18:00:00:Z","depth":0,"parameterNumber":3,"parameterNumberName":"V-component_of_WINDS"},"data":[0.0,0.0,0.0,0.0,0.0,0.0,0.0,0.0,0.0,0.0,0.0,0.0,0.0,0.0,0.0,0.0,0.0,0.0,0.0,0.0,0.0,0.0,0.0,0.0,0.0,0.0,0.0,0.0,0.0,0.0,0.0,0.0,0.0,0.0,0.0,0.0,0.0,0.0,0.0,0.0,0.0,0.0,0.0,0.0,0.0,0.0,0.0,0.0,0.0,0.0,0.0,0.0,0.0,0.0,0.0,0.0,0.0,0.0,0.0,0.0,0.0,0.0,0.0,0.0,0.0,0.0,0.0,0.0,0.0,0.0,0.0,0.0,0.0,0.0,0.0,0.0,0.0,0.0,0.0,0.0,0.0,0.0,0.0,0.0,0.0,0.0,0.0,0.0,0.0,0.0,0.0,-2.9668,-3.0186,-2.9635,-2.8017,-2.7319,-2.6166,-2.4307,0.0,0.0,0.0,0.0,0.0,0.0,0.0,0.0,0.0,0.0,0.0,0.0,0.0,0.0,0.0,0.0,0.0,0.0,0.0,0.0,0.0,0.0,0.0,0.0,0.0,0.0,0.0,0.0,0.0,0.0,0.0,0.0,0.0,0.0,0.0,0.0,0.0,0.0,0.0,0.0,0.0,0.0,0.0,0.0,0.0,0.0,0.0,0.0,0.0,0.0,0.0,0.0,0.0,0.0,0.0,0.0,0.0,0.0,0.0,0.0,0.0,0.0,0.0,0.0,0.0,0.0,0.0,0.0,0.0,0.0,0.0,0.0,0.0,0.0,0.0,0.0,0.0,0.0,0.0,0.0,0.0,0.0,0.0,0.0,0.0,0.0,0.0,0.0,0.0,0.0,0.0,0.0,0.0,0.0,0.0,0.0,0.0,0.0,0.0,0.0,0.0,0.0,0.0,0.0,-2.5372,-2.799,-2.8899,-2.8915,-2.7901,-2.776,-2.6706,-2.4264,0.0,0.0,0.0,0.0,0.0,0.0,0.0,0.0,0.0,0.0,0.0,0.0,0.0,0.0,0.0,0.0,0.0,0.0,0.0,0.0,0.0,0.0,0.0,0.0,0.0,0.0,0.0,0.0,0.0,0.0,0.0,0.0,0.0,0.0,0.0,0.0,0.0,0.0,0.0,0.0,0.0,0.0,0.0,0.0,0.0,0.0,0.0,0.0,0.0,0.0,0.0,0.0,0.0,0.0,0.0,0.0,0.0,0.0,0.0,0.0,0.0,0.0,0.0,0.0,0.0,0.0,0.0,0.0,0.0,0.0,0.0,0.0,0.0,0.0,0.0,0.0,0.0,0.0,0.0,0.0,0.0,0.0,0.0,0.0,0.0,0.0,0.0,0.0,0.0,0.0,0.0,0.0,0.0,0.0,0.0,0.0,0.0,0.0,0.0,0.0,0.0,0.0,0.0,-2.5485,-2.6049,-2.7613,-2.7673,-2.7596,-2.768,-2.6927,-2.5543,-2.3469,-2.3052,0.0,0.0,0.0,0.0,0.0,0.0,0.0,0.0,0.0,0.0,0.0,0.0,0.0,0.0,0.0,0.0,0.0,0.0,0.0,0.0,0.0,0.0,0.0,0.0,0.0,0.0,0.0,0.0,0.0,0.0,0.0,0.0,0.0,0.0,0.0,0.0,0.0,0.0,0.0,0.0,0.0,0.0,0.0,0.0,0.0,0.0,0.0,0.0,0.0,0.0,0.0,0.0,0.0,0.0,0.0,0.0,0.0,0.0,0.0,0.0,0.0,0.0,0.0,0.0,0.0,0.0,0.0,0.0,0.0,0.0,0.0,0.0,0.0,0.0,0.0,0.0,0.0,0.0,0.0,0.0,0.0,0.0,0.0,0.0,0.0,0.0,0.0,0.0,0.0,0.0,0.0,0.0,0.0,0.0,0.0,0.0,0.0,0.0,0.0,0.0,0.0,0.0,-2.6713,-2.7224,-2.7184,-2.6698,-2.6601,-2.7089,-2.5672,-2.4148,-2.267,-2.2521,0.0,0.0,0.0,0.0,0.0,0.0,0.0,0.0,0.0,0.0,0.0,0.0,0.0,0.0,0.0,0.0,0.0,0.0,0.0,0.0,0.0,0.0,0.0,0.0,0.0,0.0,0.0,0.0,0.0,0.0,0.0,0.0,0.0,0.0,0.0,0.0,0.0,0.0,0.0,0.0,0.0,0.0,0.0,0.0,0.0,0.0,0.0,0.0,0.0,0.0,0.0,0.0,0.0,0.0,0.0,0.0,0.0,0.0,0.0,0.0,0.0,0.0,0.0,0.0,0.0,0.0,0.0,0.0,0.0,0.0,0.0,0.0,0.0,0.0,0.0,0.0,0.0,0.0,0.0,0.0,0.0,0.0,0.0,0.0,0.0,0.0,0.0,0.0,0.0,0.0,0.0,0.0,0.0,0.0,0.0,0.0,0.0,0.0,0.0,0.0,0.0,0.0,-2.7074,-2.8426,-2.5929,-2.6265,-2.6431,-2.5782,-2.4385,-2.3159,-2.2284,-2.1767,0.0,0.0,0.0,0.0,0.0,0.0,0.0,0.0,0.0,0.0,0.0,0.0,0.0,0.0,0.0,0.0,0.0,0.0,0.0,0.0,0.0,0.0,0.0,0.0,0.0,0.0,0.0,0.0,0.0,0.0,0.0,0.0,0.0,0.0,0.0,0.0,0.0,0.0,0.0,0.0,0.0,0.0,0.0,0.0,0.0,0.0,0.0,0.0,0.0,0.0,0.0,0.0,0.0,0.0,0.0,0.0,0.0,0.0,0.0,0.0,0.0,0.0,0.0,0.0,0.0,0.0,0.0,0.0,0.0,0.0,0.0,0.0,0.0,0.0,0.0,0.0,0.0,0.0,0.0,0.0,0.0,0.0,0.0,0.0,0.0,0.0,0.0,0.0,0.0,0.0,0.0,0.0,0.0,0.0,0.0,0.0,0.0,0.0,0.0,0.0,0.0,0.0,-2.5158,-2.5206,0.0,-2.5263,-2.5282,-2.5614,-2.5144,-2.412,-2.2424,0.0,0.0,0.0,0.0,0.0,0.0,0.0,0.0,0.0,0.0,0.0,0.0,0.0,0.0,0.0,0.0,0.0,0.0,0.0,0.0,0.0,0.0,0.0,0.0,0.0,0.0,0.0,0.0,0.0,0.0,0.0,0.0,0.0,0.0,0.0,0.0,0.0,0.0,0.0,0.0,0.0,0.0,0.0,0.0,0.0,0.0,0.0,0.0,0.0,0.0,0.0,0.0,0.0,0.0,0.0,0.0,0.0,0.0,0.0,0.0,0.0,0.0,0.0,0.0,0.0,0.0,0.0,0.0,0.0,0.0,0.0,0.0,0.0,0.0,0.0,0.0,0.0,0.0,0.0,0.0,0.0,0.0,0.0,0.0,0.0,0.0,0.0,0.0,0.0,0.0,0.0,0.0,0.0,0.0,0.0,0.0,0.0,0.0,0.0,0.0,0.0,0.0,-2.4289,-2.4039,-2.3952,0.0,-2.4567,-2.4556,-2.5042,-2.4912,-2.4087,-2.2407,0.0,0.0,0.0,0.0,0.0,0.0,0.0,0.0,0.0,0.0,0.0,0.0,0.0,0.0,0.0,0.0,0.0,0.0,0.0,0.0,0.0,0.0,0.0,0.0,0.0,0.0,0.0,0.0,0.0,0.0,0.0,0.0,0.0,0.0,0.0,0.0,0.0,0.0,0.0,0.0,0.0,0.0,0.0,0.0,0.0,0.0,0.0,0.0,0.0,0.0,0.0,0.0,0.0,0.0,0.0,0.0,0.0,0.0,0.0,0.0,0.0,0.0,0.0,0.0,0.0,0.0,0.0,0.0,0.0,0.0,0.0,0.0,0.0,0.0,0.0,0.0,0.0,0.0,0.0,0.0,0.0,0.0,0.0,0.0,0.0,0.0,0.0,0.0,0.0,0.0,0.0,0.0,0.0,0.0,0.0,0.0,0.0,0.0,0.0,0.0,0.0,0.0,-2.137,-2.4117,-2.5547,-2.3685,-2.4195,-2.4449,-2.3847,-2.3267,-2.2701,0.0,0.0,0.0,0.0,0.0,0.0,0.0,0.0,0.0,0.0,0.0,0.0,0.0,0.0,0.0,0.0,0.0,0.0,0.0,0.0,0.0,0.0,0.0,0.0,0.0,0.0,0.0,0.0,0.0,0.0,0.0,0.0,0.0,0.0,0.0,0.0,0.0,0.0,0.0,0.0,0.0,0.0,0.0,0.0,0.0,0.0,0.0,0.0,0.0,0.0,0.0,0.0,0.0,0.0,0.0,0.0,0.0,0.0,0.0,0.0,0.0,0.0,0.0,0.0,0.0,0.0,0.0,0.0,0.0,0.0,0.0,0.0,0.0,0.0,0.0,0.0,0.0,0.0,0.0,0.0,0.0,0.0,0.0,0.0,0.0,0.0,0.0,0.0,0.0,0.0,0.0,0.0,0.0,0.0,0.0,0.0,0.0,0.0,0.0,0.0,0.0,0.0,0.0,-2.1531,-2.3002,-2.3839,-2.3348,-2.3743,-2.3988,-2.3824,-2.4333,-2.3951,-2.2275,0.0,0.0,0.0,0.0,0.0,0.0,0.0,0.0,0.0,0.0,0.0,0.0,0.0,0.0,0.0,0.0,0.0,0.0,0.0,0.0,0.0,0.0,0.0,0.0,0.0,0.0,0.0,0.0,0.0,0.0,0.0,0.0,0.0,0.0,0.0,0.0,0.0,0.0,0.0,0.0,0.0,0.0,0.0,0.0,0.0,0.0,0.0,0.0,0.0,0.0,0.0,0.0,0.0,0.0,0.0,0.0,0.0,0.0,0.0,0.0,0.0,0.0,0.0,0.0,0.0,0.0,0.0,0.0,0.0,0.0,0.0,0.0,0.0,0.0,0.0,0.0,0.0,0.0,0.0,0.0,0.0,0.0,0.0,0.0,0.0,0.0,0.0,0.0,0.0,0.0,0.0,0.0,0.0,0.0,0.0,0.0,0.0,0.0,0.0,0.0,0.0,0.0,-2.1601,-2.2526,-2.3116,-2.3144,-2.3407,-2.3661,-2.3915,-2.4511,-2.41,-2.2293,0.0,0.0,0.0,0.0,0.0,0.0,0.0,0.0,0.0,0.0,0.0,0.0,0.0,0.0,0.0,0.0,0.0,0.0,0.0,0.0,0.0,0.0,0.0,0.0,0.0,0.0,0.0,0.0,0.0,0.0,0.0,0.0,0.0,0.0,0.0,0.0,0.0,0.0,0.0,0.0,0.0,0.0,0.0,0.0,0.0,0.0,0.0,0.0,0.0,0.0,0.0,0.0,0.0,0.0,0.0,0.0,0.0,0.0,0.0,0.0,0.0,0.0,0.0,0.0,0.0,0.0,0.0,0.0,0.0,0.0,0.0,0.0,0.0,0.0,0.0,0.0,0.0,0.0,0.0,0.0,0.0,0.0,0.0,0.0,0.0,0.0,0.0,0.0,0.0,0.0,0.0,0.0,0.0,0.0,0.0,0.0,0.0,0.0,0.0,0.0,0.0,0.0,-2.1525,-2.2447,-2.3063,-2.3049,-2.3157,-2.3448,-2.4009,-2.4073,-2.3582,-2.2405,0.0,0.0,0.0,0.0,0.0,0.0,0.0,0.0,0.0,0.0,0.0,0.0,0.0,0.0,0.0,0.0,0.0,0.0,0.0,0.0,0.0,0.0,0.0,0.0,0.0,0.0,0.0,0.0,0.0,0.0,0.0,0.0,0.0,0.0,0.0,0.0,0.0,0.0,0.0,0.0,0.0,0.0,0.0,0.0,0.0,0.0,0.0,0.0,0.0,0.0,0.0,0.0,0.0,0.0,0.0,0.0,0.0,0.0,0.0,0.0,-1.612,0.0,0.0,0.0,0.0,0.0,0.0,0.0,0.0,0.0,0.0,0.0,0.0,0.0,0.0,0.0,0.0,0.0,0.0,0.0,0.0,0.0,0.0,0.0,0.0,0.0,0.0,0.0,0.0,0.0,0.0,0.0,0.0,0.0,0.0,0.0,0.0,0.0,0.0,0.0,0.0,0.0,-2.0818,-2.199,-2.2799,-2.2781,-2.3077,-2.3395,-2.3692,-2.3837,-2.397,-2.3977,-2.2371,0.0,0.0,0.0,0.0,0.0,0.0,0.0,0.0,0.0,0.0,0.0,0.0,0.0,0.0,0.0,0.0,0.0,0.0,0.0,0.0,0.0,0.0,0.0,0.0,0.0,0.0,0.0,0.0,0.0,0.0,0.0,0.0,0.0,0.0,0.0,0.0,0.0,0.0,0.0,0.0,0.0,0.0,0.0,0.0,0.0,0.0,0.0,0.0,0.0,0.0,0.0,0.0,0.0,0.0,0.0,0.0,0.0,0.0,0.0,0.0,-1.6968,0.0,0.0,0.0,0.0,0.0,0.0,0.0,0.0,0.0,0.0,0.0,0.0,0.0,0.0,0.0,0.0,0.0,0.0,0.0,0.0,0.0,0.0,0.0,0.0,0.0,0.0,0.0,0.0,0.0,0.0,0.0,0.0,0.0,0.0,0.0,0.0,0.0,0.0,0.0,0.0,-2.0512,-2.1763,-2.2668,-2.2704,-2.2884,-2.321,-2.3705,-2.3753,-2.38,-2.3869,-2.3188,0.0,0.0,0.0,0.0,0.0,0.0,0.0,0.0,0.0,0.0,0.0,0.0,0.0,0.0,0.0,0.0,0.0,0.0,0.0,0.0,0.0,0.0,0.0,0.0,0.0,0.0,0.0,0.0,0.0,0.0,0.0,0.0,0.0,0.0,0.0,0.0,0.0,0.0,0.0,0.0,0.0,0.0,0.0,0.0,0.0,0.0,0.0,0.0,0.0,0.0,0.0,0.0,0.0,-1.8512,-1.8447,-1.7896,-1.8956,-1.8854,-1.7867,-1.817,-1.8071,-1.7799,0.0,0.0,0.0,0.0,0.0,0.0,0.0,0.0,0.0,0.0,0.0,0.0,0.0,0.0,0.0,0.0,0.0,0.0,0.0,0.0,0.0,0.0,0.0,0.0,0.0,-2.1679,-2.2048,0.0,0.0,0.0,0.0,0.0,0.0,0.0,0.0,0.0,0.0,0.0,0.0,-2.0584,-2.1773,-2.2632,-2.2685,-2.2738,-2.3063,-2.3741,-2.3721,-2.3587,-2.3449,-2.3915,-2.3431,0.0,0.0,0.0,0.0,0.0,0.0,0.0,0.0,0.0,0.0,0.0,0.0,0.0,0.0,0.0,0.0,0.0,0.0,0.0,0.0,0.0,0.0,0.0,0.0,0.0,0.0,0.0,0.0,0.0,0.0,0.0,0.0,-1.2571,-1.3316,0.0,0.0,0.0,0.0,0.0,0.0,0.0,0.0,0.0,0.0,0.0,0.0,0.0,-1.8192,-1.9735,-1.9749,-2.0011,-2.0494,-2.0582,-2.0582,-2.0494,-2.0669,-2.0654,-2.0494,-2.0535,0.0,-1.7445,-1.8208,0.0,0.0,0.0,0.0,0.0,0.0,0.0,0.0,0.0,0.0,0.0,0.0,0.0,0.0,0.0,0.0,0.0,0.0,0.0,0.0,0.0,0.0,-2.3658,-2.4747,-2.4533,-2.4096,0.0,-2.2192,-2.0442,-2.0418,-2.0168,0.0,0.0,0.0,0.0,0.0,0.0,0.0,-2.1267,-2.2143,-2.2685,-2.2712,-2.2919,-2.3151,-2.3359,-2.3678,-2.3981,-2.4321,-2.3523,-2.3377,-2.4185,-2.2811,0.0,0.0,0.0,0.0,0.0,0.0,0.0,0.0,0.0,0.0,0.0,0.0,0.0,0.0,0.0,0.0,0.0,0.0,0.0,0.0,0.0,0.0,0.0,0.0,0.0,0.0,0.0,0.0,0.0,-1.1815,-1.2668,-1.295,-1.3336,-1.3729,0.0,0.0,0.0,0.0,0.0,0.0,0.0,0.0,0.0,-1.8167,-1.8352,-1.9089,-2.0407,-2.0489,-2.0792,-2.1341,-2.1412,-2.1469,-2.1498,-2.225,-2.2033,-2.1032,-2.1772,-2.1046,-1.938,-1.9184,-1.9166,-1.9271,0.0,0.0,0.0,0.0,-2.0164,-2.0008,-2.0841,-2.0884,0.0,0.0,0.0,0.0,0.0,0.0,0.0,0.0,0.0,0.0,0.0,0.0,0.0,-2.482,-2.4635,-2.4447,-2.4447,-2.3519,-2.247,0.0,-2.1182,-2.0628,-1.9884,0.0,0.0,0.0,0.0,-2.102,-2.143,-2.2133,-2.2777,-2.3271,-2.3188,-2.3382,-2.4039,-2.3973,-2.4058,-2.4468,-2.4039,-2.4013,-2.461,-2.3356,-2.2877,0.0,0.0,0.0,0.0,0.0,0.0,0.0,0.0,0.0,0.0,0.0,0.0,0.0,0.0,0.0,0.0,0.0,0.0,0.0,0.0,0.0,0.0,0.0,0.0,0.0,0.0,0.0,0.0,-1.1828,-1.2681,-1.2929,-1.3604,-1.4196,0.0,0.0,0.0,0.0,0.0,0.0,-1.6088,-1.6528,-1.7457,-1.8962,-1.9429,-2.0297,-2.1685,-2.1772,-2.2002,-2.2431,-2.2536,-2.2581,-2.261,-2.3656,-2.3354,-2.2033,-2.296,-2.2844,-2.1902,-2.0539,-2.022,-2.0498,-1.9903,-1.9937,-2.0364,-2.1157,-2.1143,-2.0915,-2.2111,-2.2187,-2.1702,-2.1501,0.0,-2.086,-2.0535,0.0,0.0,0.0,0.0,-2.3486,-2.3639,-2.4477,-2.5213,-2.4862,-2.486,-2.4891,-2.4658,-2.4654,-2.436,0.0,-2.2524,-2.1966,-2.1199,0.0,0.0,0.0,0.0,-2.1701,-2.2243,-2.2764,-2.3412,-2.4123,-2.3762,-2.3839,-2.4748,-2.4317,-2.4136,-2.4482,-2.45,-2.4608,-2.4897,-2.3961,-2.3904,-2.4927,0.0,0.0,0.0,0.0,0.0,0.0,0.0,0.0,0.0,0.0,0.0,0.0,0.0,0.0,0.0,0.0,0.0,0.0,0.0,0.0,0.0,0.0,0.0,0.0,0.0,0.0,0.0,0.0,0.0,-1.3535,-1.4097,0.0,0.0,0.0,0.0,-1.5237,-1.5849,-1.6542,-1.7428,-1.7659,-1.89,-2.1437,-2.1172,-2.2097,-2.4373,-2.4388,-2.4514,-2.4641,-2.4641,-2.4641,-2.4641,-2.4791,-2.4762,-2.4597,-2.467,-2.4718,-2.4549,-2.2456,-2.1865,-2.2378,-2.23,-2.2663,-2.3201,-2.325,-2.3302,-2.3372,-2.3835,-2.3996,-2.3909,-2.3237,-2.2049,-2.1016,-2.1685,-2.1903,0.0,0.0,-2.3006,-2.4293,-2.5012,-2.5246,-2.5481,-2.6217,-2.6385,-2.6184,-2.5414,-2.5263,-2.5095,0.0,-2.4371,-2.4147,-2.3459,0.0,-2.2541,-2.3221,-2.2818,-2.2931,-2.4359,-2.4675,-2.4913,-2.5287,-2.4842,-2.471,-2.5142,-2.4631,-2.4339,-2.45,-2.45,-2.4886,-2.5699,-2.5017,-2.467,-2.481,-2.3324,0.0,0.0,0.0,0.0,0.0,0.0,0.0,0.0,0.0,0.0,0.0,0.0,0.0,0.0,0.0,0.0,0.0,0.0,0.0,0.0,0.0,0.0,0.0,0.0,0.0,0.0,0.0,0.0,-1.4601,-1.5372,0.0,-1.6293,-1.6372,-1.6457,-1.6638,-1.6844,-1.7119,-1.7443,-1.8153,-1.9143,-2.0421,-2.147,-2.2533,-2.3589,-2.424,-2.4669,-2.4952,-2.5193,-2.5243,-2.5236,-2.5872,-2.5647,-2.48,-2.527,-2.5226,-2.4776,-2.4341,-2.3713,-2.2998,-2.2731,-2.2796,-2.3099,-2.3617,-2.3786,-2.3852,-2.4,-2.4066,-2.4048,-2.3765,-2.3302,-2.2936,-2.3202,-2.3285,-2.3285,-2.3285,-2.3999,-2.483,-2.5095,-2.5511,-2.5942,-2.626,-2.6329,-2.6298,-2.5997,-2.5998,-2.6,-2.5832,-2.5058,-2.4363,-2.4167,-2.3943,-2.3858,-2.4113,-2.3926,-2.4003,-2.4603,-2.4936,-2.5355,-2.6086,-2.539,-2.5145,-2.5852,-2.4925,-2.4358,-2.45,-2.45,-2.4647,-2.4942,-2.5471,-2.5778,-2.5901,-2.4845,-2.3462,0.0,0.0,0.0,0.0,0.0,0.0,0.0,0.0,0.0,0.0,0.0,0.0,0.0,0.0,0.0,0.0,0.0,0.0,0.0,0.0,0.0,0.0,0.0,0.0,0.0,0.0,-1.4971,-1.5612,-1.6596,-1.7329,-1.7627,-1.7845,-1.8013,-1.8205,-1.8205,-1.8289,-1.8482,-1.9155,-1.9981,-2.0934,-2.2096,-2.3191,-2.4118,-2.4775,-2.5246,-2.5487,-2.5854,-2.5972,-2.5897,-2.6538,-2.6315,-2.5517,-2.5937,-2.5879,-2.5473,-2.557,-2.5077,-2.4205,-2.3662,-2.3483,-2.3565,-2.4091,-2.4388,-2.4492,-2.4492,-2.4463,-2.4381,-2.4495,-2.4281,-2.405,-2.4299,-2.4381,-2.4431,-2.4679,-2.5276,-2.5905,-2.6137,-2.6584,-2.6949,-2.6949,-2.677,-2.6643,-2.6643,-2.6495,-2.6415,-2.6485,-2.5765,-2.5159,-2.519,-2.5033,-2.4949,-2.5186,-2.5017,-2.5043,-2.5541,-2.5796,-2.6276,-2.7183,-2.6411,-2.5982,-2.6395,-2.5369,-2.4653,-2.4518,-2.45,-2.45,-2.45,-2.5551,-2.642,-2.7027,-2.5854,-2.4255,-2.2296,0.0,0.0,0.0,0.0,0.0,0.0,0.0,0.0,0.0,0.0,0.0,0.0,0.0,0.0,0.0,0.0,0.0,0.0,0.0,0.0,0.0,0.0,0.0,-1.4572,-1.491,-1.5624,-1.6525,-1.7616,-1.8253,-1.8253,-1.8734,-1.9251,-1.9768,-1.9805,-2.0045,-2.0586,-2.0634,-2.1416,-2.3089,-2.3184,-2.4146,-2.6056,-2.6233,-2.6379,-2.651,-2.6712,-2.6779,-2.6779,-2.6779,-2.6779,-2.6779,-2.6779,-2.6779,-2.6736,-2.6083,-2.5958,-2.6125,-2.5288,-2.496,-2.4966,-2.495,-2.5192,-2.5465,-2.5503,-2.5337,-2.5174,-2.5473,-2.4895,-2.4249,-2.4978,-2.5209,-2.5359,-2.6071,-2.6766,-2.7516,-2.8229,-2.8412,-2.8412,-2.8412,-2.7864,-2.7334,-2.7334,-2.6766,-2.6322,-2.6517,-2.6621,-2.6639,-2.6623,-2.6067,-2.5879,-2.659,-2.6099,0.0,-2.7261,-2.7409,-2.7736,-2.8525,-2.7888,-2.7232,-2.6772,-2.5982,-2.5208,-2.4575,-2.4518,-2.45,-2.45,-2.5349,-2.6534,-2.8077,-2.6249,-2.412,-2.1759,0.0,0.0,0.0,0.0,0.0,0.0,0.0,0.0,0.0,0.0,0.0,0.0,0.0,0.0,0.0,0.0,0.0,0.0,0.0,0.0,0.0,0.0,-1.57,-1.5381,-1.6492,-1.7456,-1.7748,-1.8698,-1.9348,-1.9348,-1.9853,-2.0225,-2.037,-2.0382,-2.0442,-2.0574,-2.0971,-2.1577,-2.2547,-2.3334,-2.4323,-2.5412,-2.5988,-2.634,-2.6379,-2.6674,-2.6712,-2.6578,-2.6712,-2.6779,-2.6779,-2.6779,-2.6779,-2.6779,-2.6591,-2.6331,-2.6056,-2.6092,-2.6264,-2.6398,-2.6198,-2.5686,-2.5098,-2.5389,-2.5464,-2.5542,-2.6517,-2.6611,-2.6518,-2.7263,-2.7479,-2.7512,-2.7727,-2.7926,-2.8163,-2.8362,-2.8412,-2.8412,-2.8412,-2.8262,-2.8113,-2.8113,-2.7926,-2.7815,-2.7852,-2.7927,-2.7724,-2.6826,-2.6539,-2.6471,-2.6657,-2.6753,0.0,-2.733,-2.7776,-2.8192,-2.8551,-2.8038,-2.7651,-2.758,-2.6294,-2.543,-2.5319,-2.4799,-2.45,-2.45,-2.533,-2.6637,-2.8362,-2.6269,-2.4517,0.0,0.0,0.0,0.0,0.0,0.0,0.0,0.0,0.0,0.0,0.0,0.0,0.0,0.0,0.0,0.0,0.0,0.0,0.0,0.0,0.0,0.0,-1.6489,-1.7111,-1.6919,-1.7661,-1.8277,-1.8506,-1.948,-2.0213,-2.0442,-2.0959,-2.1272,-2.1272,-2.1488,-2.1596,-2.1584,-2.2372,-2.3144,-2.3735,-2.4688,-2.5567,-2.6342,-2.6876,-2.7126,-2.7236,-2.7194,-2.7118,-2.6967,-2.6842,-2.6779,0.0,-2.6779,-2.6779,-2.6779,-2.6779,-2.6703,0.0,0.0,0.0,0.0,0.0,-2.6607,-2.6054,-2.6331,-2.6525,-2.6814,-2.7279,-2.7597,-2.7848,-2.8296,-2.8412,-2.8478,-2.8738,-2.8804,-2.8887,-2.9201,-2.9284,-2.9284,-2.9284,-2.9036,-2.8804,-2.8804,-2.8588,-2.8412,-2.8489,-2.8565,0.0,-2.7772,-2.762,-2.7603,-2.7655,-2.7656,-2.7757,-2.8032,-2.8198,-2.842,-2.8743,-2.8484,-2.8195,-2.7969,-2.7089,0.0,0.0,0.0,-2.5001,-2.5001,-2.5517,0.0,0.0,0.0,0.0,0.0,0.0,0.0,0.0,-2.408,-2.5066,0.0,0.0,0.0,0.0,0.0,0.0,0.0,0.0,0.0,0.0,0.0,0.0,0.0,0.0,0.0,0.0,-1.7671,-1.9042,-1.8844,-1.8613,-1.865,-1.9119,-2.0081,-2.0887,-2.1356,-2.1933,-2.2282,-2.2282,-2.2775,-2.3063,-2.3063,0.0,0.0,0.0,0.0,-2.7102,-2.7967,-2.814,-2.8326,-2.8482,-2.8045,-2.7839,-2.781,-2.7258,-2.6997,-2.6997,-2.6924,-2.6895,-2.6895,-2.6823,-2.6989,-2.7174,-2.6633,-2.6321,-2.626,-2.7211,-2.7541,-2.7476,-2.7533,0.0,0.0,-2.7891,-2.8085,-2.8467,-2.8588,-2.8622,-2.8754,-2.9367,-2.9533,-2.9682,-3.0344,-3.0526,-3.0526,-3.0526,-3.0013,-2.9533,-2.9533,-2.9052,-2.8699,-2.8891,-2.8929,-2.9005,-2.9191,-2.9003,-2.8901,-2.9047,-2.8733,-2.8665,-2.9124,-2.8863,-2.8732,-2.9075,0.0,0.0,-2.8175,-2.8049,-2.7407,-2.6043,-2.5875,-2.5838,-2.5838,-2.589,-2.6057,-2.6332,-2.7172,-2.7332,-2.685,-2.7611,-2.7851,-2.7553,-2.6334,-2.6326,0.0,0.0,0.0,0.0,0.0,0.0,0.0,0.0,0.0,0.0,0.0,0.0,0.0,0.0,0.0,-1.8241,-1.9083,-1.978,-2.0181,-2.0157,-2.0189,-2.0286,-2.0863,-2.1296,-2.1392,-2.227,-2.2835,-2.2835,-2.3316,-2.3616,-2.3616,-2.3899,0.0,-2.5772,-2.5959,-2.6634,-2.8009,-2.8154,-2.8254,-2.844,0.0,0.0,-2.8492,-2.8376,-2.8318,-2.8289,-2.7766,-2.7549,-2.7505,-2.6997,-2.6989,-2.7269,-2.7678,-2.7546,-2.7088,-2.7271,-2.7065,-2.6629,-2.6539,-2.6844,-2.7422,-2.8253,-2.8572,-2.8811,-2.9791,-3.0096,0.0,-3.0261,-3.0311,-3.0344,-3.0435,-3.0526,-3.0526,-3.0526,-3.041,-3.0311,-3.0311,-3.0294,-3.0275,-3.0316,-3.0396,-3.0516,-3.0594,-2.9694,-2.9066,-2.9351,-2.9569,-2.98,-3.0237,-3.0487,-3.0462,-2.9948,-2.9923,-2.9641,-2.8874,-2.8319,-2.7885,-2.7574,-2.7007,-2.6674,-2.6674,-2.6693,-2.6853,-2.7163,-2.7404,-2.7592,-2.7758,-2.792,-2.8664,-2.9901,-2.8278,-2.881,0.0,0.0,0.0,0.0,0.0,0.0,0.0,0.0,0.0,0.0,0.0,-1.6941,0.0,0.0,-1.8663,-1.921,-2.0013,-2.0682,-2.09,-2.1176,-2.1308,-2.1043,-2.1247,-2.1608,-2.2149,-2.2678,-2.3087,-2.3364,-2.3857,-2.4145,-2.4145,-2.4725,-2.5398,-2.6049,-2.6801,-2.7575,-2.8358,-2.8916,-2.9213,-2.9376,-2.9233,-2.9145,-2.9145,-2.8826,-2.8681,-2.8666,-2.8347,-2.8202,-2.8158,-2.7667,-2.7372,-2.7269,-2.7745,-2.7731,-2.7476,-2.7701,-2.7596,-2.7365,-2.7565,-2.7971,-2.849,-2.906,-2.9388,-2.9723,-3.0327,-3.0526,-3.0526,-3.0526,-3.0526,-3.0526,-3.0526,-3.0526,-3.0526,-3.0526,-3.0526,-3.0526,-3.0526,-3.0609,-3.0733,-3.079,-3.0855,-3.0992,-3.1072,-3.0543,-3.0207,-3.0557,-3.0575,-3.0723,-3.1184,-3.1202,-3.1078,-3.0778,-3.0424,-3.0044,-2.9687,-2.8636,-2.8001,-2.8061,-2.7342,-2.6916,-2.6916,-2.6916,-2.7044,-2.7339,-2.7837,-2.8256,-2.855,-2.9467,-3.0356,-3.1197,-3.0723,-3.1263,0.0,0.0,0.0,0.0,0.0,0.0,0.0,0.0,-1.693,-1.7936,-1.7566,-1.7439,-1.8808,-1.9267,-1.9545,-1.9877,-2.0806,-2.1488,-2.1416,-2.186,-2.1968,-2.1608,-2.1644,-2.2041,-2.2907,-2.3171,-2.346,-2.3881,-2.4386,-2.4675,-2.4675,-2.5628,-2.6277,-2.6414,-2.7657,-2.8441,-2.8725,-2.9588,-3.0097,-3.0266,-2.9867,-2.9754,-2.9798,-2.9276,-2.9044,-2.9044,-2.8797,-2.8608,-2.8448,-2.8013,-2.76,-2.7233,-2.7423,-2.7575,-2.766,-2.8027,-2.8207,-2.8336,-2.8779,-2.9257,-2.9661,-2.975,-3.007,-3.0384,-3.0468,-3.0526,-3.0526,-3.0526,-3.0526,-3.0526,-3.0526,-3.0526,-3.0526,-3.0526,-3.0526,-3.0526,-3.051,-3.0651,-3.0773,-3.0912,-3.0975,-3.1055,-3.119,-3.1252,-3.1428,-3.175,-3.1551,-3.1535,-3.2146,-3.1891,-3.1652,-3.1616,-3.0925,-3.0325,-3.0107,-2.896,-2.8285,-2.8346,-2.7752,-2.7399,-2.7399,-2.7568,-2.7791,-2.8032,-2.8992,-2.9627,-2.9855,-3.1341,-3.2125,-3.2287,-3.2941,-3.3226,-1.8679,-1.8381,-1.8182,-1.8302,-1.8099,-1.8149,0.0,0.0,-1.8098,-1.9198,-1.9383,-1.9395,-1.9583,-2.0452,-2.1151,-2.1211,-2.1534,-2.1904,-2.2039,-2.2025,-2.1975,-2.2113,-2.2522,-2.2859,-2.2967,-2.3809,-2.4374,-2.4434,-2.4927,-2.5216,-2.5216,-2.5346,-2.5721,-2.6346,-2.7217,-2.7934,-2.8492,-2.9421,-2.996,-3.0111,-3.0194,-3.0346,-3.0466,-3.0393,-3.0364,-3.0292,-2.9174,-2.8361,-2.7781,-2.7195,-2.7047,-2.7181,-2.7233,-2.7372,-2.7625,-2.766,-2.7929,-2.8304,-2.8384,-2.8732,-2.9257,-2.9661,-2.9853,-2.9941,-3.0384,-3.0526,-3.0526,-3.0526,-3.0526,-3.0526,-3.0526,-3.0526,-3.0526,-3.0526,-3.0526,-3.051,-3.0651,-3.0773,-3.0912,-3.0975,-3.1112,-3.119,-3.119,-3.1466,-3.1787,-3.2162,-3.2195,-3.2462,-3.323,-3.333,-3.3086,-3.2454,-3.1701,-3.0735,-2.9437,-2.9163,-2.9114,-2.9237,-2.9184,-2.9128,-2.9128,-2.9981,-3.0508,-3.0682,-3.1771,-3.241,-3.2563,-3.2817,-3.3321,-3.4017,-3.4044,-3.4077,-1.8422,-1.8467,-1.8464,0.0,-1.8688,-1.8811,-1.9162,-1.8686,-1.8355,-1.9066,-1.9258,-1.9499,-2.0092,-2.0788,-2.1319,0.0,-2.2044,-2.2282,-2.1922,-2.2261,-2.2408,-2.2097,-2.2591,-2.3099,-2.3412,-2.3833,-2.4338,-2.4927,-2.518,-2.5312,-2.5312,-2.5312,-2.5652,-2.6346,-2.7149,-2.7802,-2.8492,-2.9498,-3.0036,-3.0111,-3.0341,-3.0507,-3.0568,-3.0568,-3.0568,-3.0539,-3.0016,-2.9421,-2.8811,-2.8732,-2.8326,-2.7727,-2.7966,-2.7816,-2.7625,-2.7625,-2.771,-2.7894,-2.7894,-2.8222,-2.8732,-2.9212,-2.9572,-2.9897,-3.0342,-3.0526,-3.0526,-3.0526,-3.0526,-3.0526,-3.0526,-3.0526,-3.0526,-3.0526,-3.0568,-3.0651,-3.0692,-3.0814,-3.0992,-3.0975,-3.1112,-3.119,-3.119,-3.1487,-3.1823,-3.2248,-3.2468,-3.2844,-3.3473,-3.3577,-3.3323,-3.2627,-3.1854,-3.0974,-2.9991,-2.9477,-2.9262,-2.9386,-2.9853,-3.0113,-3.0113,-3.1068,-3.1657,-3.1805,-3.2462,-3.2839,-3.294,-3.352,-3.3967,-3.4311,-3.4757,-3.522,-1.8291,-1.849,0.0,-1.8779,-1.9075,-1.9319,-1.9266,-1.876,-1.8459,-1.9092,-1.9074,-1.9275,-2.0157,-2.0759,-2.1197,-2.1455,-2.198,-2.2145,-2.1731,-2.2226,-2.2492,-2.2047,-2.2459,-2.3027,-2.3701,-2.3893,-2.435,-2.524,-2.5312,-2.5312,-2.5312,-2.5312,-2.5511,-2.607,-2.6812,-2.7537,-2.8247,-2.9247,-2.9851,-3.0111,-3.0401,-3.0568,-3.0568,-3.0568,-3.0568,-3.0568,-3.0379,-3.0045,-2.961,-2.9737,-2.9219,-2.8405,-2.8687,-2.8562,-2.815,-2.7919,-2.779,-2.7625,-2.776,-2.8027,-2.84,-2.8935,-2.9393,-2.9837,-3.0199,-3.0384,-3.0526,-3.0526,-3.0526,-3.0526,-3.0526,-3.0526,-3.0526,-3.0568,-3.0609,-3.0733,-3.0773,-3.0895,-3.1015,-3.1072,-3.1151,-3.119,-3.119,-3.1562,-3.1967,-3.2248,-3.2716,-3.3142,-3.353,-3.3615,-3.3387,-3.268,-3.2107,-3.1477,-3.078,-3.0216,-2.995,-3.0036,-3.0615,-3.0931,-3.0931,-3.1933,-3.2543,-3.2656,-3.3253,-3.359,-3.3615,-3.4318,-3.465,-3.4641,-3.5464,-3.615,-1.8344,0.0,-1.8639,-1.8845,-1.9131,-1.9511,-1.995,-1.9157,-1.8608,-1.9723,-1.9423,-1.9114,-1.9555,-2.0451,-2.1002,-2.0598,-2.1071,-2.1458,-2.1472,-2.162,-2.1847,-2.2135,-2.2209,-2.263,0.0,-2.4206,-2.4723,-2.5264,-2.5312,-2.5312,-2.5312,-2.5312,-2.5312,-2.53,-2.607,-2.6824,-2.755,-2.8403,-2.9261,-3.0111,-3.0266,-3.0387,-3.0568,-3.0568,-3.0568,-3.0539,-2.9914,-2.9639,-2.9581,-2.9112,-2.8987,-2.9083,-2.9317,-2.9426,-2.9445,-2.8801,-2.8143,-2.7675,-2.811,-2.8304,-2.84,-2.8935,-2.9393,-2.9793,-2.981,-3.0113,-3.0526,-3.0526,-3.0526,-3.0526,-3.0526,-3.0526,-3.051,-3.0651,-3.0692,-3.0733,-3.0935,-3.0975,-3.1015,-3.1151,-3.119,-3.119,-3.119,-3.1804,-3.2283,-3.2317,-3.2957,-3.3491,-3.3605,-3.3726,-3.3495,-3.2706,-3.2647,-3.2373,-3.161,-3.1589,-3.164,-3.1708,-3.1745,-3.1745,-3.1745,-3.2919,-3.3562,-3.3562,-3.4841,-3.5483,-3.5406,-3.5502,-3.5521,-3.5477,-3.629,-3.668,-1.8718,0.0,-1.9232,-1.9081,-1.9038,-1.8921,-1.8647,-1.8453,-1.8354,-1.8301,-1.8609,-1.8792,-1.8522,-1.9068,-1.9577,-1.9695,-2.0831,-2.1655,-2.1493,-2.2479,-2.3152,-2.2864,-2.2959,0.0,0.0,0.0,0.0,-2.5252,-2.5312,-2.5312,-2.5312,-2.5312,-2.5511,-2.6,-2.6277,-2.6934,-2.8182,-2.8597,-2.9261,-3.0111,-3.0401,-3.0507,-3.0568,-3.0568,-3.0568,-3.0568,-3.035,-3.0308,-3.0367,-3.0382,-3.0159,-2.9915,-3.0082,-2.9615,-2.8951,-2.9175,-2.8831,-2.824,-2.7961,-2.8147,-2.85,-2.8554,-2.8997,-2.9533,-2.9717,-2.9897,-3.0113,-3.0426,-3.0526,-3.0526,-3.0526,-3.0568,-3.0651,-3.0692,-3.0814,-3.0935,-3.0975,-3.1072,-3.1151,-3.119,-3.119,-3.119,-3.119,-3.1804,-3.2519,-3.3081,-3.3397,-3.3605,-3.3661,-3.3753,-3.3697,-3.344,-3.2978,-3.2631,-3.2428,-3.1959,-3.1714,-3.1801,-3.2284,-3.26,-3.26,-3.3804,-3.4453,-3.4453,-3.5177,-3.5515,-3.5515,-3.6093,-3.6382,-3.6388,-3.7194,-3.7873,-1.9236,-1.9294,-1.9282,-1.9148,-1.886,-1.8498,-1.8064,-1.7932,-1.7801,-1.7376,-1.7497,-1.7577,-1.7118,-1.7456,-1.7997,-1.8459,-1.9751,-2.0719,-2.0902,-2.1958,-2.2637,-2.232,-2.2775,-2.3335,0.0,0.0,0.0,-2.5252,-2.5312,-2.5312,-2.5312,-2.5312,-2.5511,-2.6,-2.6,-2.6595,-2.7723,-2.826,-2.9107,-3.028,-3.0522,-3.0568,-3.0568,-3.0568,-3.0568,-3.0568,-3.0568,-3.0702,-3.0821,-3.1014,-3.0939,-3.0654,-3.081,-3.0372,-2.9669,-2.9849,-2.9639,-2.919,-2.8517,-2.8577,-2.8884,-2.8536,-2.8797,-2.9326,-2.9264,-2.9512,-2.9837,-3.0156,-3.0384,-3.051,-3.0568,-3.0651,-3.0733,-3.0773,-3.0895,-3.1015,-3.1055,-3.1151,-3.119,-3.119,-3.119,-3.119,-3.119,-3.1841,-3.2601,-3.3473,-3.3633,-3.3643,-3.3726,-3.378,-3.3807,-3.3807,-3.3408,-3.3172,-3.3241,-3.2834,-3.2609,-3.2637,-3.3138,-3.3417,-3.3417,-3.4388,-3.4889,-3.4889,-3.5311,-3.5669,-3.5965,-3.6537,-3.6947,-3.7247,-3.808,-3.8757,-1.979,-1.9451,-1.8871,-1.9038,-1.8683,-1.826,-1.8137,-1.7518,-1.6979,-1.7015,-1.6309,-1.5594,0.0,0.0,-1.6265,-1.7021,-1.7855,-1.8757,-1.9841,-2.0327,-2.0655,0.0,0.0,0.0,0.0,0.0,0.0,-2.5312,0.0,-2.5312,-2.5312,-2.5312,-2.5312,-2.5312,-2.5312,-2.5652,-2.6414,-2.7524,-2.8889,-3.0507,-3.0568,-3.0568,-3.0568,-3.0568,-3.0568,-3.0568,-3.0568,-3.0702,-3.0821,-3.1014,-3.119,-3.1351,-3.1467,-3.1452,-3.1347,-3.0791,-3.0537,-3.0417,-2.9864,-2.9654,-2.952,-2.8861,-2.8949,-2.9219,-2.8611,-2.906,-2.9819,-2.9907,-3.0195,-3.0576,-3.0717,-3.0725,-3.0773,-3.0935,-3.1015,-3.1072,-3.119,-3.119,-3.1207,-3.1241,-3.1275,-3.1348,-3.137,-3.1982,-3.2737,-3.3528,-3.3707,-3.3726,-3.3788,-3.3807,-3.3807,-3.3807,-3.3921,-3.3998,-3.3998,-3.4124,-3.4197,-3.4197,-3.4197,-3.4197,-3.4197,-3.4651,-3.4889,-3.4906,-3.5393,-3.6042,-3.6799,-3.6897,-3.7327,-3.8084,-3.895,-3.9354,-1.981,-1.9644,-1.9343,-1.8779,-1.8425,-1.802,-1.7273,-1.6876,-1.6527,-1.5892,-1.5375,-1.4849,0.0,0.0,0.0,-1.5935,-1.7523,0.0,-1.9791,-2.0802,0.0,-2.1681,0.0,-2.3296,-2.3936,-2.49,0.0,0.0,-2.5469,-2.5312,-2.5312,-2.5312,-2.5312,-2.5312,-2.5312,-2.5652,-2.6414,-2.7973,-2.8939,-2.9393,-3.0237,-3.0568,-3.0568,-3.0568,-3.0568,-3.0568,-3.0568,-3.0762,-3.1014,-3.1087,-3.1249,-3.1467,-3.1482,-3.1168,-3.0806,-3.115,-3.0941,-3.0552,-3.0911,-3.0702,-3.0163,-2.9535,-2.9748,-3.0135,-2.9889,-2.9979,-3.0329,-3.1148,-3.1083,-3.0898,-3.1381,-3.1232,-3.0935,-3.0975,-3.1072,-3.1151,-3.119,-3.119,-3.136,-3.1901,-3.2459,-3.3059,-3.3711,-3.3512,-3.3568,-3.4444,-3.411,-3.378,-3.3807,-3.3807,-3.3807,-3.3807,-3.3921,-3.3998,-3.3998,-3.4124,-3.4197,-3.4197,-3.4197,-3.4197,-3.4197,-3.4651,-3.4889,-3.4906,-3.594,-3.6594,-3.6799,-3.8045,-3.8763,-3.8988,-3.9796,-4.0181,-2.0004,-1.9691,-1.9281,-1.8472,-1.795,-1.7424,-1.6455,-1.6133,-1.5762,-1.4913,-1.4406,0.0,-1.3343,-1.3428,0.0,0.0,0.0,0.0,-1.9193,-2.011,-2.076,0.0,-2.1659,0.0,-2.3253,-2.4186,-2.502,0.0,-2.5553,-2.5552,-2.5324,-2.5312,-2.5312,-2.5312,-2.5312,-2.5652,-2.6458,-2.7841,-2.8748,-2.9142,-3.0115,-3.0568,-3.0568,-3.0568,-3.0568,-3.0568,0.0,-3.0762,-3.1087,-3.1087,-3.1249,-3.1482,-3.1482,-3.13,-3.1001,-3.1332,-3.1228,-3.1001,-3.1405,-3.1285,-3.0851,-3.0193,-3.0223,-3.0443,-3.0122,-3.0158,-3.0541,-3.1421,-3.1577,-3.1569,-3.1857,-3.1724,-3.1486,-3.1584,-3.1624,-3.1664,-3.1664,-3.1935,-3.229,-3.2696,-3.3119,-3.3622,-3.4324,-3.3952,-3.3837,-3.4576,-3.4182,-3.3807,-3.3807,-3.3807,-3.3807,-3.3842,-3.3947,-3.4023,-3.4049,-3.4148,-3.4197,-3.4197,-3.4197,-3.4197,-3.4197,-3.4651,-3.4889,-3.4906,-3.6147,-3.696,-3.7332,-3.8676,-3.9509,-3.9835,-4.0277,-4.0489,-2.0193,-1.963,-1.8893,-1.8025,-1.7462,-1.6829,-1.5856,-1.5414,-1.4971,-1.4165,0.0,-1.2987,-1.252,-1.2406,-1.2978,-1.4702,0.0,-1.6591,-1.8327,-1.8893,-1.9237,-1.9292,-2.0148,-2.1088,-2.1818,-2.2948,-2.3931,-2.4848,-2.5624,-2.5877,-2.5336,-2.5312,-2.5312,-2.5312,-2.5312,-2.5627,-2.6433,-2.7378,-2.8247,-2.9107,-3.0068,-3.0507,-3.0568,-3.0568,-3.0568,-3.0568,0.0,0.0,-3.1087,-3.1132,-3.1249,-3.1482,-3.1482,-3.1482,-3.1482,-3.1482,-3.1482,-3.1482,-3.1482,-3.1482,-3.1377,-3.0836,-3.0642,-3.0537,-2.9998,-3.0236,-3.0768,-3.1331,-3.1871,-3.2256,-3.2293,-3.2228,-3.2202,-3.2384,-3.2425,-3.2425,-3.2425,-3.3017,-3.3541,-3.3558,-3.3626,-3.3853,-3.4224,-3.3983,-3.3878,-3.4353,-3.404,-3.3734,-3.3788,-3.3807,-3.3834,-3.3895,-3.3947,-3.4023,-3.4099,-3.4173,-3.4197,-3.4197,-3.4197,-3.4197,-3.4197,-3.4628,-3.4927,-3.5077,-3.63,-3.7327,-3.818,-3.9113,-3.987,-4.0489,-4.0489,-4.0489,-1.9753,-1.9155,-1.845,-1.7598,-1.7486,-1.7275,-1.6061,-1.5256,0.0,0.0,-1.318,-1.252,-1.2224,-1.2346,-1.2878,-1.4031,-1.4836,-1.5963,0.0,0.0,-1.8761,0.0,0.0,0.0,0.0,0.0,0.0,0.0,0.0,-2.5672,-2.5336,-2.5312,-2.5312,-2.5312,-2.5312,-2.537,-2.5499,-2.6582,-2.7458,-2.8247,-2.9296,-3.0068,-3.0568,-3.0568,-3.0568,-3.0628,-3.0702,0.0,-3.1087,-3.1234,-3.1351,-3.1482,-3.1482,-3.1482,-3.1482,-3.1482,-3.1482,-3.1482,-3.1482,-3.1482,-3.1452,-3.1332,-3.136,-3.1345,-3.1225,-3.1366,-3.1703,-3.2245,-3.2196,-3.2167,-3.3053,-3.2911,-3.2613,-3.3119,-3.322,-3.322,-3.322,-3.3778,-3.4346,-3.4449,-3.4958,-3.5378,-3.5344,-3.4749,-3.4305,-3.4465,-3.3857,-3.3494,-3.3762,-3.3807,-3.3834,-3.3895,-3.3947,-3.4023,-3.4099,-3.4173,-3.4197,-3.4197,-3.4197,-3.4197,-3.4197,-3.4476,-3.5073,-3.597,-3.7053,-3.8108,-3.9085,-3.9957,-4.0429,-4.0489,-4.0489,-4.0489,-1.9507,-1.8831,-1.8094,-1.7242,-1.6961,-1.6554,-1.5357,0.0,0.0,0.0,-1.2754,-1.2274,-1.2126,-1.2193,0.0,-1.3283,-1.4012,-1.5127,-1.6839,-1.7385,0.0,0.0,0.0,0.0,0.0,0.0,0.0,0.0,0.0,-2.4772,-2.5194,-2.5241,-2.5312,-2.5312,-2.5312,-2.5382,-2.5465,-2.6389,-2.7124,-2.7604,-2.8967,-2.9747,-3.0068,-3.0447,-3.0568,-3.0628,-3.0762,0.0,-3.1132,-3.1234,-3.1409,-3.1482,-3.1482,-3.1482,-3.1482,-3.1482,-3.1482,-3.148,-3.1192,-3.1057,-3.1069,-3.0794,-3.114,-3.167,-3.167,-3.1826,-3.215,-3.2641,-3.2924,-3.3088,-3.3479,-3.3611,-3.3644,-3.3921,-3.3964,-3.4083,-3.4472,-3.4523,-3.4651,-3.5145,-3.5579,-3.5693,-3.5348,-3.4941,-3.4695,-3.4835,-3.4492,-3.4246,-3.4403,-3.4495,-3.4383,-3.4002,-3.3972,-3.4049,-3.4148,-3.4173,-3.4197,-3.4197,-3.4197,-3.4197,-3.4197,-3.4473,-3.5087,-3.6141,-3.7196,-3.8258,-3.9307,-4.0174,-4.0579,-4.0489,-4.0539,-4.0539,-1.9258,-1.8525,-1.7827,-1.6993,-1.6514,-1.5896,-1.4674,-1.4093,0.0,-1.292,-1.2323,-1.1909,-1.1968,-1.1713,-1.1752,0.0,-1.3021,-1.4001,-1.573,-1.6492,-1.7261,0.0,0.0,0.0,0.0,0.0,0.0,0.0,0.0,0.0,-2.5111,-2.5241,-2.5312,-2.5312,-2.5312,-2.5382,-2.5535,-2.6264,-2.6812,-2.7149,-2.8397,-2.9094,-2.9359,-2.9925,-3.0257,-3.0447,-3.0762,0.0,0.0,-3.1292,-3.1409,-3.1482,-3.1482,-3.1482,-3.1482,-3.1482,-3.1377,-3.1255,-3.0979,-3.0719,-3.0488,-3.0219,-3.0824,-3.163,-3.163,-3.1875,-3.2287,-3.2841,-3.3407,-3.384,-3.3917,-3.4246,-3.4577,-3.4726,-3.4742,-3.4955,-3.5504,-3.5193,-3.5043,-3.5742,-3.5725,-3.5454,-3.4895,-3.4658,-3.4641,-3.4902,-3.4914,-3.4934,-3.5037,-3.5129,-3.4897,-3.4116,-3.4023,-3.4074,-3.4197,-3.4197,-3.4197,-3.4197,-3.4197,-3.4197,-3.4197,-3.4573,-3.5286,-3.6349,-3.7393,-3.8446,-3.9546,-4.027,-4.0579,-4.0523,-4.0588,-4.0569,-1.8936,-1.8344,-1.7666,-1.6964,-1.671,-1.6225,-1.4663,0.0,-1.3647,-1.2569,-1.1801,-1.1334,-1.1519,-1.0718,-1.0325,-1.1368,0.0,-1.2466,-1.4402,-1.5589,-1.6719,-1.7976,0.0,0.0,0.0,0.0,0.0,0.0,0.0,0.0,-2.5241,-2.5312,-2.5312,-2.5312,-2.5312,-2.5312,-2.5312,-2.5746,-2.6289,-2.6921,-2.6935,-2.7544,-2.8607,-2.8786,-2.9209,-2.9931,-3.0702,0.0,0.0,-3.1424,-3.1482,-3.1482,-3.1482,-3.1482,-3.1482,-3.1482,-3.1135,-3.0672,-3.124,-3.0728,-2.9991,-3.0488,-3.08,-3.1086,-3.1086,-3.1607,-3.2287,-3.2841,-3.3145,-3.3479,-3.443,-3.4733,-3.4875,-3.5369,-3.5565,-3.5688,-3.5756,-3.5837,-3.5933,-3.6122,-3.5557,-3.4878,-3.4278,-3.3833,-3.3688,-3.4064,-3.4348,-3.4695,-3.5147,-3.5174,-3.4924,-3.4166,-3.4099,-3.4124,-3.4197,-3.4197,-3.4197,-3.4197,-3.4197,-3.4197,-3.4197,-3.4965,-3.5993,-3.726,-3.8155,-3.9203,-4.0392,-4.054,-4.0612,-4.0588,-4.0612,-4.0598,-1.9022,-1.8486,-1.7801,-1.6993,-1.6441,-1.562,-1.4043,0.0,-1.2851,-1.1434,-1.0922,-1.0618,-1.0379,-0.9865,-0.9575,-0.9989,-1.0307,-1.102,-1.2476,-1.3453,-1.4612,0.0,0.0,0.0,0.0,0.0,0.0,0.0,0.0,0.0,-2.4169,-2.4905,-2.5312,-2.5312,-2.5312,-2.5382,-2.5465,-2.5606,-2.5783,-2.5912,-2.6348,-2.6804,-2.7466,-2.8304,-2.9106,-2.987,-3.0702,0.0,0.0,-3.1409,-3.1228,-3.0956,-3.1317,-3.1046,-3.0402,-3.0776,-3.0507,-2.9978,-2.9967,-2.9697,-2.9334,-2.9337,-2.9892,-3.0693,-3.1021,-3.1656,-3.2342,-3.2602,-3.3161,-3.3767,-3.4235,-3.4769,-3.5379,-3.5667,-3.5773,-3.5817,-3.5888,-3.5975,-3.6019,-3.6165,-3.5925,-3.5366,-3.43,-3.4684,-3.5066,-3.4757,-3.5253,-3.5713,-3.5892,-3.5569,-3.5003,-3.4191,-3.4099,-3.4124,-3.4197,-3.4197,-3.4197,-3.4197,-3.4197,-3.4197,-3.4197,-3.4531,-3.5264,-3.6411,-3.7409,-3.8461,-3.9591,-4.0273,-4.0603,-4.0607,-4.0593,-4.0607,-1.8875,-1.8369,-1.7626,-1.6672,-1.5728,-1.4699,-1.3192,-1.2454,-1.1738,-1.0399,-0.9894,-0.9636,-0.9392,-0.8862,-0.8488,-0.8593,-0.899,-0.9665,-1.0865,-1.1844,-1.3124,0.0,0.0,0.0,0.0,0.0,0.0,0.0,0.0,0.0,0.0,-2.4241,-2.4845,-2.5071,-2.5071,-2.5226,-2.5535,-2.5606,-2.5558,-2.5222,-2.5711,-2.6013,-2.6194,-2.7128,-2.8219,-2.9402,0.0,0.0,0.0,-3.1168,-3.0836,-3.0283,-3.0761,-3.0387,-2.9639,-3.0128,-2.9888,-2.9357,-2.9297,-2.9037,-2.8758,-2.8682,-2.93,-3.0161,-3.0569,-3.1497,-3.2437,-3.2586,-3.3407,-3.4235,-3.4235,-3.4927,-3.5622,-3.5773,-3.5817,-3.5905,-3.6019,-3.6062,-3.6105,-3.6208,-3.5889,-3.5253,-3.4266,-3.4761,-3.522,-3.4914,-3.5551,-3.6076,-3.6104,-3.5687,-3.508,-3.4216,-3.4124,-3.4148,-3.4197,-3.4197,-3.4197,-3.4197,-3.4197,-3.4221,-3.4245,-3.4487,-3.5138,-3.6236,-3.7255,-3.827,-3.9354,-4.0172,-4.0573,-4.0573,-4.0626,-4.0654,-1.8229,-1.7814,-1.705,-1.5896,-1.4722,-1.346,-1.2143,-1.1148,-1.0335,-0.9577,-0.8698,-0.8224,-0.8626,-0.7581,-0.6799,-0.7267,-0.7692,-0.8435,-0.974,-1.1213,0.0,0.0,0.0,0.0,0.0,0.0,0.0,0.0,0.0,0.0,0.0,-2.3427,-2.38,-2.4506,-2.453,-2.4783,-2.53,-2.5688,-2.564,-2.5099,-2.4888,-2.4833,-2.4808,-2.4965,-2.621,0.0,0.0,0.0,0.0,-3.0507,-3.0148,-2.9594,-2.9609,-2.9594,-2.9633,-2.9771,-2.9388,-2.8943,-2.9713,-2.923,-2.8308,-2.8966,-2.9296,-2.9427,-2.9443,-3.0812,-3.2492,-3.3039,-3.3953,-3.4769,-3.4769,-3.5178,-3.5622,-3.5773,-3.5905,-3.6019,-3.6182,-3.6233,-3.6301,-3.6301,-3.5111,-3.4111,-3.4093,-3.3424,-3.319,-3.3978,-3.479,-3.5328,-3.5406,-3.5388,-3.508,-3.429,-3.4197,-3.4197,-3.4197,-3.4197,-3.4197,-3.4197,-3.4197,-3.4269,-3.4386,-3.517,-3.616,-3.7354,-3.8188,-3.9105,-4.0177,-4.0408,-4.0489,-4.0504,-4.0706,-4.0759,-1.6184,-1.59,-1.5459,-1.3497,-1.2606,-1.1819,-1.0404,-0.9826,-0.9172,-0.7794,-0.7534,-0.7422,-0.7052,-0.6632,-0.642,-0.6733,-0.7094,-0.7589,0.0,0.0,0.0,0.0,0.0,0.0,0.0,0.0,0.0,0.0,0.0,0.0,0.0,-2.2028,-2.3048,-2.4482,-2.4518,-2.4771,-2.53,-2.5172,-2.4927,-2.4455,-2.4186,-2.4129,-2.4255,-2.4771,0.0,0.0,0.0,0.0,0.0,-2.9864,-2.949,-2.8951,-2.9522,-2.92,-2.8432,-2.9055,-2.8849,-2.8303,-2.8652,-2.8503,-2.8266,-2.8544,-2.8978,-2.9412,-2.9412,-3.0489,-3.189,-3.2914,-3.363,-3.4168,-3.4785,-3.5224,-3.5577,-3.5993,-3.6096,-3.6165,-3.6233,-3.6301,-3.6301,-3.6301,-3.5508,-3.4703,-3.4324,-3.4251,-3.426,-3.4317,-3.4754,-3.5174,-3.5388,-3.4921,-3.4488,-3.4234,-3.4197,-3.4197,-3.4197,-3.4197,-3.4197,-3.4197,-3.4293,-3.434,-3.4404,-3.5263,-3.5938,-3.6293,-3.786,-3.8836,-3.9182,-3.9928,-4.0375,-4.0504,-4.0564,-4.0654,-1.3915,-1.4176,-1.3991,-1.1314,-1.0319,-0.9655,-0.8612,-0.8016,-0.7351,-0.6308,-0.6308,-0.6303,-0.5882,-0.5719,-0.5758,-0.588,-0.6178,-0.6724,0.0,0.0,0.0,0.0,0.0,0.0,0.0,0.0,0.0,0.0,0.0,0.0,0.0,-2.1285,-2.2472,-2.3759,-2.3862,-2.4194,-2.4723,-2.4614,-2.431,-2.3904,-2.3763,-2.3679,-2.3678,-2.4201,0.0,0.0,0.0,0.0,0.0,-2.9152,-2.8816,-2.8248,-2.8771,-2.8478,-2.7821,-2.8152,-2.8191,-2.8057,-2.7959,-2.8084,-2.8299,-2.8348,-2.8688,-2.9089,-2.9335,-3.0335,-3.1628,-3.26,-3.3371,-3.4002,-3.456,-3.5161,-3.5694,-3.6122,-3.6225,-3.6139,-3.5956,-3.6094,-3.6146,-3.5576,-3.5157,-3.4649,-3.3984,-3.4058,-3.4148,-3.3996,-3.4327,-3.4676,-3.4914,-3.4507,-3.4197,-3.4197,-3.4245,-3.4269,-3.4269,-3.4269,-3.4269,-3.4269,-3.4386,-3.4495,-3.4539,-3.5396,-3.6045,-3.6408,-3.7917,-3.8852,-3.9155,-3.9833,-4.0251,-4.0422,-4.0415,-4.053,0.0,-1.2093,-1.2195,-0.9217,-0.785,-0.7175,-0.6727,-0.5896,0.0,-0.5222,-0.512,-0.5069,-0.5014,-0.4956,-0.4904,-0.4912,-0.5144,0.0,0.0,0.0,0.0,0.0,0.0,0.0,0.0,0.0,0.0,0.0,0.0,0.0,0.0,-2.1094,-2.191,-2.2638,-2.2791,-2.3195,-2.3761,-2.3923,-2.3786,-2.3489,-2.3629,-2.3455,-2.3138,-2.333,0.0,0.0,0.0,0.0,0.0,-2.824,-2.8092,-2.7625,-2.7625,-2.7675,-2.778,-2.7258,-2.754,-2.8082,-2.7564,-2.7811,-2.835,-2.8381,-2.8396,-2.8535,-2.9212,-3.0356,-3.1512,-3.2175,-3.3255,-3.4235,-3.4284,-3.5094,-3.5933,-3.6079,-3.6105,-3.5864,-3.5266,-3.5663,-3.5773,-3.4392,-3.4185,-3.4042,-3.3345,-3.3101,-3.3037,-3.3291,-3.3634,-3.3947,-3.4173,-3.4197,-3.4221,-3.4221,-3.434,-3.4409,-3.4409,-3.4409,-3.4409,-3.4409,-3.4539,-3.4666,-3.4788,-3.5639,-3.6493,-3.7371,-3.83,-3.9153,-3.9889,-4.002,-4.0139,-4.0283,-4.0283,-4.0367,-0.5144,0.0,-0.6683,-0.5367,-0.5176,-0.5237,0.0,-0.4869,-0.4588,-0.4381,-0.4463,-0.4574,-0.4467,-0.4519,-0.4664,-0.4951,-0.5137,-0.5704,0.0,0.0,0.0,0.0,0.0,0.0,0.0,0.0,0.0,0.0,0.0,0.0,0.0,-2.0226,-2.1076,-2.1938,-2.2052,-2.2695,-2.3761,-2.3689,-2.3548,-2.3489,-2.3294,-2.3203,-2.3138,-2.333,0.0,0.0,0.0,0.0,-2.6953,-2.7059,-2.7351,-2.7625,-2.784,-2.7905,-2.794,-2.8033,-2.7887,-2.7564,-2.7442,-2.7503,-2.7719,-2.8242,-2.8477,-2.8729,-2.9508,-3.0285,-3.1165,-3.2116,-3.3315,-3.4415,-3.4988,-3.5026,-3.5028,-3.5373,-3.4984,-3.4559,-3.4387,-3.4575,-3.4675,-3.4328,-3.3958,-3.3686,-3.3653,-3.3119,-3.288,-3.3444,-3.3615,-3.3807,-3.4148,-3.4293,-3.434,-3.434,-3.4473,-3.4539,-3.4539,-3.4539,-3.4539,-3.4539,-3.4666,-3.4768,-3.4788,-3.6249,-3.7162,-3.739,-3.8869,-3.9721,-3.9889,-3.9914,-4.002,-4.0158,-4.0158,-4.0212,-0.266,-0.3018,-0.3929,-0.2756,-0.2759,-0.3114,-0.3508,-0.3638,-0.3661,-0.3619,0.0,0.0,0.0,0.0,0.0,0.0,-0.4637,0.0,0.0,0.0,0.0,0.0,0.0,0.0,0.0,0.0,0.0,0.0,0.0,0.0,0.0,-1.9694,-2.0624,-2.1146,-2.1675,-2.2273,-2.3039,-2.3016,-2.3045,-2.3108,-2.3045,-2.309,-2.3258,-2.339,-2.3592,0.0,0.0,0.0,-2.5492,-2.5785,-2.6253,-2.6774,-2.6998,-2.7142,-2.7144,-2.6964,-2.6903,-2.6888,-2.6549,-2.6948,-2.7674,-2.8309,-2.87,-2.8952,-2.9359,-3.0036,-3.0875,-3.1607,-3.2611,-3.3606,-3.3989,-3.4235,-3.4425,-3.4725,-3.4493,-3.4112,-3.3897,-3.4147,-3.4222,-3.3506,-3.3511,-3.3547,-3.328,-3.3054,-3.305,-3.3578,-3.3762,-3.3972,-3.434,-3.445,-3.4495,-3.4495,-3.4623,-3.4687,-3.4687,-3.471,-3.471,-3.4687,-3.479,-3.4849,-3.4849,-3.6499,-3.775,-3.8527,-3.9456,-3.9889,-3.9889,-3.9889,-3.9954,-4.0,-4.0,-4.0081,-0.1366,-0.1936,-0.1994,-0.0817,-0.0694,-0.1043,-0.1877,0.0,0.0,0.0,0.0,0.0,0.0,-0.3485,0.0,0.0,0.0,0.0,0.0,0.0,0.0,0.0,0.0,0.0,0.0,0.0,0.0,0.0,0.0,0.0,0.0,-1.9166,-2.0085,-2.0398,-2.1262,-2.18,-2.1987,-2.2297,-2.2482,-2.269,-2.286,-2.3053,-2.3263,-2.3382,-2.3238,0.0,0.0,0.0,-2.396,-2.4546,-2.5158,-2.577,-2.5909,-2.6047,-2.6107,-2.5511,-2.5691,-2.6134,-2.5577,-2.6311,-2.7671,-2.8358,-2.8841,-2.9167,-2.9167,-2.978,-3.0542,-3.0847,-3.172,-3.2613,-3.2702,-3.3313,-3.3926,-3.4106,-3.4039,-3.387,-3.3387,-3.3845,-3.3898,-3.2616,-3.3053,-3.3454,-3.2745,-3.2943,-3.3321,-3.3652,-3.391,-3.4221,-3.4517,-3.4602,-3.4623,-3.4623,-3.4728,-3.4809,-3.4809,-3.4888,-3.487,-3.4829,-3.487,-3.4965,-3.5097,-3.6576,-3.813,-3.9702,-3.9854,-3.9889,-3.9889,-3.9889,-3.9889,-3.9889,-3.9889,-3.9956,0.2117,0.263,0.207,0.0919,0.0447,0.0206,0.0,-0.0747,0.0,0.0,0.0,0.0,0.0,-0.3263,0.0,0.0,0.0,0.0,0.0,0.0,0.0,0.0,0.0,0.0,0.0,0.0,0.0,0.0,0.0,0.0,0.0,-1.7969,-1.8566,-1.9497,-2.0344,-2.0921,-2.1123,-2.1963,-2.2482,-2.269,-2.286,-2.284,-2.2655,-2.2853,-2.266,0.0,0.0,-2.3031,-2.3654,-2.3756,-2.4461,-2.5458,-2.5631,-2.5879,-2.6214,-2.6212,-2.5903,-2.5472,-2.561,-2.6162,-2.6998,-2.7834,-2.869,-2.9425,-2.9425,-2.9701,-3.0008,-3.0061,-3.125,-3.2663,-3.3271,-3.3185,-3.2982,-3.3286,-3.2982,-3.2564,-3.2494,-3.2702,-3.2855,-3.2608,-3.2811,-3.2995,-3.287,-3.3055,-3.3309,-3.3587,-3.3895,-3.4173,-3.4386,-3.4623,-3.4768,-3.4768,-3.4849,-3.4889,-3.4889,-3.4908,-3.4908,-3.4889,-3.4889,-3.523,-3.5969,-3.6898,-3.7864,-3.885,-3.9551,-3.9889,-3.9889,-3.9889,-3.9889,-3.9889,-3.9889,-3.9911,0.3122,0.3557,0.3404,0.2456,0.189,0.1495,0.1138,0.049,0.0,0.0,0.0,0.0,0.0,0.0,0.0,0.0,0.0,0.0,0.0,0.0,0.0,0.0,0.0,0.0,0.0,0.0,0.0,0.0,0.0,0.0,0.0,0.0,-1.7526,-1.848,-1.9676,-2.0586,-2.1167,-2.1956,-2.2482,-2.2678,-2.2611,-2.2619,-2.2655,-2.2519,-2.2179,-2.1797,0.0,-2.2345,-2.2622,-2.2804,-2.3383,-2.4205,-2.4507,-2.479,-2.5111,-2.5512,-2.5436,-2.5217,-2.5676,-2.6131,-2.6619,-2.7418,-2.8078,-2.8587,-2.9016,-2.9248,-2.9475,-2.9832,-3.0734,-3.1683,-3.2114,-3.2295,-3.2468,-3.2792,-3.265,-3.2488,-3.2606,-3.2705,-3.277,-3.277,-3.2852,-3.2916,-3.2948,-3.3165,-3.3426,-3.3752,-3.408,-3.4363,-3.4628,-3.4771,-3.4849,-3.4849,-3.4889,-3.4908,-3.4908,-3.4908,-3.4908,-3.4908,-3.4908,-3.5287,-3.6159,-3.6557,-3.7371,-3.8681,-3.9058,-3.9475,-3.9889,-3.9889,-3.9889,-3.9889,-3.9889,-3.9889,0.3394,0.3554,0.3767,0.3521,0.0,0.2627,0.2194,0.1637,0.0,0.0,0.0,0.0,0.0,0.0,0.0,0.0,0.0,0.0,0.0,0.0,0.0,0.0,0.0,0.0,0.0,0.0,0.0,0.0,0.0,0.0,0.0,0.0,-1.6553,-1.7286,-1.8808,-1.9878,-2.0639,-2.1536,-2.2165,-2.2481,-2.2346,-2.2356,-2.2373,-2.2047,-2.1705,-2.1315,-2.1559,-2.1695,-2.1746,-2.2049,-2.2526,-2.3127,-2.3566,-2.3994,-2.4369,-2.4846,-2.5005,-2.5084,-2.5663,-2.6054,-2.6382,-2.7057,-2.7582,-2.8118,-2.8695,-2.9046,-2.9391,-2.9913,-3.0294,-3.0627,-3.1033,-3.1545,-3.2073,-3.2506,-3.2639,-3.2705,-3.2884,-3.2916,-3.2916,-3.2916,-3.2916,-3.2948,-3.3011,-3.3244,-3.3559,-3.3917,-3.4227,-3.4539,-3.4831,-3.4889,-3.4908,-3.4908,-3.4908,-3.4908,-3.4908,-3.4927,-3.4927,-3.4927,-3.4908,-3.5192,-3.5874,-3.6083,-3.6784,-3.8073,-3.851,-3.9001,-3.9627,-3.9816,-3.9889,-3.9889,-3.9889,-3.9889,0.3609,0.3705,0.3767,0.3624,0.3556,0.3543,0.3598,0.2865,0.0,0.2179,0.0,0.0,0.0,0.0,0.0,0.0,0.0,0.0,0.0,0.0,0.0,0.0,0.0,0.0,0.0,0.0,0.0,0.0,0.0,0.0,0.0,0.0,0.0,-1.568,-1.7358,-1.8291,-1.8351,-2.0053,-2.1238,-2.1844,-2.216,-2.1895,-2.1232,-2.134,-2.116,-2.0764,-2.0951,-2.122,-2.1471,-2.1698,-2.2249,-2.2979,-2.3421,-2.4162,-2.4926,-2.4966,-2.5005,-2.5021,-2.5265,-2.5774,-2.6343,-2.6717,-2.7778,-2.8925,-2.905,-2.9583,-3.0123,-3.0172,-2.9947,-2.9928,-3.0992,-3.1397,-3.1735,-3.2437,-3.2737,-3.2884,-3.2884,-3.2916,-3.2916,-3.2979,-3.2979,-3.3011,-3.3086,-3.3316,-3.3605,-3.3868,-3.4197,-3.4495,-3.4768,-3.485,-3.4908,-3.4908,-3.4908,-3.4908,-3.4908,-3.4945,-3.5001,-3.5001,-3.4927,-3.4927,-3.4984,-3.5761,-3.6253,-3.6367,-3.7902,-3.8738,-3.8774,-3.9551,-3.9889,-3.9889,-3.9889,-3.9889,0.4,0.3877,0.3674,0.372,0.377,0.0,0.0,0.3587,0.3198,0.2745,0.1845,0.0,0.0,0.0,0.0,0.0,0.0,0.0,0.0,0.0,0.0,0.0,0.0,0.0,0.0,0.0,0.0,0.0,0.0,0.0,0.0,0.0,0.0,-1.5214,-1.6417,-1.7511,-1.8489,-1.9738,-2.0547,-2.0934,-2.1224,-2.1339,-2.1197,-2.0991,-2.0908,-2.0898,-2.1131,-2.1423,-2.1664,-2.1949,-2.2263,-2.2678,-2.3551,-2.4271,-2.4815,-2.5201,-2.5371,-2.541,-2.5492,-2.5729,-2.5956,-2.6178,-2.6608,-2.7169,-2.7617,-2.7984,-2.8369,-2.8812,-2.9071,-2.9563,-3.1035,-3.0934,-3.082,-3.2391,-3.2491,-3.2353,-3.284,-3.3011,-3.3024,-3.3073,-3.3055,-3.3104,-3.3214,-3.3433,-3.3726,-3.4049,-3.434,-3.4604,-3.4831,-3.4908,-3.4964,-3.4964,-3.5001,-3.502,-3.502,-3.5057,-3.5075,-3.5075,-3.5057,-3.502,-3.502,-3.5343,-3.5742,-3.6255,-3.7414,-3.8269,-3.8763,-3.9618,-4.0015,-4.0015,-4.0015,-4.0015,0.426,0.4041,0.378,0.3776,0.0,0.0,0.4132,0.4073,0.3909,0.3347,0.2684,0.0,0.0,0.0,0.0,0.0,0.0,0.0,0.0,0.0,0.0,0.0,0.0,0.0,0.0,0.0,0.0,0.0,0.0,0.0,0.0,0.0,0.0,0.0,-1.5536,-1.6746,-1.8035,-1.9101,-1.9841,-2.0282,-2.056,-2.0835,-2.103,-2.0794,-2.0799,-2.0997,-2.1277,-2.1568,-2.1888,-2.2137,-2.254,-2.3024,-2.3852,-2.4477,-2.4981,-2.5454,-2.5675,-2.5712,-2.5754,-2.5754,-2.5791,-2.5881,-2.6081,-2.6397,-2.6895,-2.7283,-2.7635,-2.8185,-2.8498,-2.9038,-3.0556,-3.0612,-3.0683,-3.2259,-3.2402,-3.236,-3.2916,-3.3073,-3.3117,-3.3165,-3.3165,-3.3226,-3.3422,-3.3605,-3.3868,-3.4274,-3.448,-3.4691,-3.4927,-3.5001,-3.502,-3.502,-3.5075,-3.5092,-3.5092,-3.5129,-3.5129,-3.5129,-3.5127,-3.5127,-3.5092,-3.5092,-3.5359,-3.5911,-3.6767,-3.7471,-3.8023,-3.8899,-3.945,-3.9698,-3.9738,-3.989,0.4405,0.4277,0.4157,0.0,0.0,0.0,0.4416,0.4329,0.4159,0.4094,0.0,0.2724,0.0201,0.0,0.0,0.0,0.0,0.0,0.0,0.0,0.0,0.0,0.0,0.0,0.0,0.0,0.0,0.0,0.0,0.0,0.0,0.0,0.0,0.0,-1.4669,-1.5813,-1.669,-1.7861,-1.898,-1.999,-2.036,-2.0511,-2.0511,-2.0662,-2.0799,-2.1033,-2.1277,-2.1616,-2.2044,-2.2278,-2.3068,-2.412,-2.4261,-2.4879,-2.5701,-2.5701,-2.5791,-2.5897,-2.5897,-2.5881,-2.5934,-2.599,-2.6521,-2.7151,-2.7337,-2.7927,-2.851,-2.8569,-2.8277,-2.8271,-2.9382,-3.0512,-3.1483,-3.1894,-3.2577,-3.3068,-3.3086,-3.3086,-3.3135,-3.3262,-3.3292,-3.3411,-3.3753,-3.3788,-3.3979,-3.4508,-3.4593,-3.4714,-3.5038,-3.5092,-3.5092,-3.5092,-3.5092,-3.5092,-3.5092,-3.5164,-3.52,-3.52,-3.5196,-3.516,-3.5092,-3.5092,-3.5092,-3.5092,-3.5892,-3.631,-3.631,-3.7186,-3.8023,-3.8784,-3.8931,-3.9391,0.5513,0.4995,0.0,0.4664,0.0,0.0,0.0,0.4505,0.0,0.0,0.3443,0.292,0.1609,0.0,0.0,0.0,0.0,0.0,0.0,0.0,0.0,0.0,0.0,0.0,0.0,0.0,0.0,0.0,0.0,0.0,0.0,0.0,0.0,0.0,-1.3863,-1.4796,-1.5938,-1.7203,-1.8305,-1.9254,-2.008,-2.0612,-2.0848,-2.0898,-2.118,-2.1712,-2.1793,-2.2044,-2.2417,-2.2678,-2.2934,-2.3319,-2.4173,-2.4664,-2.4981,-2.5626,-2.5917,-2.599,-2.6079,-2.6151,-2.6289,-2.6911,-2.7264,-2.7548,-2.8156,-2.8089,-2.7855,-2.7891,-2.7639,-2.7478,-2.8018,-2.947,-3.0993,-3.1799,-3.2193,-3.2559,-3.3136,-3.3274,-3.3334,-3.3422,-3.3452,-3.3481,-3.3615,-3.3935,-3.4213,-3.4357,-3.4185,-3.409,-3.4232,-3.4268,-3.4494,-3.5102,-3.516,-3.516,-3.516,-3.5196,-3.5212,-3.5212,-3.5193,-3.5193,-3.5176,-3.516,-3.516,-3.516,-3.5999,-3.6438,-3.6438,-3.7276,-3.7791,-3.8039,-3.8704,-3.9107,0.5894,0.5231,0.0,0.4858,0.4773,0.4601,0.4717,0.0,0.0,0.0,0.0,0.0,0.0,0.0,0.0,0.0,0.0,0.0,0.0,0.0,0.0,0.0,0.0,0.0,0.0,0.0,0.0,0.0,0.0,0.0,0.0,0.0,0.0,0.0,-1.3139,-1.4264,-1.5688,-1.6869,-1.8089,-1.9438,-2.0118,-2.0835,-2.1471,-2.118,-2.1423,-2.1996,-2.2245,-2.2477,-2.2737,-2.2918,-2.3127,-2.3392,-2.4105,-2.4477,-2.4759,-2.546,-2.5811,-2.5937,-2.6239,-2.6345,-2.6499,-2.7322,-2.7408,-2.7308,-2.8082,-2.7796,-2.7209,-2.7211,-2.7298,-2.7413,-2.7589,-2.8945,-3.054,-3.1415,-3.2159,-3.2814,-3.3302,-3.3452,-3.3509,-3.352,-3.3265,-3.3103,-3.325,-3.3321,-3.3515,-3.3942,-3.4226,-3.4266,-3.3993,-3.4222,-3.4623,-3.5152,-3.5209,-3.5209,-3.5245,-3.5226,-3.5242,-3.5239,-3.5239,-3.5242,-3.5226,-3.5209,-3.5209,-3.5209,-3.5725,-3.5993,-3.5993,-3.647,-3.6871,-3.7234,-3.7816,-3.8221,0.5821,0.0,0.0,0.4744,0.4749,0.0,0.5067,0.4887,0.4549,0.4005,0.0,0.0,0.0,0.0,0.0,0.0,0.0,0.0,0.0,0.0,0.0,0.0,0.0,0.0,0.0,0.0,0.0,0.0,0.0,0.0,0.0,0.0,0.0,-1.1421,-1.2451,-1.387,-1.5706,-1.6655,-1.8101,0.0,-2.0295,-2.1006,-2.2077,-2.1568,-2.1616,-2.2137,-2.2644,-2.2902,-2.2934,-2.3112,-2.3466,-2.3982,-2.4024,-2.4369,-2.4918,-2.5351,-2.5668,-2.5885,-2.6364,-2.652,-2.6672,-2.741,-2.7192,-2.6789,-2.7601,-2.7314,-2.6741,-2.681,-2.7261,-2.7754,-2.7794,-2.8874,-3.0108,-3.0854,-3.2247,-3.3429,-3.3468,-3.3496,-3.3478,-3.3386,-3.2803,-3.2373,-3.2662,-3.2269,-3.227,-3.3261,-3.431,-3.4713,-3.3983,-3.4579,-3.5114,-3.519,-3.5209,-3.5226,-3.5293,-3.5293,-3.5308,-3.53,-3.5315,-3.5285,-3.5293,-3.5242,-3.5209,-3.5209,-3.5209,-3.5209,-3.5209,-3.5209,-3.5611,-3.6394,-3.6588,-3.6995,0.6439,0.5964,0.0,0.0,0.5035,0.4914,0.5091,0.5158,0.5124,0.0,0.0,0.0,0.0,0.0,0.0,0.0,0.0,0.0,0.0,0.0,0.0,0.0,0.0,0.0,0.0,0.0,0.0,0.0,0.0,0.0,0.0,0.0,0.0,-1.0647,-1.1205,-1.2594,-1.4885,-1.6001,-1.7291,0.0,-1.9978,-2.0795,-2.1286,-2.1732,-2.231,-2.2859,-2.3098,-2.3246,-2.3363,-2.3436,-2.361,-2.3882,-2.4302,-2.4744,-2.5259,-2.5721,-2.6225,-2.6657,-2.6775,-2.6859,-2.6995,-2.776,-2.7879,-2.7913,-2.8645,-2.8355,-2.7777,-2.7794,-2.75,-2.7293,-2.7754,-2.8607,-2.9557,-3.0221,-3.1542,-3.2648,-3.2648,-3.2648,-3.2493,-3.1916,-3.1642,-3.1616,-3.189,-3.2011,-3.2015,-3.1958,-3.2737,-3.3264,-3.3077,-3.3765,-3.4512,-3.5219,-3.5277,-3.5273,-3.5285,-3.53,-3.53,-3.53,-3.5315,-3.53,-3.53,-3.5293,-3.5261,-3.5209,-3.5209,-3.5209,-3.5209,-3.5209,-3.5305,-3.5496,-3.6198,-3.6619,0.6235,0.0,0.0,0.5183,0.0,0.5057,0.5195,0.5342,0.5339,0.0,0.0,0.0,0.0,0.0,0.0,0.0,0.0,0.0,0.0,0.0,0.0,0.0,0.0,0.0,0.0,0.0,0.0,0.0,0.0,0.0,0.0,-0.6976,-0.7678,-0.8361,-1.118,-1.3292,-1.4625,-1.7308,-1.9359,-2.0681,-2.1005,-2.1615,-2.2515,-2.2512,-2.2889,-2.3508,-2.3551,-2.3739,-2.3952,-2.3979,-2.4063,-2.4219,-2.4508,-2.4759,-2.5044,-2.5535,-2.5994,-2.64,-2.6674,-2.6842,-2.7127,-2.7945,-2.7945,-2.7823,-2.8646,-2.832,-2.7686,-2.7801,-2.7604,-2.7491,-2.7964,-2.8569,-2.9264,-3.0099,-3.1146,-3.1968,-3.1968,-3.1968,-3.184,-3.1426,-3.1047,-3.0912,-3.1129,-3.1485,-3.1533,-3.1011,-3.2354,-3.3274,-3.2852,-3.3868,-3.4806,-3.5247,-3.5304,-3.532,-3.535,-3.535,-3.5364,-3.5379,-3.5398,-3.5379,-3.535,-3.5354,-3.535,-3.534,-3.534,-3.5364,-3.5393,-3.5393,-3.5393,-3.5412,-3.5848,-3.6078,0.5947,0.0,0.5092,0.4922,0.4997,0.0,0.5299,0.5381,0.0,0.0,0.0,0.0,0.0,0.0,0.0,0.0,0.0,0.0,0.0,0.0,0.0,0.0,0.0,0.0,0.0,0.0,0.0,0.0,0.0,0.0,-0.4674,-0.5401,-0.5716,-0.5618,-1.0123,-1.3168,-1.4415,-1.7995,-2.0973,-2.3269,-2.2405,-2.2773,-2.423,-2.3537,-2.3537,-2.4048,-2.4048,-2.4214,-2.4477,-2.4517,-2.4614,-2.4695,-2.4695,-2.4751,-2.4895,-2.5406,-2.5762,-2.6104,-2.6607,-2.6925,-2.7255,-2.7969,-2.7777,-2.7428,-2.8209,-2.7903,-2.7307,-2.7478,-2.7689,-2.7915,-2.8237,-2.8608,-2.9099,-3.0001,-3.0688,-3.1157,-3.128,-3.1299,-3.1262,-3.1066,-3.0572,-3.025,-3.042,-3.0823,-3.0939,-3.0375,-3.2262,-3.3508,-3.2894,-3.4295,-3.533,-3.5315,-3.5315,-3.533,-3.5412,-3.5412,-3.5446,-3.5493,-3.5501,-3.5488,-3.5412,-3.5422,-3.5457,-3.5507,-3.5483,-3.55,-3.5551,-3.5572,-3.5582,-3.5582,-3.5601,-3.5591,0.0,0.0,0.5222,0.0,0.5004,0.5122,0.0,0.0,0.0,0.0,0.0,0.0,0.0,0.0,0.0,0.0,0.0,0.0,0.0,0.0,0.0,0.0,0.0,0.0,0.0,0.0,0.0,0.0,0.0,0.0,-0.2943,-0.3143,-0.3394,-0.376,-0.4352,-0.7576,-1.3613,-1.4225,-1.7435,-2.3107,-2.3236,-2.3796,-2.4784,-2.4704,-2.4664,-2.4695,-2.4695,-2.4719,-2.4823,-2.4974,-2.5052,-2.5114,-2.5114,-2.5384,-2.5848,-2.6229,-2.664,-2.7068,-2.7413,-2.7582,-2.763,-2.7747,-2.7712,-2.7659,-2.7794,-2.7712,-2.7642,-2.7672,-2.7829,-2.8055,-2.8396,-2.8633,-2.8915,-2.9348,-2.9564,-2.9823,-3.0415,-3.054,-3.0337,-2.9617,-2.9639,-2.9794,-2.9812,-3.0167,-3.0394,-3.0318,-3.1444,-3.2436,-3.284,-3.4397,-3.5446,-3.5383,-3.5398,-3.5412,-3.5493,-3.5493,-3.5493,-3.5493,-3.5553,-3.5565,-3.5493,-3.5534,-3.5585,-3.5596,-3.5424,-3.5326,-3.5336,-3.547,-3.55,-3.5512,-3.5562,-3.5602,0.6231,0.5715,0.5274,0.0,0.5187,0.5241,0.5466,0.0,0.0,0.0,0.0,0.0,0.0,0.0,0.0,0.0,0.0,0.0,0.0,0.0,0.0,0.0,0.0,0.0,0.0,0.0,0.0,0.0,0.0,-0.0132,-0.0869,-0.1473,-0.1603,-0.1063,-0.3641,-0.5998,-0.81,-1.3565,-1.906,-2.4499,-2.4986,-2.5336,-2.5577,-2.5668,-2.5594,-2.5481,-2.5368,-2.5481,-2.5684,-2.5701,-2.5738,-2.5775,-2.5775,-2.5885,-2.6154,-2.6437,-2.6774,-2.7147,-2.747,-2.7695,-2.7829,-2.7933,-2.7961,-2.7989,-2.8063,-2.8035,-2.8007,-2.8063,-2.8174,-2.8368,-2.8688,-2.8966,-2.9188,-2.9429,-2.951,-2.9642,-2.9915,-2.9864,-2.9709,-2.9429,-2.957,-2.9794,-2.9943,-3.0182,-3.0379,-3.0421,-3.1359,-3.2378,-3.3294,-3.4623,-3.5495,-3.5449,-3.5449,-3.5468,-3.5507,-3.5545,-3.5565,-3.5565,-3.562,-3.563,-3.5611,-3.5631,-3.566,-3.566,-3.5523,-3.5512,-3.5641,-3.5611,-3.565,-3.5713,-3.5718,-3.5706,0.0,0.0,0.565,0.5494,0.55,0.5567,0.0,0.0,0.0,0.0,0.0,0.0,0.0,0.0,0.0,0.0,0.0,0.0,0.0,0.0,0.0,0.0,0.0,0.0,0.0,0.0,0.0,0.0,0.0,0.1178,0.107,0.0268,0.0334,0.1473,-0.1852,-0.4431,-0.597,-1.5971,-2.2738,-2.6286,-2.6622,-2.6657,-2.635,-2.6522,-2.6488,-2.6298,-2.6087,-2.6175,-2.647,-2.6435,-2.6435,-2.6435,-2.6365,-2.6365,-2.6435,-2.6774,-2.7017,-2.7255,-2.7631,-2.7908,-2.811,-2.8255,-2.8282,-2.8282,-2.8406,-2.8353,-2.8282,-2.844,-2.854,-2.87,-2.9016,-2.9291,-2.9492,-2.9608,-2.9664,-2.9701,-2.9626,-2.951,-2.9431,-2.9533,-2.9746,-2.9939,-3.0136,-3.0316,-3.0447,-3.0497,-3.1553,-3.2793,-3.4082,-3.5001,-3.554,-3.5528,-3.5528,-3.5534,-3.5534,-3.5572,-3.5592,-3.5592,-3.5673,-3.5708,-3.5671,-3.5721,-3.5721,-3.5693,-3.565,-3.5706,-3.5846,-3.5787,-3.5801,-3.5908,-3.5875,-3.5855,0.0,0.6629,0.0,0.608,0.6081,0.0,0.0,0.0,0.0,0.0,0.0,0.0,0.0,0.0,0.0,0.0,0.0,0.0,0.0,0.0,0.0,0.0,0.0,0.0,0.0,0.0,0.0,0.0,0.0,0.3473,0.2609,0.2544,0.2746,0.3353,0.3588,-0.1244,-1.1552,-2.2393,-2.787,-2.8057,-2.7572,-2.7241,-2.7053,-2.7317,-2.7361,-2.7192,-2.669,-2.6657,-2.6952,-2.6956,-2.7021,-2.7117,-2.6791,-2.6791,-2.6989,-2.7474,-2.7654,-2.7742,-2.8335,-2.8562,-2.8562,-2.8587,-2.8536,-2.8492,-2.8492,-2.8458,-2.8414,-2.8621,-2.8819,-2.9038,-2.9312,-2.9531,-2.9683,-2.9681,-2.9701,-2.9701,-2.9701,-2.9701,-2.9701,-2.9767,-2.995,-3.009,-3.0109,-3.0323,-3.0497,-3.0499,-3.1907,-3.3566,-3.5283,-3.5558,-3.5589,-3.5589,-3.5584,-3.5591,-3.5591,-3.5591,-3.5591,-3.5591,-3.5716,-3.5737,-3.5611,-3.5801,-3.5831,-3.5702,-3.5693,-3.5693,-3.5702,-3.5833,-3.5889,-3.5889,-3.5955,-3.5988,0.0,0.0,0.0,0.6509,0.641,0.6329,0.0,0.0,0.0,0.0,0.0,0.0,0.0,0.0,0.0,0.0,0.0,0.0,0.0,0.0,0.0,0.0,0.0,0.0,0.0,0.0,0.0,0.0,0.0,0.0,0.4296,0.3355,0.3294,0.4358,0.443,-0.045,-1.0832,-1.4601,-1.9908,-2.6792,-2.6595,-2.6302,-2.5936,-2.5889,-2.6004,-2.6184,-2.5813,-2.6355,-2.7457,-2.7444,-2.743,-2.7386,-2.7307,-2.7307,-2.7355,-2.7713,-2.7829,-2.7915,-2.8474,-2.8644,-2.8687,-2.8743,-2.8785,-2.8743,-2.8712,-2.8687,-2.8687,-2.8749,-2.8997,-2.9277,-2.9377,-2.9681,-2.9962,-2.9959,-2.9959,-2.9959,-2.9962,-2.9827,-2.9738,-2.9839,-2.9996,-3.0128,-3.0209,-3.0383,-3.0509,-3.0569,-3.1041,-3.218,-3.4298,-3.458,-3.4839,-3.5523,-3.5589,-3.5596,-3.5604,-3.5654,-3.5674,-3.5739,-3.5805,-3.5866,-3.5856,-3.5935,-3.594,-3.5896,-3.5896,-3.5875,-3.5838,-3.5781,-3.5816,-3.5896,-3.5923,-3.5938,0.6874,0.0,0.0,0.0,0.0,0.6734,0.0,0.0,0.0,0.0,0.0,0.0,0.0,0.0,0.0,0.0,0.0,0.0,0.0,0.0,0.0,0.0,0.0,0.0,0.0,0.0,0.0,0.0,0.0,0.0,0.5498,0.4351,0.4108,0.5076,0.1404,-0.3652,-1.014,-1.3691,-1.9105,-2.6222,-2.611,-2.585,-2.5473,-2.5402,-2.5482,-2.5646,-2.5612,-2.6349,-2.7571,-2.7487,-2.7606,-2.7777,-2.7701,-2.7689,-2.7736,-2.7933,-2.8055,-2.8165,-2.8601,-2.8815,-2.8887,-2.8957,-2.8998,-2.8952,-2.8905,-2.8881,-2.8881,-2.8957,-2.9212,-2.9476,-2.9551,-2.9836,-3.0132,-3.0102,-3.0098,-3.0098,-3.0102,-2.9962,-2.9876,-3.0015,-3.0114,-3.0222,-3.0371,-3.0471,-3.0568,-3.0623,-3.0906,-3.1642,-3.3113,-3.3528,-3.4088,-3.5102,-3.5218,-3.5342,-3.5608,-3.5697,-3.562,-3.5377,-3.5689,-3.5781,-3.5545,-3.5829,-3.5993,-3.5991,-3.5991,-3.5971,-3.593,-3.5841,-3.5849,-3.5932,-3.5927,-3.5934,0.0,0.0,0.0,0.0,0.0,0.0,0.0,0.0,0.0,0.0,0.0,0.0,0.0,0.0,0.0,0.0,0.0,0.0,0.0,0.0,0.0,0.0,0.0,0.0,0.0,0.0,0.0,0.0,0.0,0.5928,0.6207,0.5739,0.5506,0.5619,-0.4888,-1.0339,-0.996,-2.0898,-2.6468,-2.662,-2.6285,-2.5997,-2.5743,-2.5949,-2.5907,-2.5768,-2.6072,-2.6607,-2.7241,-2.7056,-2.7521,-2.8281,-2.789,-2.7897,-2.8091,-2.8156,-2.8317,-2.8543,-2.8815,-2.9044,-2.92,-2.92,-2.9156,-2.9112,-2.9089,-2.9062,-2.9044,-2.9249,-2.9436,-2.9662,-2.9855,-3.0049,-3.019,-3.0117,-3.0113,-3.0094,-3.0117,-3.0102,-3.0142,-3.0279,-3.0297,-3.0364,-3.0559,-3.0593,-3.0622,-3.069,-3.16,-3.2216,-3.1975,-3.2619,-3.3441,-3.4341,-3.4476,-3.4825,-3.5626,-3.5762,-3.5433,-3.4591,-3.5394,-3.551,-3.4679,-3.5525,-3.5996,-3.5992,-3.5992,-3.5992,-3.5992,-3.5992,-3.6007,-3.5994,-3.5994,-3.5991,0.7209,0.0,0.0,0.0,0.0,0.0,0.0,0.0,0.0,0.0,0.0,0.0,0.0,0.0,0.0,0.0,0.0,0.0,0.0,0.0,0.0,0.0,0.0,0.0,0.0,0.0,0.0,0.0,0.6039,0.62,0.6834,0.6495,0.6216,0.6043,-0.0722,-0.599,-0.9329,-1.6039,-2.1231,-2.4888,-2.4691,-2.4508,-2.436,-2.4262,-2.4307,-2.4487,-2.4404,-2.4944,-2.5957,-2.6381,-2.6622,-2.6747,-2.6662,-2.6971,-2.744,-2.7466,-2.7877,-2.8484,-2.885,-2.9012,-2.9079,-2.927,-2.933,-2.9289,-2.92,-2.9156,-2.9156,-2.9203,-2.9455,-2.9748,-3.009,-3.0226,-3.0272,-3.0259,-3.0213,-3.0194,-3.0226,-3.0213,-3.0174,-3.0216,-3.034,-3.0453,-3.0453,-3.0571,-3.0685,-3.0691,-3.1644,-3.2485,-3.2792,-3.3028,-3.3729,-3.5185,-3.4788,-3.4778,-3.5626,-3.5723,-3.567,-3.5509,-3.5756,-3.5801,-3.5614,-3.5856,-3.5996,-3.5996,-3.5996,-3.5996,-3.5996,-3.5996,-3.5994,-3.6007,-3.5996,-3.5991,0.0,0.0,0.0,0.0,0.0,0.0,0.0,0.7352,0.0,0.0,0.0,0.0,0.0,0.0,0.0,0.0,0.0,0.0,0.0,0.0,0.0,0.0,0.0,0.0,0.0,0.0,0.0,0.6309,0.6346,0.6568,0.6977,0.7074,0.7015,0.6691,0.14,-0.3802,-0.873,-1.3982,-1.92,-2.4247,-2.4133,-2.4016,-2.3876,-2.3685,-2.3728,-2.3917,-2.375,-2.413,-2.4886,-2.528,-2.5776,-2.6263,-2.6245,-2.647,-2.6832,-2.6741,-2.7127,-2.7718,-2.7934,-2.8107,-2.827,-2.8427,-2.8484,-2.8465,-2.8387,-2.8609,-2.8849,-2.8827,-2.9289,-2.9791,-2.98,-3.0049,-3.0286,-3.0292,-3.0266,-3.026,-3.0336,-3.0364,-3.0356,-3.0333,-3.0413,-3.0519,-3.0527,-3.0625,-3.0716,-3.0748,-3.1287,-3.18,-3.211,-3.2154,-3.2664,-3.401,-3.3735,-3.3929,-3.5135,-3.5262,-3.5325,-3.5398,-3.5736,-3.5806,-3.5468,-3.5819,-3.5995,-3.5995,-3.5996,-3.5996,-3.5996,-3.5996,-3.5996,-3.5994,-3.5991,-3.6005,0.7258,0.7397,0.0,0.0,0.0,0.0,0.7926,0.7857,0.0,0.0,0.0,0.0,0.0,0.0,0.0,0.0,0.0,0.0,0.0,0.0,0.0,0.0,0.0,0.0,0.0,0.644,0.6529,0.6505,0.682,0.6977,0.702,0.7498,0.7658,0.7289,0.197,-0.3333,-0.8335,-1.3901,-1.9256,-2.4284,-2.4209,-2.4132,-2.3996,-2.3858,-2.3816,-2.3816,-2.381,-2.3912,-2.4113,-2.4113,-2.4953,-2.6231,-2.6103,-2.6095,-2.6164,-2.6049,-2.6267,-2.6661,-2.6643,-2.6878,-2.7189,-2.7206,-2.7223,-2.7223,-2.7206,-2.7713,-2.8276,-2.8221,-2.898,-2.9673,-2.9231,-2.9702,-3.0304,-3.0318,-3.0305,-3.0311,-3.0389,-3.0492,-3.0576,-3.0521,-3.053,-3.0565,-3.0678,-3.0703,-3.0739,-3.0799,-3.0823,-3.0864,-3.0864,-3.086,-3.119,-3.2045,-3.2117,-3.2725,-3.4327,-3.4503,-3.4586,-3.4681,-3.5433,-3.555,-3.4876,-3.5599,-3.6009,-3.6009,-3.5995,-3.5996,-3.5996,-3.5996,-3.5996,-3.5996,-3.5996,-3.5996,0.7629,0.0,0.0,0.0,0.0,0.0,0.8025,0.7874,0.0,0.0,0.0,0.0,0.0,0.0,0.0,0.0,0.0,0.0,0.0,0.0,0.0,0.0,0.0,0.0,0.0,0.6882,0.697,0.6977,0.73,0.7676,0.7949,0.7396,0.7176,0.7289,0.1447,-0.4025,-0.8892,-1.404,-1.9208,-2.4284,-2.4171,-2.4094,-2.4074,-2.3896,-2.3896,-2.4016,-2.3876,-2.3978,-2.4247,-2.4154,-2.4317,-2.4647,-2.4627,-2.4951,-2.5415,-2.5372,-2.5834,-2.649,-2.6802,-2.6972,-2.7063,-2.7304,-2.7352,-2.7336,-2.724,-2.7319,-2.7466,-2.7597,-2.836,-2.9104,-2.9173,-2.9781,-3.0375,-3.0375,-3.0328,-3.0323,-3.039,-3.046,-3.054,-3.0563,-3.0665,-3.075,-3.0782,-3.0778,-3.0774,-3.0798,-3.1393,-3.1831,-3.1831,-3.1826,-3.2138,-3.2956,-3.2435,-3.2439,-3.3467,-3.3563,-3.3906,-3.4654,-3.4861,-3.5193,-3.5723,-3.5918,-3.5996,-3.5996,-3.5994,-3.5996,-3.5996,-3.5996,-3.5996,-3.5996,-3.5996,-3.5996,0.7669,0.0,0.0,0.8381,0.0,0.0,0.0,0.0,0.0,0.0,0.0,0.0,0.0,0.0,0.0,0.0,0.0,0.0,0.0,0.0,0.0,0.0,0.0,0.0,0.0,0.7198,0.7408,0.7628,0.7889,0.8156,0.8487,0.8203,0.8137,0.8349,0.517,-0.0312,-0.8184,-1.105,-1.6441,-2.4284,-2.4229,-2.4171,-2.4094,-2.3996,-2.3937,-2.3937,-2.3837,-2.3958,-2.4209,-2.4134,-2.4172,-2.4284,-2.4228,-2.441,-2.4699,-2.4659,-2.5016,-2.5523,-2.5687,-2.5876,-2.6072,-2.6214,-2.6242,-2.6195,-2.6122,-2.6374,-2.6741,-2.6911,-2.7892,-2.8847,-2.8616,-2.9505,-3.0458,-3.0458,-3.0417,-3.0417,-3.0481,-3.0558,-3.0614,-3.0691,-3.0759,-3.0807,-3.0801,-3.0794,-3.081,-3.081,-3.1176,-3.1453,-3.1454,-3.1454,-3.1597,-3.196,-3.1631,-3.1754,-3.2637,-3.2695,-3.3083,-3.3983,-3.4059,-3.4429,-3.533,-3.5349,-3.5564,-3.5991,-3.6005,-3.5992,-3.5995,-3.5995,-3.5996,-3.5996,-3.5996,-3.5996,0.0,0.0,0.0,0.0,0.0,0.8498,0.0,0.0,0.0,0.0,0.0,0.0,0.0,0.0,0.0,0.0,0.0,0.0,0.0,0.0,0.0,0.0,0.0,0.0,0.0,0.7499,0.7788,0.8215,0.8324,0.8475,0.8804,0.8896,0.9047,0.9256,0.883,0.3934,-0.5774,-0.746,-1.3108,-2.2656,-2.3768,-2.421,-2.4133,-2.4113,-2.3996,-2.3837,-2.3858,-2.3958,-2.4133,-2.4171,-2.4303,-2.4446,-2.4303,-2.4229,-2.421,-2.4171,-2.4302,-2.4508,-2.4522,-2.4746,-2.5031,-2.507,-2.507,-2.5025,-2.5025,-2.5488,-2.6041,-2.6171,-2.7294,-2.8418,-2.8029,-2.9081,-3.0316,-3.0451,-3.0499,-3.0519,-3.0597,-3.0653,-3.0724,-3.0765,-3.0781,-3.0796,-3.0804,-3.0801,-3.0801,-3.0801,-3.0801,-3.0807,-3.079,-3.0795,-3.078,-3.0739,-3.0772,-3.1079,-3.1797,-3.1853,-3.2224,-3.308,-3.3141,-3.3612,-3.4666,-3.4861,-3.5271,-3.5991,-3.5991,-3.5999,-3.6009,-3.6009,-3.5992,-3.5996,-3.5996,-3.5996,0.0,0.0,0.0,0.0,0.8908,0.0,0.0,0.0,0.0,0.0,0.0,0.0,0.0,0.0,0.0,0.0,0.0,0.0,0.0,0.0,0.0,0.0,0.0,0.0,0.0,0.0,0.7998,0.8355,0.8236,0.8313,0.8791,0.8408,0.8349,0.8679,0.8249,0.5272,-0.0343,-0.5486,-1.0941,-1.6747,-2.1795,-2.4192,-2.4192,-2.4133,-2.4054,-2.3996,-2.4039,-2.4154,-2.4303,-2.4428,-2.4528,-2.4645,-2.4446,-2.4339,-2.4284,-2.4266,-2.4248,-2.4284,-2.4572,-2.47,-2.4783,-2.5019,-2.5076,-2.5089,-2.5089,-2.5233,-2.5409,-2.5426,-2.6207,-2.7179,-2.7813,-2.8714,-2.9622,-3.0337,-3.0548,-3.0593,-3.0614,-3.0655,-3.0703,-3.0714,-3.0755,-3.0799,-3.0799,-3.0794,-3.0791,-3.0791,-3.0804,-3.0801,-3.0804,-3.0808,-3.08,-3.08,-3.0808,-3.0843,-3.093,-3.0946,-3.1328,-3.2186,-3.2257,-3.2988,-3.4627,-3.5447,-3.5896,-3.5991,-3.5991,-3.5994,-3.5994,-3.5994,-3.6001,-3.5992,-3.5996,-3.5996,0.0,0.0,0.0,0.0,0.0,0.0,0.7946,0.0,0.7745,0.0,0.0,0.0,0.0,0.0,0.0,0.0,0.0,0.0,0.0,0.0,0.0,0.0,0.0,0.0,0.0,0.0,0.0,0.0,0.0,0.8781,0.9145,0.8935,0.8928,0.9197,0.904,0.4778,-0.4004,-0.6399,-1.1984,-2.0774,-2.3139,-2.4247,-2.4192,-2.4114,-2.4074,-2.3996,-2.3998,-2.4037,-2.4134,-2.4302,-2.4444,-2.4545,-2.4513,-2.4481,-2.441,-2.4321,-2.4409,-2.4556,-2.4666,-2.4832,-2.5,-2.5088,-2.5101,-2.5107,-2.5101,-2.5172,-2.5253,-2.5293,-2.6004,-2.6826,-2.7207,-2.8305,-2.938,-2.9709,-3.0202,-3.0598,-3.0598,-3.0643,-3.071,-3.0761,-3.0806,-3.086,-3.086,-3.0838,-3.0796,-3.0796,-3.0794,-3.0799,-3.0792,-3.0801,-3.0793,-3.0752,-3.0747,-3.074,-3.0739,-3.0784,-3.0953,-3.1324,-3.1812,-3.2667,-3.3886,-3.4783,-3.5486,-3.5991,-3.5991,-3.5991,-3.5991,-3.5991,-3.5996,-3.6001,-3.6005,-3.5993,0.8096,0.0,0.0,0.0,0.0,0.0,0.0,0.0,0.0,0.0,0.0,0.0,0.0,0.0,0.0,0.0,0.0,0.0,0.0,0.0,0.0,0.0,0.0,0.0,0.0,0.0,0.0,0.0,0.0,0.0,0.9263,0.9284,0.9372,0.9614,0.9784,0.5826,-0.2542,-0.5649,-1.1369,-1.9663,-2.2806,-2.4266,-2.421,-2.4152,-2.4074,-2.3996,-2.3978,-2.3998,-2.4037,-2.4302,-2.4444,-2.4493,-2.4613,-2.4613,-2.4528,-2.4393,-2.4513,-2.4704,-2.4746,-2.4942,-2.5187,-2.5149,-2.5125,-2.5144,-2.5139,-2.5195,-2.5264,-2.5312,-2.5848,-2.6459,-2.6738,-2.7691,-2.8702,-2.9186,-2.9805,-3.0337,-3.0578,-3.069,-3.0779,-3.0813,-3.0866,-3.0903,-3.0903,-3.0862,-3.0841,-3.0841,-3.0806,-3.0795,-3.0801,-3.0771,-3.0758,-3.0706,-3.0695,-3.071,-3.071,-3.0734,-3.0774,-3.0799,-3.1616,-3.2475,-3.3344,-3.4206,-3.5084,-3.5958,-3.5965,-3.5965,-3.5965,-3.5991,-3.5991,-3.5991,-3.5991,-3.6003,0.0,0.0,0.0,0.8421,0.0,0.0,0.0,0.0,0.7951,0.0,0.0,0.0,0.0,0.0,0.0,0.9112,0.0,0.0,0.0,0.0,0.0,0.0,0.0,0.0,0.0,0.0,0.0,0.0,0.0,0.0,0.887,0.8905,0.9141,0.9607,0.9836,0.9843,0.9468,-0.148,-0.7196,-0.7678,-1.8943,-2.4284,-2.4284,-2.4171,-2.4074,-2.4016,-2.4135,-2.4154,-2.4135,-2.451,-2.4692,-2.4707,-2.4783,-2.4749,-2.4676,-2.4532,-2.4465,-2.4446,-2.4783,-2.5032,-2.5206,-2.5203,-2.521,-2.521,-2.521,-2.5303,-2.5398,-2.5395,-2.5515,-2.5822,-2.6604,-2.68,-2.7205,-2.8896,-2.937,-2.967,-3.052,-3.0808,-3.0898,-3.0898,-3.0897,-3.0894,-3.0894,-3.0907,-3.0899,-3.0899,-3.0836,-3.0801,-3.0801,-3.0735,-3.0706,-3.0701,-3.0691,-3.0697,-3.0697,-3.0704,-3.0734,-3.0799,-3.1622,-3.2465,-3.3264,-3.414,-3.5017,-3.5894,-3.5895,-3.5908,-3.5908,-3.5965,-3.5991,-3.5991,-3.5991,-3.5994,0.0,0.0,0.8436,0.8459,0.0,0.0,0.0,0.0,0.0,0.0,0.0,0.0,0.0,0.0,0.0,0.9207,0.0,0.0,0.0,0.0,0.0,0.0,0.0,0.0,0.0,0.0,0.0,0.0,0.8276,0.0,0.0,0.9111,0.9307,0.9725,0.9895,0.8204,0.4429,-0.3008,-0.867,-1.2598,-2.0339,-2.4037,-2.4037,-2.4094,-2.4074,-2.3996,-2.3998,-2.3959,-2.3921,-2.4337,-2.451,-2.4526,-2.4719,-2.4768,-2.4692,-2.4599,-2.4645,-2.476,-2.5006,-2.5145,-2.519,-2.5206,-2.5231,-2.5274,-2.5274,-2.533,-2.5422,-2.5439,-2.5499,-2.5609,-2.5913,-2.6385,-2.7057,-2.8223,-2.8958,-2.9648,-3.0575,-3.0808,-3.0852,-3.0897,-3.0897,-3.0898,-3.0833,-3.0829,-3.0829,-3.0839,-3.0774,-3.0726,-3.073,-3.0712,-3.0697,-3.0701,-3.0691,-3.069,-3.069,-3.0704,-3.0704,-3.0734,-3.1012,-3.1568,-3.246,-3.3298,-3.4125,-3.4971,-3.5541,-3.5807,-3.576,-3.5794,-3.5807,-3.5795,-3.5795,-3.5852,0.783,0.8262,0.0,0.8531,0.8658,0.0,0.8565,0.0,0.0,0.0,0.0,0.0,0.0,0.0,0.0,0.9873,0.9701,0.0,0.0,0.0,0.0,0.0,0.0,0.0,0.0,0.0,0.8313,0.7925,0.0,0.0,0.0,0.0,0.9294,0.9657,0.9938,0.8367,0.4675,-0.0867,-0.6543,-1.229,-1.8151,-2.1981,-2.3896,-2.4036,-2.4074,-2.3996,-2.3917,-2.3899,-2.3921,-2.4265,-2.4441,-2.4526,-2.4783,-2.4813,-2.4704,-2.4629,-2.4719,-2.4929,-2.5091,-2.519,-2.5222,-2.522,-2.5233,-2.5265,-2.5293,-2.5365,-2.5437,-2.5486,-2.5517,-2.5556,-2.5593,-2.5976,-2.6669,-2.7815,-2.854,-2.9316,-3.0546,-3.0823,-3.0857,-3.0897,-3.0898,-3.0891,-3.0843,-3.0797,-3.0753,-3.0765,-3.0732,-3.07,-3.0708,-3.0711,-3.0697,-3.0703,-3.0698,-3.069,-3.069,-3.069,-3.0704,-3.0704,-3.0685,-3.119,-3.2402,-3.2622,-3.341,-3.4835,-3.5133,-3.5241,-3.5204,-3.5514,-3.5503,-3.5211,-3.5521,-3.5704]}]]